     2              OBSERVATION DATA                        RINEX VERSION / TYPE
DAT2RIN 1.01d Dan Johnson 14SEP96 7:06:06 GMT               PGM / RUN BY / DATE
Mojave '96 team Central Washington U                        OBSERVER / AGENCY
16320 TRIMBLE 4000SSI Nav 7.09 Sig 3.03                     REC # / TYPE / VERS
66594 TRIMBLE CHOKE                                         ANT # / TYPE
JOBU JOHANNESBURG                                           MARKER NAME
 -2421208.0000 -4613274.0000  3669248.0000                  APPROX POSITION XYZ
        0.5000        0.0000        0.0000                  ANTENNA: DELTA H/E/N
     1     1     0                                          WAVELENGTH FACT L1/2
     5    L1    C1    P1    L2    P2                        # / TYPES OF OBSERV
    30                                                      INTERVAL
  1996     9     8     0     0   30.000000                  TIME OF FIRST OBS
  1996     9     8    23    59    0.000000                  TIME OF LAST OBS
                                                            COMMENT
PANGA GPS Data Analysis Center                              COMMENT
Department of Geology                                       COMMENT
Central Washington University                               COMMENT
Ellensburg, WA 98926                                        COMMENT
                                                            COMMENT
http://www.panga.cwu.edu                                    COMMENT
ftp://panga.cwu.edu                                         COMMENT
                                                            COMMENT
    25                                                      # OF SATELLITES
           1   748   749     0   746   746                  PRN / # OF OBS
           2   854   854     0   847   847                  PRN / # OF OBS
           3   916   917     0   907   907                  PRN / # OF OBS
           4   777   778     0   772   772                  PRN / # OF OBS
           5   720   720     0   716   716                  PRN / # OF OBS
           6   782   782     0   778   778                  PRN / # OF OBS
           7   741   741     0   737   737                  PRN / # OF OBS
           9   873   873     0   868   868                  PRN / # OF OBS
          10   886   888     0   876   876                  PRN / # OF OBS
          14   712   712     0   709   709                  PRN / # OF OBS
          15   882   883     0   871   871                  PRN / # OF OBS
          16   899   900     0   889   889                  PRN / # OF OBS
          17   857   857     0   851   851                  PRN / # OF OBS
          18   769   770     0   767   767                  PRN / # OF OBS
          19   856   856     0   854   854                  PRN / # OF OBS
          21   860   860     0   854   854                  PRN / # OF OBS
          22   895   895     0   889   889                  PRN / # OF OBS
          23   799   799     0   797   797                  PRN / # OF OBS
          24   700   700     0   695   695                  PRN / # OF OBS
          25   660   660     0   658   658                  PRN / # OF OBS
          26   938   938     0   930   930                  PRN / # OF OBS
          27   821   821     0   818   818                  PRN / # OF OBS
          28   678     1   679   678   678                  PRN / # OF OBS
          29   854   854     0   852   852                  PRN / # OF OBS
          31   933   933     0   926   926                  PRN / # OF OBS
                                                            END OF HEADER
 96  9  8  0  0 30.0000000  0  6  1 14 15 21 25 29
   8488836.41810  22833320.89100                   6732884.05450  22833326.07040
  -5278037.95710  23364274.35900                  -4011976.20450  23364279.71540
 -11063768.04510  21041543.12500                  -8469714.53350  21041548.24640
  16415138.68410  23418562.33600                   3597316.35450  23418568.19540
  -6066379.52310  20929599.76600                  -4672634.54050  20929603.68040
  -4381064.17110  23446880.36700                  -3311566.72650  23446885.12540
 96  9  8  0  1  0.0000000  0  6  1 14 15 21 25 29
   8594320.75700  22853394.16400                   6815079.62240  22853399.14540
  -5328499.89900  23354671.93800                  -4051297.15240  23354677.24640
 -11046192.79100  21044887.64100                  -8456019.53240  21044892.65640
  16528186.66000  23440073.22700                   3685405.63840  23440079.85940
  -6044255.90900  20933809.47700                  -4655395.34840  20933813.50840
  -4414058.19100  23440601.94500                  -3337276.33740  23440606.70340
 96  9  8  0  1 30.0000000  0  6  1 14 15 21 25 29
   8699886.92000  22873482.61700                   6897338.94440  22873487.93840
  -5378909.66400  23345079.01600                  -4090577.46340  23345084.85240
 -11027983.14000  21048352.61700                  -8441830.19340  21048357.66840
  16641470.91400  23461632.01600                   3773679.03640  23461638.26240
  -6021602.08000  20938120.53100                  -4637743.00040  20938124.51640
  -4446879.27500  23434356.39800                  -3362851.16640  23434361.40240
 96  9  8  0  2  0.0000000  0  6  1 14 15 21 25 29
   8805536.47300  22893587.48400                   6979663.25140  22893592.91040
  -5429257.76100  23335498.12500                  -4129809.71640  23335504.32440
 -11009131.27100  21051940.10900                  -8427140.42840  21051945.32440
  16755007.90600  23483237.57800                   3862149.34740  23483244.32840
  -5998401.88200  20942535.39800                  -4619664.91140  20942539.46540
  -4479541.98600  23428140.08600                  -3388302.60640  23428144.69140
 96  9  8  0  2 30.0010000  0  6  1 14 15 21 25 29
   8911269.05400  22913707.60600                   7062052.26140  22913712.30640
  -5479551.10400  23325927.36400                  -4168999.30840  23325932.69640
 -10989643.84600  21055648.43500                  -8411955.42940  21055653.55640
  16868796.41500  23504889.77800                   3950815.69740  23504895.35640
  -5974654.31600  20947054.43500                  -4601160.30240  20947058.45440
  -4512067.44900  23421951.27100                  -3413647.08940  23421956.29840
 96  9  8  0  3  0.0010000  0  6  1 14 15 21 25 29
   9017083.01900  22933843.01300                   7144504.67440  22933848.05240
  -5529792.99300  23316366.73100                  -4208148.80640  23316371.39640
 -10969516.61400  21059478.52100                  -8396271.87840  21059483.75940
  16982826.73000  23526588.46600                   4039670.43140  23526595.27440
  -5950347.27600  20951679.86400                  -4582219.73940  20951683.80240
  -4544433.96900  23415791.81000                  -3438867.73140  23415796.49740
 96  9  8  0  3 30.0010000  0  6  1 14 15 21 25 29
   9122971.35800  22953993.59900                   7227015.05540  22953998.90740
  -5579982.65800  23306816.12200                  -4247257.60540  23306820.52840
 -10948745.53200  21063431.07500                  -8380086.62940  21063436.24340
  17097100.40400  23548335.41100                   4128714.78240  23548342.23140
  -5925476.83700  20956412.68500                  -4562840.16340  20956416.55240
  -4576629.38000  23409665.77800                  -3463955.02240  23409670.70040
 96  9  8  0  4  0.0010000  0  6  1 14 15 21 25 29
   9228926.74900  22974156.13800                   7309577.69840  22974161.30640
  -5630125.29300  23297274.31700                  -4286329.74040  23297279.81340
 -10927334.40000  21067505.60600                  -8363402.62840  21067510.82140
  17211620.34100  23570127.98100                   4217951.04540  23570133.46640
  -5900035.27500  20961254.01300                  -4543015.55540  20961258.03240
  -4608633.82800  23403574.84100                  -3488893.51340  23403579.56340
 96  9  8  0  4 30.0010000  0  6  1 14 15 21 25 29
   9334951.40700  22994332.08300                   7392194.30140  22994337.23940
  -5680227.69300  23287739.64600                  -4325370.54740  23287744.63840
 -10905293.08600  21071700.07500                  -8346227.57940  21071704.96240
  17326387.46700  23591967.32500                   4307379.93840  23591973.95840
  -5874033.17500  20966201.94200                  -4522754.16840  20966205.90340
  -4640450.02400  23397520.75500                  -3513685.32140  23397525.46640
 96  9  8  0  5  0.0010000  0  6  1 14 15 21 25 29
   9441052.79900  23014521.88800                   7474870.69940  23014527.39640
  -5730278.31200  23278215.73100                  -4364370.98940  23278220.89940
 -10882606.57300  21076016.96600                  -8328549.77840  21076021.93540
  17441423.91000  23613858.61400                   4397018.65940  23613865.97840
  -5847458.96300  20971258.64600                  -4502046.97740  20971262.61840
  -4672054.12500  23391506.73100                  -3538311.85440  23391511.11440
 96  9  8  0  5 30.0010000  0  6  1 14 15 21 25 29
   9547217.62900  23034724.16100                   7557596.53840  23034729.68140
  -5780266.59300  23268703.16900                  -4403322.86740  23268708.70040
 -10859275.70200  21080456.78600                  -8310369.88040  21080461.86040
  17556747.26400  23635802.71600                   4486880.97840  23635807.88440
  -5820324.37800  20976422.37200                  -4480903.13340  20976426.35640
  -4703451.38100  23385531.91100                  -3562777.20540  23385536.88040
 96  9  8  0  6  0.0010000  0  6  1 14 15 21 25 29
   9653439.16100  23054937.72400                   7640366.55940  23054943.32540
  -5830197.89500  23259201.80200                  -4442230.32740  23259206.97040
 -10835311.92200  21085016.84100                  -8291696.81240  21085021.99740
  17672353.53800  23657802.84100                   4576963.73940  23657808.53640
  -5792640.02500  20981690.50500                  -4459330.90240  20981694.51340
  -4734666.35000  23379591.97400                  -3587100.52040  23379596.83740
 96  9  8  0  6 30.0010000  0  6  1 14 15 21 25 29
   9759722.73400  23075163.02800                   7723184.91140  23075168.19640
  -5880043.23300  23249716.38000                  -4481070.82940  23249721.86440
 -10810694.76500  21089701.29400                  -8272514.61240  21089706.61440
  17788244.63200  23679855.08300                   4667268.43540  23679861.48140
  -5764394.53400  20987065.43500                  -4437321.41940  20987069.39640
  -4765687.09700  23373688.91100                  -3611272.49840  23373693.88040
 96  9  8  0  7  0.0010000  0  6  1 14 15 21 25 29
   9866044.43400  23095395.43500                   7806032.99040  23095400.87240
  -5929798.21500  23240248.02100                  -4519840.91240  23240253.17740
 -10785430.72900  21094508.91100                  -8252828.34340  21094514.05640
  17904389.25300  23701957.73100                   4757770.67540  23701964.73140
  -5735611.47300  20992542.71600                  -4414893.04840  20992546.57140
  -4796508.62900  23367823.97400                  -3635289.22740  23367828.67340
 96  9  8  0  7 30.0010000  0  6  1 14 15 21 25 29
   9972409.52900  23115636.34100                   7888914.87240  23115640.99340
  -5979470.20600  23230795.58300                  -4558546.32540  23230800.90340
 -10759525.91100  21099438.54400                  -8232642.76340  21099443.82940
  18020767.90700  23724103.38000                   4848455.27840  23724110.43840
  -5706297.55300  20998120.71600                  -4392051.02040  20998124.61840
  -4827144.32800  23361993.99700                  -3659161.15940  23361999.21240
 96  9  8  0  8  0.0010000  0  6  1 14 15 21 25 29
  10078838.58900  23135888.58300                   7971846.60040  23135893.24740
  -6029066.59300  23221358.00500                  -4597192.81840  23221363.45440
 -10732973.97400  21104491.06700                  -8211952.94540  21104496.03640
  18137367.82800  23746292.82500                   4939312.31240  23746297.97040
  -5676443.12000  21003801.90300                  -4368787.81640  21003805.91140
  -4857591.17300  23356199.86400                  -3682885.93240  23356205.27840
 96  9  8  0  8 30.0010000  0  6  1 14 15 21 25 29
  10185328.59400  23156153.21600                   8054825.79240  23156157.93840
  -6078616.32100  23211928.71600                  -4635802.96140  23211933.70840
 -10705788.93200  21109664.52800                  -8190769.78640  21109669.70840
  18254175.60600  23768520.45000                   5030331.31140  23768528.20040
  -5646062.94000  21009583.09900                  -4345114.93640  21009587.08340
  -4887850.58400  23350441.93500                  -3706464.64540  23350445.80240
 96  9  8  0  9  0.0010000  0  6  1 14 15 21 25 29
  10291900.86100  23176433.09100                   8137869.11640  23176438.01340
  -6128130.46800  23202506.27100                  -4674385.37740  23202511.54440
 -10677963.69700  21114959.34900                  -8169087.77840  21114964.55240
  18371213.91700  23790791.50500                   5121529.95740  23790796.55640
  -5615147.13100  21015466.23100                  -4321024.68440  21015470.19240
  -4917932.21900  23344717.20000                  -3729904.83540  23344721.89940
 96  9  8  0  9 30.0010000  0  6  1 14 15 21 25 29
  10398546.59300  23196727.34100                   8220969.67140  23196732.34540
  -6177623.71500  23193088.18500                  -4712951.52140  23193093.22440
 -10649498.51200  21120375.84900                  -8146907.10040  21120381.00540
  18488502.23600  23813111.06000                   5212923.38840  23813118.07140
  -5583682.09700  21021453.70800                  -4296506.46440  21021457.65740
  -4947849.98600  23339024.23100                  -3753217.33840  23339028.68540
 96  9  8  0 10  0.0010000  0  6  1 14 15 21 25 29
  10505249.62900  23217031.72400                   8304114.88940  23217036.47040
  -6227087.82100  23183675.56000                  -4751494.95440  23183680.81040
 -10620394.72200  21125914.20800                  -8124228.81340  21125919.54040
  18606044.24600  23835478.62200                   5304514.52340  23835485.92740
  -5551669.97800  21027545.66900                  -4271561.94540  21027549.57140
  -4977606.78600  23333361.68500                  -3776404.39840  23333367.00540
 96  9  8  0 10 30.0010000  0  6  1 14 15 21 25 29
  10612007.85200  23237347.24700                   8387303.09640  23237352.20440
  -6276488.17800  23174274.93500                  -4789988.70040  23174280.74740
 -10590636.28800  21131576.99700                  -8101040.41040  21131582.25940
  18723861.96500  23857898.98900                   5396320.45040  23857906.62240
  -5519086.80200  21033746.02100                  -4246172.44540  21033750.00540
  -5007197.02100  23327731.34900                  -3799461.67140  23327736.06040
 96  9  8  0 11  0.0010000  0  6  1 14 15 21 25 29
  10718796.91000  23257668.66900                   8470515.31440  23257673.54440
  -6325802.93000  23164890.78600                  -4828415.75940  23164896.04840
 -10560233.56800  21137362.38000                  -8077349.97640  21137367.73540
  18841939.59700  23880367.32500                   5488328.93940  23880373.58340
  -5485952.66700  21040051.11400                  -4220353.62940  21040054.98140
  -5036640.72600  23322127.26300                  -3822404.76640  23322131.70440
 96  9  8  0 11 30.0010000  0  6  1 14 15 21 25 29
  10825608.57500  23277994.70000                   8553745.16240  23277999.89240
  -6375012.43400  23155526.24700                  -4866760.78740  23155530.97040
 -10529193.20900  21143269.45000                  -8053162.68640  21143274.60640
  18960261.03600  23902882.33300                   5580527.44840  23902887.48940
  -5452273.82000  21046459.88800                  -4194110.36140  21046463.67340
  -5065927.41900  23316554.32500                  -3845225.52940  23316558.42740
 96  9  8  0 12  0.0010000  0  6  1 14 15 21 25 29
  10932483.24400  23298331.94200                   8637024.10640  23298337.54440
  -6424092.83300  23146186.65300                  -4905005.22640  23146192.11440
 -10497502.94800  21149299.71600                  -8028468.98140  21149304.90740
  19078830.51500  23925447.64600                   5672919.19140  23925453.11840
  -5418040.57700  21052974.38000                  -4167435.10040  21052978.18840
  -5095039.11600  23311014.77800                  -3867909.91740  23311019.67740
 96  9  8  0 12 30.0010000  0  6  1 14 15 21 25 29
  11039435.02600  23318683.91100                   8720363.12940  23318689.31340
  -6473038.25700  23136872.32500                  -4943144.49940  23136876.77840
 -10465161.36500  21155454.12200                  -8003267.75440  21155459.22040
  19197653.51000  23948056.98900                   5765508.50140  23948063.75140
  -5383259.61900  21059592.98900                  -4140333.04540  21059596.85640
  -5123963.23100  23305510.70000                  -3890448.14340  23305515.43540
 96  9  8  0 13  0.0010000  0  6  1 14 15 21 25 29
  11146462.66800  23339050.96600                   8803761.27040  23339056.56740
  -6521863.45100  23127581.45000                  -4981190.06540  23127586.54840
 -10432174.80300  21161731.10600                  -7977563.94040  21161736.27440
  19316723.85400  23970714.63800                   5858290.56040  23970722.47040
  -5347947.48400  21066312.73100                  -4112817.08540  21066316.57540
  -5152690.40300  23300044.02800                  -3912832.90440  23300048.69240
 96  9  8  0 13 30.0010000  0  6  1 14 15 21 25 29
  11253558.21300  23359430.51300                   8887212.32440  23359435.58740
  -6570611.71200  23118304.84100                  -5019175.69140  23118310.46640
 -10398555.18100  21168128.88800                  -7951366.82440  21168134.11440
  19436026.38400  23993418.09900                   5951253.53640  23993425.11040
  -5312100.27500  21073134.01300                  -4084884.18440  21073137.89240
  -5181228.26900  23294613.54400                  -3935070.17140  23294618.54840
 96  9  8  0 14  0.0010000  0  6  1 14 15 21 25 29
  11360733.44500  23379824.98900                   8970725.45240  23379830.53240
  -6619279.80100  23109043.91100                  -5057098.85340  23109049.18540
 -10364287.32500  21174649.79400                  -7924664.59340  21174654.79840
  19555578.77900  24016168.50500                   6044411.16540  24016173.86040
  -5275712.50800  21080058.42700                  -4056530.06640  21080062.22440
  -5209559.72600  23289222.13800                  -3957146.58640  23289226.83740
 96  9  8  0 14 30.0010000  0  6  1 14 15 21 25 29
  11467950.22200  23400228.72400                   9054270.95940  23400234.40740
  -6667882.68600  23099795.26300                  -5094971.21140  23099800.17340
 -10329376.40300  21181293.17700                  -7897461.28340  21181298.38040
  19675364.95800  24038964.76300                   6137750.98340  24038971.56040
  -5238784.72600  21087085.60600                  -4027755.16140  21087089.49740
  -5237683.32600  23283870.82500                  -3979061.04240  23283875.12640
 96  9  8  0 15  0.0010000  0  6  1 14 15 21 25 29
  11575200.96700  23420637.39600                   9137842.94140  23420642.45840
  -6716437.01900  23090555.29400                  -5132805.71940  23090560.72040
 -10293824.43600  21188058.44200                  -7869758.45140  21188063.54040
  19795364.42200  24061798.59900                   6231257.02540  24061805.71640
  -5201309.84300  21094216.87200                  -3998553.94040  21094220.79840
  -5265608.84400  23278556.63800                  -4000821.13840  23278560.77440
 96  9  8  0 15 30.0010000  0  6  1 14 15 21 25 29
  11682497.97100  23441054.73100                   9221450.97840  23441060.43840
  -6764941.31400  23081325.23100                  -5170601.24240  23081330.42340
 -10257628.24200  21194946.27100                  -7841553.62040  21194951.61440
  19915576.36000  24084674.21600                   6324928.60440  24084679.50140
  -5163294.63800  21101450.78600                  -3968931.68740  21101454.63040
  -5293335.98500  23273280.20800                  -4022426.66540  23273284.82540
 96  9  8  0 16  0.0010000  0  6  1 14 15 21 25 29
  11789847.95800  23461483.04400                   9305100.30440  23461487.87240
  -6813364.61300  23072110.50500                  -5208333.66440  23072115.48540
 -10220778.51500  21201958.59100                  -7812839.54440  21201963.80640
  20036007.53600  24107592.62200                   6418771.01940  24107599.56340
  -5124744.50700  21108786.66100                  -3938892.61540  21108790.48140
  -5320863.32500  23268042.13800                  -4043876.50540  23268046.32140
 96  9  8  0 16 30.0010000  0  6  1 14 15 21 25 29
  11897240.49400  23481919.49700                   9388782.77340  23481925.23940
  -6861720.75600  23062908.16100                  -5246013.73440  23062913.31740
 -10183291.27000  21209092.20000                  -7783628.69940  21209097.23940
  20156637.95600  24130546.58300                   6512768.71040  24130553.21640
  -5085663.31400  21116223.55200                  -3908439.72740  21116227.43140
  -5348224.51400  23262834.90300                  -4065196.86540  23262839.75540
 96  9  8  0 17  0.0010000  0  6  1 14 15 21 25 29
  12004698.03000  23502367.93500                   9472515.89640  23502372.86840
  -6909989.68200  23053723.34100                  -5283625.85940  23053728.55640
 -10145161.58400  21216348.03600                  -7753917.24640  21216353.22840
  20277494.38600  24153545.04400                   6606942.53340  24153551.16140
  -5046067.72900  21123758.40300                  -3877586.01340  21123762.15340
  -5375430.51600  23257658.22400                  -4086396.31140  23257662.52440
 96  9  8  0 17 30.0010000  0  6  1 14 15 21 25 29
  12112209.89500  23522826.70000                   9556291.37840  23522832.51340
  -6958153.51200  23044558.20000                  -5321156.07640  23044563.59140
 -10106390.54900  21223725.81000                  -7723706.04740  21223730.90740
  20398593.85100  24176588.84900                   6701305.71340  24176594.25140
  -5005955.97200  21131391.33300                  -3846330.08640  21131395.17740
  -5402481.25900  23252510.48900                  -4107474.78440  23252514.09940
 96  9  8  0 18  0.0010000  0  6  1 14 15 21 25 29
  12219764.06200  23543293.70000                   9640099.79040  23543299.11440
  -7006201.99200  23035414.70000                  -5358596.42840  23035419.84540
 -10066969.71400  21231227.41100                  -7692988.51340  21231232.56740
  20519949.58800  24199682.23100                   6795868.59140  24199689.01740
  -4965294.26300  21139129.04400                  -3814645.62640  21139132.93540
  -5429374.12500  23247392.84900                  -4128430.22040  23247396.92740
 96  9  8  0 18 30.0010000  0  6  1 14 15 21 25 29
  12327346.49600  23563766.16900                   9723930.24940  23563770.95040
  -7054154.00800  23026289.81700                  -5395961.60840  23026295.09140
 -10026903.64200  21238851.82500                  -7661768.20340  21238856.88840
  20641570.04100  24222825.38000                   6890637.74640  24222830.06740
  -4924080.86800  21146971.67700                  -3782531.28240  21146975.47440
  -5456107.06600  23242305.70000                  -4149261.05840  23242310.48140
 96  9  8  0 19  0.0010000  0  6  1 14 15 21 25 29
  12434951.65100  23584242.67700                   9807778.42240  23584248.85340
  -7101991.27200  23017186.34100                  -5433237.35840  23017191.43840
  -9986183.04200  21246600.55200                  -7630037.86940  21246605.66140
  20763473.71500  24246024.91100                   6985627.53240  24246031.46240
  -4882307.62800  21154920.80200                  -3749980.69640  21154924.62240
  -5482654.54200  23237253.99700                  -4169947.37440  23237258.26340
 96  9  8  0 19 30.0010000  0  6  1 14 15 21 25 29
  12542556.68000  23604719.73900                   9891626.49540  23604724.59140
  -7149739.06800  23008100.10600                  -5470443.40240  23008105.34540
  -9944833.73900  21254469.20000                  -7597817.63840  21254474.34540
  20885618.52100  24269267.01300                   7080805.26940  24269272.13440
  -4839977.40800  21162976.03600                  -3716996.09740  21162979.95040
  -5509030.37900  23232234.20800                  -4190499.95240  23232238.75540
 96  9  8  0 20  0.0010000  0  6  1 14 15 21 25 29
  12650192.01300  23625200.48100                   9975498.16940  23625206.29440
  -7197370.19300  22999036.43500                  -5507558.52140  22999041.29840
  -9902829.33900  21262462.31700                  -7565086.93940  21262467.57940
  21008021.75200  24292560.28600                   7176184.36840  24292566.25140
  -4797078.95600  21171139.23900                  -3683568.72340  21171143.09540
  -5535202.01300  23227254.31000                  -4210893.40040  23227258.38840
 96  9  8  0 20 30.0010000  0  6  1 14 15 21 25 29
  12757856.72200  23645689.76300                  10059392.75440  23645694.93140
  -7244883.67600  22989995.00500                  -5544581.99240  22989999.68140
  -9860185.91200  21270577.20800                  -7531858.30640  21270582.37640
  21130658.95500  24315897.11400                   7271745.74740  24315904.59540
  -4753644.54400  21179404.52100                  -3649723.71540  21179408.39940
  -5561177.78200  23222311.24700                  -4231134.23240  23222315.46640
 96  9  8  0 21  0.0010000  0  6  1 14 15 21 25 29
  12865549.21300  23666182.37200                  10143308.95140  23666188.50140
  -7292289.35100  22980973.87200                  -5581521.43640  22980978.99340
  -9816922.84900  21278809.70000                  -7498146.83240  21278814.86840
  21253490.79100  24339270.81000                   7367458.83240  24339280.11840
  -4709696.86900  21187767.46600                  -3615478.76440  21187771.28640
  -5586971.71600  23217403.08300                  -4251233.37940  23217407.85340
 96  9  8  0 21 30.0010000  0  6  1 14 15 21 25 29
  12973301.56400  23686686.78600                  10227271.82440  23686692.75140
  -7339581.40900  22971974.80200                  -5618372.36440  22971979.92340
  -9773022.28000  21287163.74700                  -7463938.60440  21287168.93840
  21376518.79100  24362682.53600                   7463324.75540  24362689.72440
  -4665227.34300  21196229.91900                  -3580827.17640  21196233.71640
  -5612577.99100  23212530.05200                  -4271186.28540  23212534.71640
 96  9  8  0 22  0.0010000  0  6  1 14 15 21 25 29
  13081110.74000  23707202.45800                  10311278.94440  23707208.65740
  -7386769.39400  22962994.92700                  -5655142.18840  22962999.80240
  -9728483.72900  21295639.16900                  -7429233.24340  21295644.41940
  21499750.72800  24386133.73900                   7559349.53540  24386140.83340
  -4620241.93300  21204790.34900                  -3545773.60040  21204794.15740
  -5638002.66200  23207691.66100                  -4290997.68940  23207696.07940
 96  9  8  0 22 30.0010000  0  6  1 14 15 21 25 29
  13188998.23200  23727733.09100                  10395347.09840  23727738.73940
  -7433865.50700  22954032.86400                  -5691840.43140  22954037.98540
  -9683299.06600  21304237.72400                  -7394024.41440  21304242.99740
  21623194.37200  24409623.31700                   7655539.37840  24409629.18840
  -4574721.22000  21213452.76300                  -3510302.90440  21213456.61840
  -5663252.18100  23202887.03600                  -4310672.62140  23202891.19640
 96  9  8  0 23  0.0010000  0  6  1 14 15 21 25 29
  13296956.82800  23748276.98900                  10479470.67540  23748281.89940
  -7480879.13500  22945086.59900                  -5728474.39240  22945091.86040
  -9637461.91000  21312960.00500                  -7358307.15040  21312965.13840
  21746860.09800  24433156.26300                   7751902.23640  24433161.38440
  -4528670.16700  21222215.67700                  -3474418.95740  21222219.67340
  -5688336.60200  23198113.67700                  -4330218.89040  23198117.87240
 96  9  8  0 23 30.0010000  0  6  1 14 15 21 25 29
  13404960.84700  23768828.65300                  10563629.63040  23768834.09140
  -7527808.56700  22936156.01300                  -5765042.76140  22936161.35640
  -9590980.39200  21321805.31000                  -7322087.79240  21321810.70040
  21870754.82100  24456733.32500                   7848443.51640  24456739.46640
  -4482090.95000  21231079.43500                  -3438123.45240  21231083.32540
  -5713271.90800  23193368.52800                  -4349648.96540  23193373.28640
 96  9  8  0 24  0.0010000  0  6  1 14 15 21 25 29
  13512989.03900  23789385.96600                  10647807.42540  23789391.09940
  -7574632.87900  22927245.81000                  -5801529.21540  22927250.69640
  -9543860.54200  21330771.95000
  21994883.68400  24480353.36400                   7945167.22240  24480359.24740
  -4434973.31100  21240045.62200                  -3401408.39640  21240049.10340
  -5738052.37600  23188652.99700                  -4368958.39440  23188657.43840
 96  9  8  0 24 30.0010000  0  6  1 14 15 21 25 29
  13621025.24900  23809944.48100                  10731991.45540  23809950.09540
  -7621339.52600  22918357.60600                  -5837923.98440  22918362.90340
  -9496099.45800  21339860.41100
  22119244.57500  24504018.16100                   8042071.79840  24504024.97040
  -4387324.10100  21249113.04400                  -3364279.14240  21249116.98140
  -5762676.82900  23183967.35600                  -4388146.26040  23183972.13840
 96  9  8  0 25  0.0010000  0  6  1 14 15 21 25 29
  13729046.39400  23830500.36400                  10816163.74140  23830505.77840
  -7667901.78200  22909497.32500                  -5874206.24140  22909502.10640
  -9447700.54300  21349070.50500                     25197.82350  21349075.79040
  22243837.89500  24527728.65300                   8139157.46740  24527734.13840
  -4339150.50000  21258280.16100                  -3326741.26340  21258284.05240
  -5787132.94700  23179313.30200                  -4407202.96040  23179317.68540
 96  9  8  0 25 30.0010000  0  6  1 14 15 21 25 29
  13837075.38700  23851058.65300                  10900342.15040  23851063.88040
  -7714305.29000  22900666.59900                  -5910364.80640  22900671.76740
  -9398657.74500  21358403.12200                     63412.98140  21358408.40740
  22368672.43900  24551483.66100                   8236431.09040  24551492.94640
  -4290430.93400  21267551.04400                  -3288777.95640  21267554.81740
  -5811400.57500  23174695.27800                  -4426112.75740  23174699.56740
 96  9  8  0 26  0.0010000  0  6  1 14 15 21 25 29
  13945102.13300  23871614.91100                  10984518.82240  23871620.11440
  -7760584.90400  22891859.81000                  -5946426.82540  22891864.56740
  -9348993.24000  21367853.83300                    102112.58440  21367859.20040
  22493724.01000  24575280.24700                   8333873.79040  24575285.11040
  -4241196.29400  21276920.15300                  -3250413.30040  21276924.00940
  -5835500.78200  23170108.99700                  -4444892.11640  23170113.87240
 96  9  8  0 26 30.0020000  0  6  1 14 15 21 25 29
  14053162.84200  23892177.72100                  11068721.94340  23892183.35740
  -7806746.50800  22883075.66600                  -5982396.88440  22883080.41240
  -9298692.59100  21377425.70500                    141307.88540  21377430.94340
  22619001.55300  24599120.61900                   8431492.58040  24599127.47940
  -4191448.26500  21286386.97900                  -3211648.60040  21286390.85740
  -5859423.13100  23165556.45500                  -4463532.89540  23165560.81440
 96  9  8  0 27  0.0020000  0  6  1 14 15 21 25 29
  14161271.15800  23912750.07200                  11152962.16840  23912755.26440
  -7852788.21800  22874314.36900                  -6018273.53540  22874319.42040
  -9247762.77600  21387117.47900                    180993.44440  21387122.65840
  22744495.50800  24623001.41600                   8529280.04540  24623007.11140
  -4141186.13100  21295951.53300                  -3172483.29940  21295955.44740
  -5883154.49000  23161040.84600                  -4482024.82440  23161045.53340
 96  9  8  0 27 30.0020000  0  6  1 14 15 21 25 29
  14269434.24500  23933333.06400                  11237245.07940  23933339.05340
  -7898726.22700  22865572.49400                  -6054069.36440  22865577.96740
  -9196208.79600  21396927.89300                    221165.36640  21396933.01440
  22870198.65600  24646920.70500                   8627230.45740  24646924.63140
  -4090399.01300  21305615.90000                  -3132908.91440  21305619.72140
  -5906703.82100  23156559.43200                  -4500374.92440  23156563.79140
 96  9  8  0 28  0.0020000  0  6  1 14 15 21 25 29
  14377649.58400  23953925.87700                  11321568.68640  23953932.12340
  -7944550.83500  22856852.60400                  -6089776.84640  22856857.99440
  -9144021.90000  21406858.59600                    261830.47540  21406863.77540
  22996114.30800  24670882.36100                   8725346.54540  24670885.81840
  -4039083.29500  21315381.01000                  -3092922.63840  21315384.86540
  -5930057.13700  23152115.51000                  -4518572.29040  23152119.84640
 96  9  8  0 28 30.0020000  0  6  1 14 15 21 25 29
  14485921.22100  23974529.54900                  11405936.17940  23974534.70540
  -7990241.28800  22848157.84600                  -6125379.77440  22848162.80340
  -9091190.03000  21416912.33800                    302998.16040  21416917.52940
  23122247.39300  24694885.03300                   8823631.99740  24694891.06840
  -3987231.37900  21325248.06400                  -3052518.54340  21325251.92040
  -5953185.36600  23147714.27500                  -4536594.25240  23147718.70540
 96  9  8  0 29  0.0020000  0  6  1 14 15 21 25 29
  14594231.82800  23995139.80700                  11490334.04340  23995145.35040
  -8035799.21700  22839488.62700                  -6160879.45040  22839493.46740
  -9037723.43200  21427086.58800                    344660.43940  21427091.65040
  23248593.09900  24718926.97100                   8922083.17640  24718932.56140
  -3934836.15900  21335218.49400                  -3011691.09640  21335222.36140
  -5976103.18300  23143352.73600                  -4554452.26140  23143357.56440
 96  9  8  0 29 30.0020000  0  6  1 14 15 21 25 29
  14702568.27900  24015755.52500                  11574752.05040  24015760.40040
  -8081233.15700  22830842.79900                  -6196282.50440  22830847.70940
  -8983632.81100  21437379.71300                    386808.97540  21437384.96340
  23375145.64400  24743009.47100                   9020695.53540  24743016.74040
  -3881915.75900  21345289.01000                  -2970454.41040  21345292.83040
  -5998840.44000  23139026.29100                  -4572169.56540  23139030.92040
 96  9  8  0 30  0.0020000  0  6  1 14 15 21 25 29
  14810937.53100  24036377.47100                  11659195.62940  24036383.10740
  -8126534.97300  22822221.90000                  -6231582.60140  22822226.78740
  -8928911.44800  21447792.79100                    429448.99740  21447798.00640
  23501924.68400  24767134.90800                   9119484.33740  24767142.29540
  -3828493.45400  21355454.84600                  -2928826.63540  21355458.77140
  -6021397.58500  23134733.70500                  -4589746.53340  23134737.85440
 96  9  8  0 30 30.0020000  0  6  1 14 15 21 25 29
  14919330.85700  24057004.39300                  11743657.94040  24057010.25240
  -8171703.56800  22813626.30700                  -6266778.89140  22813631.29940
  -8873567.39600  21458324.50200                    472574.23140  21458329.79940
  23628917.07100  24791299.40000                   9218439.40240  24791305.31840
  -3774578.94200  21365714.54900                  -2886815.32140  21365718.33440
  -6043798.93000  23130470.98600                  -4607202.08840  23130475.28740
 96  9  8  0 31  0.0020000  0  6  1 14 15 21 25 29
  15027765.90400  24077639.33800                  11828152.75840  24077645.10440
  -8216727.76800  22805058.92400                  -6301862.66040  22805063.95140
  -8817588.18800  21468977.04100                    516194.38840  21468982.22140
  23756135.07300  24815509.28300                   9317570.21840  24815513.60740
  -3720155.27400  21376071.08000                  -2844407.26240  21376074.90040
  -6066052.46400  23126236.22100                  -4624542.47640  23126240.80340
 96  9  8  0 31 30.0020000  0  6  1 14 15 21 25 29
  15136232.13400  24098278.65000                  11912671.88840  24098283.83040
  -8261604.64900  22796518.96300                  -6336831.63240  22796523.94340
  -8760977.80900  21479749.70500                    560306.37040  21479754.82640
  23883571.55100  24839760.36100                   9416871.29040  24839764.97940
  -3665246.16000  21386519.80700                  -2801620.93240  21386523.66240
  -6088153.33600  23122030.60400                  -4641763.89240  23122034.85740
 96  9  8  0 32  0.0020000  0  6  1 14 15 21 25 29
  15244697.70600  24118920.08000                  11997190.53240  24118924.97940
  -8306347.17500  22788004.95500                  -6371695.92040  22788009.92440
  -8703748.23400  21490640.04900                    604900.84240  21490645.25240
  24011199.45300  24864046.41600                   9516321.58540  24864052.69740
  -3609852.19400  21397060.88500                  -2758456.79340  21397064.81140
  -6110102.52700  23117853.49400                  -4658867.12640  23117857.93640
 96  9  8  0 32 30.0020000  0  6  1 14 15 21 25 29
  15353179.23000  24139563.41600                  12081721.56040  24139567.77540
  -8350940.80500  22779518.72900                  -6406444.17840  22779523.69740
  -8645883.20500  21501651.38500                    649990.47240  21501656.56440
  24139021.36800  24888370.42400                   9615923.05540  24888373.51840
  -3553933.54600  21407701.97100                  -2714883.81540  21407705.77940
  -6131880.45200  23113709.58000                  -4675836.90640  23113714.26840
 96  9  8  0 33  0.0020000  0  6  1 14 15 21 25 29
  15461674.26500  24160209.01000                  12166263.13940  24160214.49440
  -8395391.88800  22771060.24400                  -6441081.36240  22771065.22540
  -8587396.07700  21512780.98600                    695564.85740  21512786.10740
  24267042.70300  24912732.64300                   9715679.90740  24912738.94740
  -3497500.25100  21418440.70500                  -2670909.81040  21418444.39640
  -6153489.80700  23109597.19700                  -4692675.33540  23109601.73240
 96  9  8  0 33 30.0020000  0  7  1 14 15 21 22 25 29
  15570177.97500  24180856.45500                  12250811.47340  24180862.36140
  -8439695.23900  22762629.68200                  -6475603.42440  22762634.80340
  -8528293.77200  21524027.98600                    741618.59540  21524033.11940
  24395264.27000  24937131.61100                   9815592.74240  24937138.57640
    -22285.48210  25127036.44700
  -3440554.21400  21429277.44700                  -2626536.26840  21429281.11540
  -6174936.74300  23105516.40000                  -4709387.20440  23105520.67840
 96  9  8  0 34  0.0020000  0  7  1 14 15 21 22 25 29
  15678708.38700  24201509.36100                  12335380.60240  24201514.98640
  -8483842.03000  22754228.60400                  -6510003.50340  22754233.38540
  -8468565.76300  21535393.65800                    788159.89540  21535398.88540
  24523692.26400  24961570.40800                   9915666.55340  24961578.46340
    -83104.45200  25115462.61100
  -3383081.14600  21440213.78300                  -2581752.05140  21440217.61540
  -6196209.98500  23101467.92400                  -4725963.72540  23101472.24840
 96  9  8  0 34 30.0020000  0  7  1 14 15 21 22 25 29
  15787281.80800  24222169.47900                  12419983.27540  24222175.25640
  -8527827.60000  22745858.61900                  -6544277.94840  22745863.70540
  -8408222.75400  21546876.70500                    835180.41340  21546881.86140
  24652315.26300  24986046.90000                  10015892.17040  24986054.18240
   -143993.73600  25103876.49400                    -18982.82850  25103883.68240
  -3325101.17300  21451247.08800                  -2536572.84440  21451250.86140
  -6217314.06200  23097452.11100                  -4742408.42740  23097456.56440
 96  9  8  0 35  0.0020000  0  7  1 14 15 21 22 25 29
  15895904.42200  24242840.34600                  12504624.23940  24242845.31440
  -8571641.93600  22737520.66600                  -6578418.95740  22737525.42440
  -8347262.46700  21558477.09600                    882681.92540  21558482.25240
  24781134.98000  25010561.51000                  10116271.17140  25010567.29940
   -204946.11100  25092275.56400                    -66478.10340  25092280.26440
  -3266620.55400  21462375.52500                  -2491003.52040  21462379.25240
  -6238247.52600  23093468.44700                  -4758720.18640  23093472.72540
 96  9  8  0 35 30.0020000  0  7  1 14 15 21 22 25 29
  16004571.91400  24263518.83800                  12589300.18340  24263524.77940
  -8615287.39800  22729215.40800                  -6612428.37940  22729220.67040
  -8285679.27800  21570195.97100                    930668.81440  21570201.10440
  24910141.27400  25035109.86900                  10216795.36340  25035114.92040
   -265960.10600  25080667.56400                   -114021.46440  25080673.02540
  -3207630.94900  21473601.03300                  -2445037.58540  21473604.80740
  -6259006.96200  23089518.26000                  -4774896.34440  23089522.70140
 96  9  8  0 36  0.0020000  0  7  1 14 15 21 22 25 29
  16113276.15600  24284204.60400                  12674004.80540  24284210.87340
  -8658771.25400  22720940.71300                  -6646311.89140  22720945.63540
  -8223477.42200  21582032.59600                    979137.78640  21582037.64640
  25039326.24000  25059692.93200                  10317458.97440  25059697.60740
   -327041.88300  25069044.21300                   -161617.58340  25069049.87340
  -3148134.53700  21484922.79900                  -2398676.73740  21484926.59640
  -6279587.19600  23085601.68900                  -4790932.85540  23085606.00240
 96  9  8  0 36 30.0020000  0  7  1 14 15 21 22 25 29
  16222019.96300  24304897.50200                  12758740.19640  24304903.09240
  -8702091.77400  22712696.93200                  -6680068.11640  22712701.81840
  -8160650.10200  21593988.32200                   1028094.13440  21593993.46740
  25168713.64600  25084315.28300                  10418280.21040  25084321.35440
   -388172.77500  25057407.95500                   -209251.96140  25057415.44740
  -3088117.69400  21496343.78300                  -2351910.35940  21496347.55740
  -6299990.23400  23081719.43900                  -4806831.29140  23081723.72940
 96  9  8  0 37  0.0020000  0  7  1 14 15 21 22 25 29
  16330758.33800  24325589.85400                  12843471.34640  24325594.70540
  -8745281.05100  22704478.30700                  -6713722.07140  22704483.28740
  -8097220.58700  21606058.55700                   1077519.72540  21606063.83040
  25298291.16700  25108972.86100                  10519249.72340  25108978.22940
   -449373.74400  25045764.99400                   -256940.95640  25045773.09640
  -3027604.95200  21507858.71300                  -2304757.56640  21507862.59240
  -6320242.08400  23077865.40800                  -4822611.93840  23077869.70940
 96  9  8  0 37 30.0020000  0  7  1 14 15 21 22 25 29
  16439494.82100  24346281.68900                  12928201.05540  24346287.17440
  -8788333.36100  22696285.68900                  -6747269.30440  22696290.38940
  -8033180.66500  21618244.82200                   1127420.95940  21618250.08440
  25428071.14500  25133668.52500                  10620376.89440  25133675.36940
   -510634.00400  25034106.81400                   -304676.07840  25034114.42440
  -2966589.38000  21519469.65800                  -2257212.96340  21519473.49040
  -6340324.01900  23074043.73600                  -4838260.17040  23074048.16640
 96  9  8  0 38  0.0020000  0  7  1 14 15 21 22 25 29
  16548240.56100  24366976.50200                  13012937.97140  24366982.56140
  -8831243.75700  22688120.18200                  -6780705.95540  22688125.05740
  -7968528.43900  21630547.83800                   1177799.30940  21630553.02940
  25558060.16600  25158403.71300                  10721667.02640  25158411.31140
   -571947.66700  25022438.42400                   -352452.88140  25022445.10440
  -2905084.30000  21531173.72900                  -2209286.92240  21531177.44340
  -6360216.77300  23070258.31400                  -4853760.99340  23070262.54540
 96  9  8  0 38 30.0020000  0  6  1 14 15 22 25 29
  16656995.21800  24387671.62700                  13097681.84140  24387676.97140
  -8874016.30000  22679980.82200                  -6814035.19040  22679985.41640
  -7903268.91700  21642966.15000                   1228650.87440  21642971.48240
   -633327.20500  25010759.65800                   -400281.00540  25010767.18640
  -2843103.21000  21542968.40000                  -2160989.96740  21542972.12740
  -6379929.56900  23066507.07200                  -4869121.58540  23066511.43240
 96  9  8  0 39  0.0020000  0  6  1 14 15 22 25 29
  16765757.56300  24408367.01800                  13182431.69440  24408372.92440
  -8916647.50800  22671868.35400                  -6847254.30440  22671873.32240
  -7837412.20900  21655498.19700                   1279967.77940  21655503.61140
   -694780.23200  24999064.59600                   -448166.43240  24999072.39340
  -2780652.71600  21554852.13500                  -2112327.24240  21554855.95540
  -6399472.12100  23062788.21300                  -4884349.52740  23062792.84240
 96  9  8  0 39 30.0020000  0  6  1 14 15 22 25 29
  16874557.29700  24429071.51800                  13267210.68240  24429077.48240
  -8959104.26800  22663788.96300                  -6880337.48040  22663794.01440
  -7770931.73200  21668149.08800                   1331770.74140  21668154.40840
   -756273.39200  24987363.40000                   -496083.10640  24987369.86940
  -2717704.43100  21566830.86900                  -2063276.62740  21566834.56140
  -6418820.72800  23059106.11100                  -4899426.34840  23059110.60040
 96  9  8  0 40  0.0020000  0  6  1 14 15 22 25 29
  16983372.26700  24449778.02500                  13352001.56840  24449783.46340
  -9001395.23600  22655741.38500                  -6913291.47940  22655746.31840
  -7703850.01200  21680914.41600                   1384042.19340  21680919.59640
   -817821.83600  24975650.76800                   -544042.84440  24975659.20940
  -2654272.57500  21578901.54900                  -2013849.20840  21578905.36940
  -6438014.32800  23055453.56400                  -4914382.37240  23055458.00640
 96  9  8  0 40 30.0020000  0  6  1 14 15 22 25 29
  17092206.88000  24470490.15800                  13436807.71340  24470495.77140
  -9043500.22700  22647728.78300                  -6946100.54840  22647733.58840
  -7636155.78500  21693796.27500                   1436790.92840  21693801.49040
   -879399.22300  24963933.39300                   -592025.18040  24963938.43240
  -2590330.69900  21591069.38500                  -1964024.37040  21591073.15840
  -6457068.70200  23051827.70500                  -4929229.90640  23051831.67840
 96  9  8  0 41  0.0020000  0  6  1 14 15 22 25 29
  17201054.09100  24491201.85400                  13521623.71340  24491206.91640
  -9085410.48100  22639753.63500                  -6978757.87640  22639758.38140
  -7567857.23800  21706792.91600                   1490010.56340  21706798.04940
   -940984.48500  24952213.82200                   -640013.59540  24952219.51840
  -2525896.14000  21603330.94700                  -1913815.62240  21603334.79140
  -6475982.37800  23048228.87700                  -4943967.82040  23048233.20140
 96  9  8  0 41 30.0020000  0  6  1 14 15 22 25 29
  17309909.34900  24511916.86900                  13606445.96540  24511922.85740
  -9127113.89200  22631817.73600                  -7011254.04040  22631822.45940
  -7498955.88500  21719904.52500                   1543699.91040  21719909.61140
  -1002576.21400  24940492.85400                   -688007.11840  24940500.55740
  -2460981.88700  21615683.56400                  -1863233.08640  21615687.44340
  -6494744.78300  23044658.18900                  -4958587.86240  23044662.76040
 96  9  8  0 42  0.0020000  0  6  1 14 15 22 25 29
  17418778.28400  24532634.02500                  13691278.88940  24532640.09640
  -9168609.47600  22623921.39300                  -7043588.26040  22623926.13940
  -7429458.25600  21733129.50200                   1597853.89740  21733134.89340
  -1064170.22500  24928770.62700                   -736002.33440  24928775.36140
  -2395590.11400  21628127.22900                  -1812278.46040  21628131.04940
  -6513355.27600  23041116.99400                  -4973089.53140  23041121.43640
 96  9  8  0 42 30.0020000  0  6  1 14 15 22 25 29
  17527659.51700  24553352.98600                  13776121.40340  24553358.96340
  -9209898.30500  22616064.29100                  -7075761.35640  22616069.40040
  -7359363.73700  21746467.90800                   1652472.99140  21746473.19340
  -1125766.71400  24917049.91600                   -783999.50840  24917057.66640
  -2329728.80900  21640660.40000                  -1760957.96440  21640664.18640
  -6531795.93200  23037607.79100                  -4987458.87140  23037612.05740
 96  9  8  0 43  0.0020000  0  6  1 14 15 22 25 29
  17636551.34700  24574074.89300                  13860972.12740  24574079.26440
  -9250979.96600  22608246.84600                  -7107773.02940  22608251.86140
  -7288674.34300  21759919.62700                   1707555.63140  21759924.87740
  -1187372.35500  24905326.37700                   -832003.90840  24905333.41240
  -2263385.73000  21653284.65800                  -1709262.05740  21653288.50240
  -6550042.98400  23034135.23600                  -5001677.32840  23034139.56140
 96  9  8  0 43 30.0020000  0  6  1 14 15 22 25 29
  17745474.95900  24594801.43200                  13945847.68440  24594806.45940
  -9291850.57300  22600469.15000                  -7139620.23840  22600474.16640
  -7217373.01400  21773487.90000                   1763115.10740  21773493.15040
  -1248988.07900  24893602.13500                   -880016.09140  24893607.78340
  -2196511.56100  21666010.43200                  -1657152.31740  21666014.20540
  -6568084.50000  23030702.22900                  -5015735.62840  23030706.54140
 96  9  8  0 44  0.0020000  0  6  1 14 15 22 25 29
  17854414.91900  24615533.40000                  14030735.93140  24615538.56840
  -9332540.44000  22592726.36900                  -7171326.60540  22592731.24440
  -7145475.16100  21787169.76000                   1819139.40640  21787174.81140
  -1310631.20500  24881872.47100                   -928049.58940  24881879.06840
  -2129107.18000  21678837.28300                  -1604629.42340  21678841.01040
  -6585943.47600  23027304.19700                  -5029651.69840  23027308.17040
 96  9  8  0 44 30.0020000  0  6  1 14 15 22 25 29
  17963366.33700  24636265.59600                  14115633.12840  24636270.43640
  -9373061.48700  22585015.22100                  -7202901.43040  22585020.15440
  -7072984.94600  21800964.16600                   1875625.28140  21800969.27540
  -1372301.05600  24870135.63500                   -976103.93640  24870139.94740
  -2061180.12200  21691763.32200                  -1551699.25240  21691767.11940
  -6603622.18600  23023939.69700                  -5043427.29840  23023943.45940
 96  9  8  0 45  0.0020000  0  6  1 14 15 22 25 29
  18072337.92900  24657002.27500                  14200546.03940  24657007.67840
  -9413415.11100  22577336.33000                  -7234345.78740  22577341.40440
  -6999903.90800  21814871.05700                   1932571.54040  21814876.18940
  -1434001.77400  24858395.32200                  -1024182.32640  24858400.73640
  -1992739.89900  21704786.83000                  -1498369.20740  21704790.69740
  -6621132.60100  23020607.52500                  -5057071.77240  23020611.69740
 96  9  8  0 45 30.0020000  0  6  1 14 15 22 25 29
  18181350.34900  24677746.06400                  14285490.76740  24677751.35040
  -9453591.91300  22569690.91600                  -7265652.36940  22569695.82640
  -6926219.54700  21828892.71300                   1989987.91840  21828897.89340
  -1495711.76200  24846652.26800                  -1072267.93940  24846658.99440
  -1923810.74200  21717903.63500                  -1444658.17740  21717907.57240
  -6638470.18000  23017308.39300                  -5070581.56040  23017312.42440
 96  9  8  0 46  0.0020000  0  6  1 14 15 22 25 29
  18290397.73000  24698497.35400                  14370462.73540  24698502.31140
  -9493590.28100  22562079.43900                  -7296819.89740  22562084.30340
  -6851939.79600  21843027.56400                   2047868.23640  21843032.73240
  -1557418.65800  24834908.98600                  -1120351.20840  24834913.61540
  -1854432.54800  21731106.03300                  -1390597.24140  21731109.88940
  -6655633.51800  23014042.19700                  -5083955.57940  23014046.53340
 96  9  8  0 46 30.0020000  0  6  1 14 15 22 25 29
  18399459.38800  24719252.29100                  14455445.83140  24719258.40840
  -9533429.99900  22554498.31400                  -7327863.80740  22554503.40040
  -6777092.84100  21857270.47900                   2106190.53140  21857275.69340
  -1619136.11000  24823163.76800                  -1168442.63240  24823170.26040
  -1784647.12400  21744385.51800                  -1336218.98840  21744389.43240
  -6672646.98800  23010804.80700                  -5097212.82740  23010808.96740
 96  9  8  0 47  0.0020000  0  6  1 14 15 22 25 29
  18508557.72400  24740012.35400                  14540457.51640  24740019.27140
  -9573071.65700  22546954.65800                  -7358753.38740  22546959.60440
  -6701654.51200  21871626.01000                   2164973.63540  21871631.16640
  -1680840.23500  24811422.59600                  -1216523.68340  24811429.41640
  -1714425.29400  21757748.52500                  -1281500.67540  21757752.33440
  -6689484.22700  23007600.53300                  -5110332.73740  23007604.68240
 96  9  8  0 47 30.0020000  0  6  1 14 15 22 25 29
  18617682.72500  24760778.00200                  14625489.96040  24760783.73240
  -9612520.16800  22539447.88500                  -7389492.46040  22539452.76040
  -6625629.84800  21886092.87700                   2224213.62740  21886097.98640
  -1742516.19800  24799686.18200                  -1264582.76140  24799691.57240
  -1643758.81200  21771195.95500                  -1226435.87940  21771199.72940
  -6706137.58100  23004431.65800                  -5123309.35340  23004435.87740
 96  9  8  0 48  0.0020000  0  6  1 14 15 22 25 29
  18726828.86400  24781547.43900                  14710538.89140  24781553.46340
  -9651750.80800  22531982.54900                  -7420061.77140  22531987.43640
  -6549019.02700  21900671.56400                   2283910.35840  21900676.74440
  -1804156.72500  24787956.45500                  -1312614.27840  24787961.61140
  -1572623.76800  21784732.54900                  -1171005.97240  21784736.20540
  -6722606.30100  23001297.45500                  -5136142.08740  23001301.76840
 96  9  8  0 48 30.0020000  0  6  1 14 15 22 25 29
  18835969.64500  24802316.51800                  14795583.64340  24802323.58840
  -9690756.19900  22524559.86100                  -7450455.55340  22524564.45540
  -6471829.91200  21915360.13500                   2344057.71340  21915365.18640
  -1865770.77200  24776231.21300                  -1360625.14640  24776239.09240
  -1501008.13000  21798360.34600                  -1115201.57340  21798364.02540
  -6738902.80100  22998196.54100                  -5148840.62540  22998200.63140
 96  9  8  0 49  0.0020000  0  6  1 14 15 22 25 29
  18945104.90300  24823084.83800                  14880624.07840  24823091.29540
  -9729523.89000  22517182.65800                  -7480664.11940  22517187.40440
  -6394056.84200  21930159.88500                   2404660.09640  21930165.10040
  -1927346.73000  24764513.85400                  -1408606.33740  24764518.83440
  -1428903.00300  21812081.65800                  -1059015.75740  21812085.39640
  -6755018.40600  22995129.87700                  -5161398.21040  22995134.29540
 96  9  8  0 49 30.0020000  0  6  1 14 15 22 25 29
  19054237.76300  24843851.86100                  14965662.65140  24843855.89340
  -9768044.09400  22509852.61100                  -7510679.83640  22509857.29940
  -6315703.19200  21945070.12700                   2465714.87340  21945075.24840
  -1988874.70800  24752805.68200                  -1456550.13240  24752813.10440
  -1356327.28400  21825892.26800                  -1002463.24040  21825895.94740
  -6770961.48200  22992095.90800                  -5173821.36040  22992100.03340
 96  9  8  0 50  0.0030000  0  6  1 14 15 22 25 29
  19163370.82900  24864618.74900                  15050701.41540  24864623.47240
  -9806317.68300  22502569.20200                  -7540503.39440  22502573.71440
  -6236775.07500  21960089.61600                   2527217.29040  21960094.83140
  -2050366.80300  24741103.81200                  -1504465.94640  24741108.64040
  -1283291.27100  21839790.56200                   -945552.05640  21839794.25340
  -6786755.66400  22989090.09300                  -5186128.48640  22989094.33540
 96  9  8  0 50 30.0030000  0  6  1 14 15 22 25 29
  19272500.85000  24885385.28800                  15135737.75040  24885390.12840
  -9844368.77700  22495328.60800                  -7570153.58340  22495333.47240
  -6157283.82300  21975216.21800                   2589158.51140  21975221.44440
  -2111819.68500  24729409.92900                  -1552351.24540  24729416.14040
  -1209817.93600  21853772.03800                   -888300.10340  21853775.84740
  -6802403.16500  22986112.81200                  -5198321.31240  22986117.08940
 96  9  8  0 51  0.0030000  0  6  1 14 15 22 25 29
  19381655.25600  24906156.90500                  15220793.09240  24906162.37840
  -9882213.15100  22488126.74900                  -7599642.69940  22488131.57740
  -6077226.70600  21990450.55400                   2651540.66440  21990455.85140
  -2173234.44900  24717723.63200                  -1600206.81140  24717729.62040
  -1135913.17500  21867835.63200                   -830711.97140  21867839.49940
  -6817904.76100  22983162.56200                  -5210400.46640  22983166.73340
 96  9  8  0 51 30.0030000  0  6  1 14 15 22 25 29
  19490850.19400  24926936.53000                  15305880.05140  24926942.69440
  -9919845.19700  22480965.84300                  -7628966.36740  22480970.49540
  -5996592.31900  22005794.81200                   2714372.63740  22005800.14440
  -2234612.37100  24706043.10100                  -1648033.69140  24706049.48740
  -1061557.19400  21881985.19400                   -772772.23740  21881988.89740
  -6833247.84800  22980243.03800                  -5222356.09340  22980247.29240
 96  9  8  0 52  0.0030000  0  6  1 14 15 22 25 29
  19600082.18600  24947722.27200                  15390995.85440  24947726.52640
  -9957282.63800  22473841.64700                  -7658138.38940  22473846.46440
  -5915385.31000  22021247.93700                   2777650.81440  22021253.21040
  -2295966.80100  24694367.71800                  -1695842.27340  24694374.30440
   -986733.64000  21896223.64000                   -714468.16240  21896227.41340
  -6848425.68200  22977354.85800                  -5234182.93840  22977359.00740
 96  9  8  0 52 30.0030000  0  6  1 14 15 22 25 29
  19709335.79800  24968511.89700                  15476128.50040  24968519.34340
  -9994530.78400  22466753.47600                  -7687162.90840  22466758.24540
  -5833617.45200  22036807.95200                   2841366.01440  22036813.06240
  -2357301.76600  24682695.70200                  -1743635.60140  24682702.80840
   -911454.37900  21910548.67900                   -655808.99340  21910552.40540
  -6863435.63200  22974498.34300                  -5245878.98540  22974502.43340
 96  9  8  0 53  0.0030000  0  6  1 14 15 22 25 29
  19818614.27100  24989307.57700                  15561280.56240  24989313.22640
 -10031558.32000  22459707.30400                  -7716015.52940  22459711.94440
  -5751281.45900  22052476.18700                   2905523.91140  22052481.27240
  -2418610.86100  24671029.94400                  -1791408.86040  24671037.22640
   -835699.29400  21924964.44400                   -596779.04640  21924968.33540
  -6878271.69500  22971675.20200                  -5257439.53840  22971679.42140
 96  9  8  0 53 30.0030000  0  6  1 14 15 22 25 29
  19927900.28200  25010104.48300                  15646438.44240  25010110.44840
 -10068358.09900  22452704.76500                  -7744690.67740  22452709.54640
  -5668390.33300  22068249.51500                   2970114.38440  22068254.70640
  -2479891.87000  24659368.18700                  -1839160.23440  24659373.10840
   -759476.83700  21939469.04600                   -537384.92140  21939472.83140
  -6892948.64100  22968882.39000                  -5268876.10040  22968886.39740
 96  9  8  0 54  0.0030000  0  6  1 14 15 22 25 29
  20037196.53700  25030903.06200                  15731604.34340  25030908.86240
 -10104906.09000  22445749.64000                  -7773169.62640  22445754.22240
  -5584935.16500  22084130.86600                   3035144.36940  22084135.80040
  -2541108.76200  24647716.53800                  -1886861.60840  24647722.02240
   -682781.38700  21954063.76500                   -477622.23340  21954067.63240
  -6907460.69300  22966120.67100                  -5280184.18240  22966124.99540
 96  9  8  0 54 30.0030000  0  6  1 14 15 22 25 29
  20146493.09800  25051701.22600                  15816770.48640  25051706.26540
 -10141211.40300  22438841.19400                  -7801459.47340  22438846.01140
  -5500928.22600  22100116.81200                   3100604.31040  22100121.76940
  -2602262.66000  24636080.30400                  -1934513.94740  24636086.60840
   -605636.51800  21968743.90500                   -417509.34840  21968747.67940
  -6921826.76200  22963387.03000                  -5291378.51240  22963390.89740
 96  9  8  0 55  0.0030000  0  6  1 14 15 22 25 29
  20255791.20700  25072499.07700                  15901937.82540  25072505.65140
 -10177277.86500  22431977.90500                  -7829563.20540  22431982.88640
  -5416374.70600  22116206.54600                   3166490.15740  22116211.81940
  -2663363.47200  24624455.38200                  -1982124.87140  24624460.25740
   -528048.58800  21983508.38200                   -357051.21840  21983512.23740
  -6936051.52500  22960679.98300                  -5302462.72540  22960684.29640
 96  9  8  0 55 30.0030000  0  6  1 14 15 22 25 29
  20365109.59800  25093302.61600                  15987120.98440  25093306.62440
 -10213107.74000  22425159.64000                  -7857482.58740  22425164.58540
  -5331263.62000  22132402.95200                   3232810.47040  22132408.17940
  -2724397.95600  24612839.39700                  -2029684.17440  24612846.60840
   -450019.84200  21998356.67900                   -296249.59640  21998360.41740
  -6950114.05100  22958004.06200                  -5313420.51540  22958008.08140
 96  9  8  0 56  0.0030000  0  6  1 14 15 22 25 29
  20474443.06200  25114109.20200                  16072315.83340  25114114.75740
 -10248706.89700  22418385.48300                  -7885222.18240  22418390.19440
  -5245606.19100  22148703.00700                   3299556.50540  22148708.24540
  -2785384.32000  24601235.10100                  -2077205.91640  24601241.14740
   -371560.78100  22013287.02200                   -235112.66440  22013290.85440
  -6964007.13200  22955360.42900                  -5324246.28240  22955364.47240
 96  9  8  0 56 30.0030000  0  6  1 14 15 22 25 29
  20583806.17200  25134918.74900                  16157533.85540  25134924.76140
 -10284056.48500  22411658.52200                  -7912767.31140  22411663.31540
  -5159389.66300  22165109.39700                   3366738.20240  22165114.72940
  -2846321.06800  24589638.99100                  -2124689.04340  24589644.27640
   -292666.85200  22028300.07700                   -173636.87640  22028303.89740
  -6977702.41900  22952753.99900                  -5334917.92240  22952758.00740
 96  9  8  0 57  0.0030000  0  6  1 14 15 22 25 29
  20693177.06700  25155729.91300                  16242757.91440  25155735.83140
 -10319162.70300  22404978.03800                  -7940122.79840  22404982.96040
  -5072635.60500  22181618.15500                   3434338.75540  22181623.34740
  -2907225.11800  24578048.35800                  -2172146.67140  24578054.20640
   -213352.13700  22043393.28800                   -111833.20240  22043397.09740
  -6991209.61800  22950183.95200                  -5345442.99140  22950187.78440
 96  9  8  0 57 30.0030000  0  6  1 14 15 22 25 29
  20802548.96200  25176544.98300                  16327982.76040  25176549.90540
 -10354022.84100  22398344.37400                  -7967286.51540  22398349.24940
  -4985338.47600  22198230.11600                   3502362.48840  22198235.37840
  -2968077.33600  24566467.79600                  -2219563.92740  24566474.27640
   -133603.33800  22058568.93700                    -49691.28540  22058572.72240
  -7004520.46900  22947650.60800                  -5355815.07140  22947654.56940
 96  9  8  0 58  0.0030000  0  6  1 14 15 22 25 29
  20911904.81100  25197354.71000                  16413195.00940  25197359.53840
 -10388634.16200  22391758.24900                  -7994256.35940  22391763.03040
  -4897506.45300  22214943.95200                   3570803.02540  22214949.19040
  -3028870.88200  24554898.81900                  -2266935.44740  24554904.63240
    -53421.25600  22073827.01500                     12788.25640  22073830.71840
  -7017639.18800  22945154.19400                  -5366037.43140  22945158.50740
 96  9  8  0 58 30.0030000  0  6  1 14 15 22 25 29
  21021241.31100  25218161.22600                  16498392.28740  25218166.90940
 -10423006.37400  22385217.31200                  -8021039.88240  22385222.35140
  -4809137.36300  22231760.24100                   3639662.05240  22231765.43340
  -3089588.48600  24543345.60800                  -2314247.81340  24543351.45640
     27191.01800  22089167.13200                     75603.01740  22089170.90540
  -7030582.93400  22942691.35800                  -5376123.46540  22942695.74140
 96  9  8  0 59  0.0030000  0  6  1 14 15 22 25 29
  21130567.10600  25238964.75700                  16583581.20240  25238968.19040
 -10457145.64800  22378720.65500                  -8047641.90540  22378725.29640
  -4720230.90400  22248678.76500                   3708939.80240  22248683.96840
  -3150213.52000  24531809.16300                  -2361488.04840  24531814.76540
    108240.75900  22104590.28800                    138758.65540  22104594.01540
  -7043366.35000  22940258.85800                  -5386084.56240  22940263.15940
 96  9  8  0 59 30.0030000  0  6  1 14 15 22 25 29
  21239870.57300  25259763.40500                  16668752.73040  25259769.15940
 -10491058.38100  22372267.36600                  -8074067.40140  22372272.20640
  -4630794.28100  22265697.74100                   3778630.66940  22265702.86240
  -3210737.87300  24520290.63200                  -2408649.80140  24520296.17540
    189713.04900  22120094.05400                    202243.55240  22120097.94440
  -7056011.76800  22937852.43700                  -5395938.09540  22937856.47940
 96  9  8  1  0  0.0030000  0  6  1 14 15 22 25 29
  21349172.94500  25280563.61600                  16753923.37540  25280567.02640
 -10524726.51100  22365860.52200                  -8100302.29040  22365865.26940
  -4540827.02800  22282817.93700                   3848735.00440  22282823.12840
  -3271158.16100  24508794.24100                  -2455730.47640  24508800.83940
    271599.13300  22135676.26500                    266050.88440  22135680.03840
  -7068530.55400  22935470.06900                  -5405692.97640  22935474.19440
 96  9  8  1  0 30.0030000  0  6  1 14 15 22 25 29
  21458485.07600  25301364.52200                  16839101.64040  25301370.79240
 -10558137.69800  22359502.77200                  -8126336.95740  22359507.50740
  -4450323.99800  22300040.03800                   3919256.83240  22300045.21840
  -3331459.78800  24497318.88200                  -2502718.67440  24497324.51940
    353904.92300  22151338.72600                    330185.26040  22151342.56940
  -7080924.24800  22933111.68700                  -5415350.39340  22933115.88240
 96  9  8  1  1  0.0030000  0  6  1 14 15 22 25 29
  21567811.92700  25322168.89700                  16924291.41240  25322173.24540
 -10591282.98500  22353195.17900                  -8152164.43640  22353199.98340
  -4359288.76400  22317363.60100                   3990193.35840  22317368.58140
  -3391640.17500  24485865.58500                  -2549612.42740  24485870.64740
    436632.49400  22167081.28000                    394648.30140  22167085.10140
  -7093179.19300  22930779.66300                  -5424899.68540  22930783.49540
 96  9  8  1  1 30.0030000  0  6  1 14 15 22 25 29
  21677155.16800  25342976.99100                  17009493.92040  25342982.59340
 -10624156.41200  22346939.53800                  -8177780.07840  22346944.22640
  -4267731.34400  22334786.31200                   4061536.77840  22334791.52640
  -3451710.54800  24474436.04600                  -2596420.41540  24474441.70640
    519769.72900  22182901.63200                    459430.55240  22182905.59340
  -7105289.36700  22928474.98300                  -5434336.17340  22928478.92140
 96  9  8  1  2  0.0030000  0  6  1 14 15 22 25 29
  21786531.65500  25363790.75700                  17094722.28740  25363798.28440
 -10656752.78100  22340736.67900                  -8203179.83040  22340741.51940
  -4175652.83500  22352308.31200                   4133286.24240  22352313.55040
  -3511674.37600  24463026.21800                  -2643145.42940  24463030.95240
    603319.48600  22198800.60100                    524534.25640  22198804.46840
  -7117228.92100  22926202.82700                  -5443639.69940  22926206.58940
 96  9  8  1  2 30.0030000  0  6  1 14 15 22 25 29
  21895948.09600  25384611.64700                  17179981.87140  25384617.90540
 -10689061.66600  22334588.39700                  -8228355.56840  22334593.07340
  -4083046.65500  22369930.76500                   4205446.88440  22369935.72240
  -3571514.78400  24451637.76500                  -2689774.21340  24451643.71840
    687304.34600  22214782.24900                    589977.00240  22214785.99940
  -7128971.19600  22923968.32700                  -5452789.49840  22923972.35840
 96  9  8  1  3  0.0030000  0  6  1 14 15 22 25 29
  22005393.01100  25405438.07700                  17265263.59040  25405442.96440
 -10721092.23400  22328493.39700                  -8253314.44040  22328498.19040
  -3989931.85300  22387650.14700                   4278003.85640  22387655.22240
  -3631262.37300  24440268.19400                  -2736330.74240  24440273.36240
    771704.85200  22230843.42900                    655743.63040  22230847.26140
  -7140536.74300  22921767.40500                  -5461801.59940  22921771.40140
 96  9  8  1  3 30.0030000  0  6  1 14 15 22 25 29
  22114865.12100  25426269.82700                  17350566.52640  25426274.28040
 -10752834.38800  22322453.19400                  -8278048.58140  22322457.81240
  -3896306.31600  22405466.34300                   4350958.80440  22405471.53440
  -3690919.88900  24428914.46800                  -2782817.06840  24428918.92140
    856528.91300  22246984.69400                    721840.29640  22246988.45640
  -7151922.11000  22919601.12400                  -5470673.28640  22919605.55440
 96  9  8  1  4  0.0030000  0  6  1 14 15 22 25 29
  22224346.17000  25447104.50700                  17435876.43440  25447109.38240
 -10784301.07800  22316465.09300                  -8302568.06940  22316469.71040
  -3802177.09800  22423378.54600                   4424306.23240  22423383.80840
  -3750483.55300  24417579.98300                  -2829230.23740  24417585.87840
    941774.59100  22263206.42900                    788265.50040  22263210.17940
  -7163140.66100  22917466.10800                  -5479414.99540  22917470.08140
 96  9  8  1  4 30.0030000  0  6  1 14 15 22 25 29
  22333831.88700  25467938.48300                  17521189.92740  25467945.60140
 -10815491.34800  22310529.58500                  -8326872.16540  22310534.43740
  -3707534.06300  22441388.54600                   4498054.03240  22441393.79640
  -3809946.16200  24406265.59300                  -2875564.68040  24406271.82740
   1027448.64800  22279509.70200                    855024.50940  22279513.46440
  -7174206.22800  22915360.52200                  -5488037.50640  22915364.54240
 96  9  8  1  5  0.0030000  0  6  1 14 15 22 25 29
  22443310.44400  25488770.35100                  17606497.86040  25488776.25740
 -10846422.85600  22304643.49900                  -8350974.62940  22304648.09340
  -3612388.99500  22459493.93700                   4572193.03340  22459498.97640
  -3869321.67500  24394966.76500                  -2921831.25140  24394972.47240
   1113524.88600  22295889.57700                    922096.90440  22295893.44440
  -7185130.05400  22913281.70200                  -5496549.56640  22913285.75740
 96  9  8  1  5 30.0030000  0  6  1 14 15 22 25 29
  22552776.22800  25509601.88200                  17691795.82540  25509608.50340
 -10877108.58300  22298804.34300                  -8374885.58140  22298809.18340
  -3516747.40200  22477694.03000                   4646718.93340  22477699.19840
  -3928587.60400  24383689.10800                  -2968012.38140  24383695.20240
   1199996.32800  22312344.53000                    989477.24740  22312348.51540
  -7195903.42000  22911231.78000                  -5504944.38440  22911235.49540
 96  9  8  1  6  0.0030000  0  6  1 14 15 22 25 29
  22662232.98500  25530429.06200                  17777086.81940  25530434.61640
 -10907540.00100  22293013.39700                  -8398598.36940  22293018.07340
  -3420609.30200  22495988.32700                   4721631.71540  22495993.48340
  -3987727.79800  24372435.64700                  -3014095.62140  24372441.98740
   1286863.08800  22328874.85800                   1057165.63140  22328878.70240
  -7206532.59600  22909209.03000                  -5513226.84440  22909212.95640
 96  9  8  1  6 30.0030000  0  6  1 14 15 22 25 29
  22771693.29500  25551259.57700                  17862380.48440  25551264.76940
 -10937696.98300  22287274.85100                  -8422097.31540  22287279.44440
  -3323970.43200  22514378.30400                   4796934.70940  22514383.40140
  -4046733.99500  24361206.35100                  -3060074.40640  24361212.76140
   1374131.50600  22345481.38200                   1125166.99840  22345485.14440
  -7216998.67500  22907217.29600                  -5521382.21040  22907221.47940
 96  9  8  1  7  0.0030000  0  6  1 14 15 22 25 29
  22881161.08300  25572091.62400                  17947680.08540  25572098.33940
 -10967558.73900  22281592.22600                  -8445366.20640  22281596.99540
  -3226830.79700  22532863.39700                   4872627.90740  22532868.69440
  -4105586.77300  24350007.09300                  -3105933.59940  24350013.46840
   1461817.45000  22362167.55400                   1193493.71240  22362171.45640
  -7227279.29200  22905260.96000                  -5529393.06340  22905264.93340
 96  9  8  1  7 30.0030000  0  6  1 14 15 22 25 29
  22990649.89900  25592926.23300                  18032996.02340  25592929.97240
 -10997095.11900  22275971.71800                  -8468381.55640  22275976.54640
  -3129183.18400  22551444.80400                   4948716.92840  22551450.31240
  -4164265.70600  24338839.72600                  -3151657.37540  24338845.37440
   1549931.18600  22378934.83500                   1262153.76840  22378938.65540
  -7237370.91500  22903340.68700                  -5537256.64640  22903344.62440
 96  9  8  1  8  0.0030000  0  6  1 14 15 22 25 29
  23100150.70700  25613764.13200                  18118321.31240  25613768.16340
 -11026299.51700  22270414.11600                  -8491138.22140  22270418.90940
  -3031040.97300  22570120.86600                   5025191.35540  22570126.22240
  -4222797.61200  24327702.02200                  -3197266.58440  24327707.75340
   1638458.00600  22395780.81900                   1331135.70740  22395784.64040
  -7247283.88400  22901454.34300                  -5544981.02240  22901458.18740
 96  9  8  1  8 30.0030000  0  6  1 14 15 22 25 29
  23209658.84300  25634602.99900                  18203652.29240  25634611.44040
 -11055181.55500  22264918.03800                  -8513643.69840  22264922.89040
  -2932412.26500  22588889.53800                   5102044.87940  22588895.11640
  -4281187.01600  24316591.64700                  -3242764.73540  24316597.82340
   1727376.45800  22412701.46800                   1400422.81440  22412705.34740
  -7257021.33300  22899601.19400                  -5552568.63540  22899605.22640
 96  9  8  1  9  0.0030000  0  6  1 14 15 22 25 29
  23319173.28800  25655443.17900                  18288988.25440  25655449.02640
 -11083733.59600  22259485.03000                  -8535892.03840  22259489.94040
  -2833296.95600  22607750.28800                   5179277.56740  22607755.66740
  -4339430.74200  24305507.31900                  -3288149.38740  24305511.83140
   1816673.46400  22429694.02200                   1470004.89740  22429697.89040
  -7266596.26600  22897778.96800                  -5560029.61540  22897782.95240
 96  9  8  1  9 30.0030000  0  6  1 14 15 22 25 29
  23428701.23800  25676285.00700                  18374334.69240  25676286.64740
 -11111965.01500  22254112.55400                  -8557890.54440  22254117.31240
  -2733699.08000  22626703.16300                   5256886.28140  22626708.57740
  -4397531.00500  24294450.58500                  -3333422.26840  24294456.45640
   1906327.38900  22446754.74900                   1539865.09740  22446758.52240
  -7276014.67600  22895986.92100                  -5567368.62740  22895991.03440
 96  9  8  1 10  0.0030000  0  6  1 14 15 22 25 29
  23538229.62200  25697125.94400                  18459681.44540  25697132.40140
 -11139906.31700  22248795.59300                  -8579662.97840  22248800.35140
  -2633624.87700  22645746.71800                   5334866.16040  22645752.30840
  -4455497.10200  24283419.52200                  -3378590.57540  24283425.08940
   1996341.07900  22463883.82700                   1610005.63640  22463887.75340
  -7285279.40000  22894223.73300                  -5574587.86940  22894227.92940
 96  9  8  1 10 30.0030000  0  6  1 14 15 22 25 29
  23647754.49400  25717969.80400                  18545025.47640  25717975.37040
 -11167582.09400  22243529.13200                  -8601228.50640  22243533.89040
  -2533080.47900  22664879.73300                   5413212.42240  22664885.05440
  -4513324.14600  24272417.00700                  -3423650.53840  24272422.79640
   2086710.60100  22481080.61600                   1680423.44940  22481084.26140
  -7294403.89800  22892487.28000                  -5581697.85340  22892491.42940
 96  9  8  1 11  0.0030000  0  6  1 14 15 22 25 29
  23757298.90600  25738814.42900                  18630384.74840  25738818.19040
 -11194975.77700  22238316.06200                  -8622574.22240  22238320.85440
  -2432053.46200  22684104.42100                   5491934.75740  22684109.84740
  -4570989.21400  24261442.95200                  -3468584.31840  24261447.94440
   2177460.13800  22498349.59300                   1751137.37140  22498353.43740
  -7303362.56300  22890782.79600                  -5588678.62840  22890787.07340
 96  9  8  1 11 30.0030000  0  6  1 14 15 22 25 29
  23866843.51300  25759660.96000                  18715744.15840  25759667.04240
 -11222121.44600  22233150.46000                  -8643726.66840  22233155.34740
  -2330567.02400  22703416.67900                   5571015.07740  22703422.21040
  -4628502.14300  24250497.99900                  -3513399.49740  24250504.29240
   2268583.33200  22515689.83500                   1822142.46240  22515693.65540
  -7312174.93900  22889105.75700                  -5595545.40540  22889109.83540
 96  9  8  1 12  0.0030000  0  6  1 14 15 22 25 29
  23976403.17800  25780508.71000                  18801115.37840  25780512.75340
 -11248990.52400  22228037.41300                  -8664663.59740  22228042.34740
  -2228606.36000  22722818.99900                   5650464.92340  22722824.54240
  -4685837.51000  24239588.14000                  -3558076.34440  24239593.91740
   2360096.21600  22533104.10800                   1893451.19840  22533108.04640
  -7320833.00200  22887458.19400                  -5602291.93640  22887462.21440
 96  9  8  1 12 30.0030000  0  6  1 14 15 22 25 29
  24085970.32700  25801359.85800                  18886492.29540  25801367.08140
 -11275566.07700  22222980.17900                  -8685371.80040  22222984.96040
  -2126186.31800  22742308.96800                   5730272.73540  22742314.28840
  -4742991.33100  24228712.37400                  -3602611.74940  24228718.23340
   2451969.84400  22550587.04600                   1965041.03440  22550590.97240
  -7329349.61000  22885837.68700                  -5608928.24940  22885841.61240
 96  9  8  1 13  0.0040000  0  6  1 14 15 22 25 29
  24195550.66600  25822211.32400                  18971879.50640  25822216.28140
 -11301830.78000  22217982.21500                  -8705837.79540  22217986.94940
  -2023303.20100  22761887.31600                   5810441.37240  22761892.53140
  -4799954.96600  24217872.38700                  -3646998.92640  24217877.93040
   2544205.41500  22568139.02000                   2036912.90640  22568142.81640
  -7337714.57400  22884245.79300                  -5615446.38440  22884249.76640
 96  9  8  1 13 30.0040000  0  6  1 14 15 22 25 29
  24305128.51300  25843063.05900                  19057264.82740  25843068.05140
 -11327776.37400  22213044.99600                  -8726055.12640  22213049.68440
  -1919958.53800  22781552.97300                   5890969.66440  22781558.48040
  -4856720.95700  24207070.16000                  -3691232.10940  24207075.83240
   2636800.27400  22585759.04300                   2109064.74340  22585762.85240
  -7345930.95700  22882682.04300                  -5621848.74240  22882686.03940
 96  9  8  1 14  0.0040000  0  6  1 14 15 22 25 29
  24414709.69000  25863915.98000                  19142652.72040  25863921.13740
 -11353396.37600  22208169.57400                  -8746018.75140  22208174.46140
  -1816154.27900  22801306.23000                   5971856.08240  22801311.90240
  -4913295.94400  24196303.69100                  -3735316.47940  24196308.84840
   2729748.20400  22603446.48800                   2181491.69540  22603450.36740
  -7354002.23800  22881146.25400                  -5628138.03740  22881150.14540
 96  9  8  1 14 30.0040000  0  6  1 14 15 22 25 29
  24524297.09600  25884769.23000                  19228045.45640  25884775.00840
 -11378688.71200  22203356.45700                  -8765727.05340  22203361.02740
  -1711886.56000  22821147.77700                   6053103.63040  22821153.39140
  -4969679.18700  24185574.65200                  -3779251.42340  24185579.85540
   2823064.94900  22621204.16000                   2254206.03640  22621207.94540
  -7361914.00200  22879640.69900                  -5634303.02940  22879644.64840
 96  9  8  1 15  0.0040000  0  6  1 14 15 22 25 29
  24633874.31700  25905621.66000                  19313430.27340  25905625.98440
 -11403670.24000  22198602.70700                  -8785193.16640  22198607.50040
  -1607170.66600  22841074.52000                   6134700.41440  22841079.96940
  -5025889.05800  24174877.93400                  -3823051.25240  24174883.39540
   2916744.82800  22639030.87100                   2327203.33740  22639034.79740
  -7369684.31100  22878162.18400                  -5640357.81140  22878166.06240
 96  9  8  1 15 30.0040000  0  6  1 14 15 22 25 29
  24743456.82300  25926474.29300                  19398819.22440  25926482.50040
 -11428318.35400  22193912.34000                  -8804399.47240  22193916.94540
  -1501996.32300  22861088.55900                   6216654.43540  22861094.04340
  -5081916.14200  24164216.76200                  -3866708.66140  24164221.80140
   3010805.56600  22656930.00400                   2400497.41240  22656933.67240
  -7377310.33700  22876710.99600                  -5646300.15140  22876714.92240
 96  9  8  1 16  0.0040000  0  6  1 14 15 22 25 29
  24853049.46700  25947328.92600                  19484216.07340  25947335.06640
 -11452630.46600  22189286.02700                  -8823343.96840  22189290.56240
  -1396380.03400  22881186.74600                   6298952.81340  22881192.28940
  -5137778.07200  24153586.30900                  -3910237.39040  24153592.53140
   3105224.72400  22674897.36300                   2474070.76840  22674901.14840
  -7384790.75700  22875287.25400                  -5652129.03340  22875291.14540
 96  9  8  1 16 30.0040000  0  6  1 14 15 22 25 29
  24962660.33000  25968188.48000                  19569627.08340  25968193.78940
 -11476588.25200  22184726.94100                  -8842012.36840  22184731.50040
  -1290314.48700  22901370.55100                   6381601.27240  22901375.94140
  -5193471.04100  24142987.84800                  -3953634.45740  24142993.66040
   3200008.68000  22692934.16800                   2547928.39840  22692937.93040
  -7392091.60500  22873898.13700                  -5657817.98640  22873902.12140
 96  9  8  1 17  0.0040000  0  6  1 14 15 22 25 29
  25072288.23600  25989049.10500                  19655051.46740  25989056.63340
 -11500188.92000  22180235.95700                  -8860402.48940  22180240.58640
  -1183808.23900  22921638.02000                   6464593.13640  22921643.51640
  -5248997.55400  24132421.69900                  -3996901.84540  24132426.86740
   3295146.01600  22711038.20700                   2622061.36940  22711042.29740
  -7399213.11000  22872542.85500                  -5663367.19740  22872546.48840
 96  9  8  1 17 30.0040000  0  5 14 15 22 25 29
 -11523434.23100  22175812.18400                  -8878515.71240  22175816.82440
  -1076863.35400  22941988.87100                   6547926.79540  22941994.23840
  -5304350.49200  24121888.44100                  -4040033.94140  24121894.31240
   3390641.82800  22729210.26200                   2696473.67540  22729214.05940
  -7406133.98100  22871225.82400                  -5668760.06240  22871229.78540
 96  9  8  1 18  0.0040000  0  5 14 15 22 25 29
 -11546328.92800  22171455.86300                  -8896355.73540  22171460.46940
   -969482.88900  22962422.91000                   6631599.87440  22962428.28940
  -5359516.55400  24111390.62900                  -4083020.39740  24111395.97340
   3486489.15300  22747449.75400                   2771159.89440  22747453.82040
  -7412847.49900  22869948.18400                  -5673991.35840  22869952.09840
 96  9  8  1 18 30.0040000  0  5 14 15 22 25 29
 -11568882.55600  22167163.89500                  -8913929.99240  22167168.58240
   -861663.16700  22982940.19100                   6715615.21340  22982945.50040
  -5414467.24800  24100934.34800                  -4125839.08340  24100940.58240
   3582706.27100  22765759.28500                   2846134.25740  22765763.03540
  -7419370.39700  22868706.96500                  -5679074.12940  22868710.94940
 96  9  8  1 19  0.0040000  0  5 14 15 22 25 29
 -11591123.59700  22162931.64500                  -8931260.66940  22162936.32040
   -753422.43900  23003537.25400                   6799958.62440  23003542.97340
  -5469192.10600  24090520.17600                  -4168481.79940  24090525.74240
   3679280.97000  22784136.71500                   2921387.26240  22784140.64140
  -7425740.78600  22867494.55100                  -5684038.04740  22867498.50040
 96  9  8  1 19 30.0040000  0  5 14 15 22 25 29
 -11613046.63500  22158760.02700                  -8948343.55040  22158764.59840
   -644752.87600  23024216.69900                   6884636.18940  23024222.31240
  -5523675.00600  24080152.27000                  -4210935.97040  24080157.46140
   3776222.25800  22802584.13700                   2996925.91740  22802588.02740
  -7431959.36900  22866311.49600                  -5688883.67640  22866315.25840
 96  9  8  1 20  0.0040000  0  5 14 15 22 25 29
 -11634657.41400  22154647.45700                  -8965183.11040  22154652.19140
   -535659.94400  23044976.45700                   6969643.64340  23044981.98840
  -5577922.09900  24069829.32400                  -4253206.41740  24069834.37540
   3873518.26400  22821098.80900                   3072740.97840  22821102.99240
  -7438044.19500  22865153.61300                  -5693625.07540  22865157.46940
 96  9  8  1 20 30.0040000  0  5 14 15 22 25 29
 -11655955.60700  22150594.48000                  -8981779.10740  22150599.03940
   -426147.89100  23065815.99600                   7054977.68540  23065821.56240
  -5631938.54500  24059550.05900                  -4295297.13340  24059555.50840
   3971167.83400  22839681.05900                   3148831.54240  22839685.04340
  -7443992.90800  22864021.52700                  -5698260.41740  22864025.51240
 96  9  8  1 21  0.0040000  0  5 14 15 22 25 29
 -11676910.32700  22146607.03500                  -8998107.46040  22146611.75840
   -316206.57300  23086737.20700                   7140646.22140  23086742.91440
  -5685717.85400  24049316.62900                  -4337203.03640  24049321.68040
   4069173.23900  22858330.62100                   3225199.37940  22858334.57040
  -7449774.71700  22862920.87900                  -5702765.70640  22862924.78140
 96  9  8  1 21 30.0040000  0  5 14 15 22 25 29
 -11697522.96400  22142684.38700                  -9014169.25840  22142689.02740
   -205857.46000  23107735.60500                   7226632.51940  23107741.14840
  -5739296.70500  24039120.32400                  -4378952.72540  24039125.72740
   4167505.68500  22877042.85500                   3301822.06340  22877046.71140
  -7455404.45200  22861849.74600                  -5707152.49340  22861853.63740
 96  9  8  1 22  0.0040000  0  5 14 15 22 25 29
 -11717776.74400  22138830.12100                  -9029951.42340  22138834.83240
    -95092.37500  23128813.63700                   7312942.96040  23128819.09840
  -5792644.14600  24028968.48000                  -4420522.07440  24028974.41040
   4266171.22600  22895818.30100                   3378704.29440  22895822.02740
  -7460858.26600  22860811.99600                  -5711402.21240  22860815.80540
 96  9  8  1 22 30.0040000  0  5 14 15 22 25 29
 -11737656.03600  22135047.41000                  -9045441.77640  22135051.88740
     16089.99000  23149970.80900                   7399578.55840  23149976.11740
  -5845736.84200  24018865.67600                  -4461892.92540  24018871.30140
   4365173.68500  22914657.62900                   3455849.06940  22914661.35540
  -7466140.22600  22859807.01200                  -5715518.00540  22859810.72740
 96  9  8  1 23  0.0040000  0  5 14 15 22 25 29
 -11757166.37000  22131334.66000                  -9060644.63240  22131339.26640
    127675.67600  23171204.87900                   7486528.42440  23171210.52740
  -5898581.48500  24008810.19900                  -4503070.49740  24008815.76640
   4464493.95400  22933557.69900                   3533241.48240  22933561.63740
  -7471277.58600  22858829.23800                  -5719521.12940  22858833.02340
 96  9  8  1 23 30.0040000  0  5 14 15 22 25 29
 -11776315.19100  22127690.83200                  -9075565.79140  22127695.41440
    239656.17400  23192514.30100                   7573785.94040  23192519.97340
  -5951171.49800  23998802.11300                  -4544049.66040  23998808.03140
   4564117.91400  22952515.53500                   3610870.53840  22952519.46140
  -7476284.29300  22857876.40200                  -5723422.45440  22857880.18740
 96  9  8  1 24  0.0040000  0  5 14 15 22 25 29
 -11795085.29400  22124119.04300                  -9090191.84740  22124123.68440
    352050.45900  23213902.20700                   7661365.89240  23213907.75040
  -6003462.90100  23988851.19900                  -4584796.14240  23988856.10940
   4664073.02100  22971536.40200                   3688757.63140  22971540.24640
  -7481144.98800  22856951.49600                  -5727209.99340  22856955.57440
 96  9  8  1 24 30.0040000  0  5 14 15 22 25 29
 -11813482.55500  22120618.03500                  -9104527.37340  22120622.75840
    464844.25900  23235366.09800                   7749257.14640  23235371.73440
  -6055496.97300  23978948.98800                  -4625342.13240  23978954.13340
   4764352.93500  22990618.85500                   3766897.82240  22990622.79340
  -7485886.66700  22856048.95700                  -5730904.80640  22856052.85940
 96  9  8  1 25  0.0040000  0  5 14 15 22 25 29
 -11831488.42900  22117191.63700                  -9118557.91840  22117196.18440
    578039.72200  23256906.71500                   7837461.38740  23256912.73840
  -6107280.66300  23969095.39500                  -4665692.99440  23969101.09040
   4864960.71300  23009764.06600                   3845293.49140  23009768.08640
  -7490475.33700  22855176.09800                  -5734480.39240  22855180.10540
 96  9  8  1 25 30.0040000  0  5 14 15 22 25 29
 -11849109.22100  22113838.55900                  -9132288.40040  22113843.23440
    691629.19600  23278521.84000                   7925972.65540  23278527.30140
  -6158818.73800  23959287.55900                  -4705852.48040  23959293.09040
   4965908.80800  23028974.02000                   3923954.34840  23028977.91040
  -7494888.50100  22854336.25400                  -5737919.20540  22854340.07440
 96  9  8  1 26  0.0040000  0  5 14 15 22 25 29
 -11866334.79400  22110560.58200                  -9145710.91740  22110565.31640
    805616.05500  23300212.88700                   8014793.56040  23300218.60540
  -6210123.18500  23949524.74600                  -4745829.92740  23949530.07840
   5067218.28400  23048252.52700                   4002896.79540  23048256.40640
  -7499119.90500  22853531.12900                  -5741216.39240  22853534.93740
 96  9  8  1 26 30.0040000  0  5 14 15 22 25 29
 -11883156.10500  22107359.65200                  -9158818.42640  22107364.44540
    919997.21900  23321978.98000                   8103921.72540  23321984.31240
  -6261198.25500  23939805.48800                  -4785628.64140  23939811.41840
   5168881.88900  23067598.20700                   4082115.18340  23067602.33240
  -7503161.05100  22852762.09000                  -5744365.33840  22852765.99240
 96  9  8  1 27  0.0040000  0  5 14 15 22 25 29
 -11899596.85600  22104231.26200                  -9171629.39340  22104235.80940
   1034759.09500  23343817.58200                   8193346.54440  23343823.11340
  -6312018.13500  23930134.81600                  -4825228.50340  23930140.25440
   5270877.42200  23087007.30100                   4161592.21540  23087011.52040
  -7507013.76100  22852028.91800                  -5747367.45340  22852032.77340
 96  9  8  1 27 30.0040000  0  5 14 15 22 25 29
 -11915674.44800  22101171.55100                  -9184157.36940  22101176.28540
   1149900.83300  23365728.35500                   8283067.36040  23365733.55940
  -6362569.58000  23920515.59000                  -4864619.18340  23920521.26240
   5373193.85100  23106477.49600                   4241319.29840  23106481.64540
  -7510705.65300  22851326.42600                  -5750244.25240  22851330.29340
 96  9  8  1 28  0.0040000  0  5 14 15 22 25 29
 -11931383.21200  22098182.22300                  -9196397.95540  22098186.96940
   1265422.37800  23387711.28500                   8373084.11940  23387717.02740
  -6412835.30800  23910950.09800                  -4903787.23840  23910955.44140
   5475809.47100  23126004.65200                   4321279.51940  23126008.49640
  -7514253.70300  22850651.34000                  -5753008.95740  22850654.98440
 96  9  8  1 28 30.0040000  0  5 14 15 22 25 29
 -11946742.31400  22095259.46500                  -9208366.07840  22095264.05940
   1381311.13700  23409764.21500                   8463387.02640  23409769.57040
  -6462809.84800  23901439.92600                  -4942728.39240  23901445.70340
   5578699.42200  23145583.89500                   4401453.51040  23145587.72740
  -7517651.79700  22850004.56600                  -5755656.82140  22850008.21140
 96  9  8  1 29  0.0040000  0  5 14 15 22 25 29
 -11961754.28000  22092402.87900                  -9220063.69940  22092407.43740
   1497569.08200  23431887.13700                   8553977.61140  23431892.86740
  -6512490.77600  23891986.12900                  -4981440.76040  23891991.80140
   5681856.64100  23165214.41800                   4481835.75240  23165218.19140
  -7520888.49900  22849388.51200                  -5758178.92640  22849392.40240
 96  9  8  1 29 30.0040000  0  5 14 15 22 25 29
 -11976375.22900  22089620.63700                  -9231456.63240  22089625.20740
   1614211.37800  23454083.80900                   8644867.68640  23454089.49240
  -6561878.89200  23882587.68400                  -5019924.96640  23882593.44940
   5785306.68700  23184900.19900                   4562446.17640  23184904.18440
  -7523945.67300  22848806.74600                  -5760561.13940  22848810.67240
 96  9  8  1 30  0.0040000  0  6 14 15 18 22 25 29
 -11990610.87400  22086911.52700                  -9242549.33040  22086916.02740
   1731211.33900  23476347.90200                   8736036.46540  23476353.72740
                  26109680.23800
  -6610998.35200  23873240.53500                  -5058199.83440  23873246.24240
   5889040.47700  23204639.89500                   4643277.69140  23204643.79740
  -7526833.53100  22848257.05100                  -5762811.40940  22848260.81240
 96  9  8  1 30 30.0040000  0  6 14 15 18 22 25 29
 -12004448.22500  22084278.35500                  -9253331.66640  22084282.93740
   1848578.61400  23498682.09800                   8827491.45540  23498687.82840
    -44844.91100  26100851.49600
  -6659837.98500  23863946.90200                  -5096256.65040  23863952.34040
   5993075.02800  23224437.05900                   4724343.56740  23224440.94940
  -7529539.09700  22847742.38700                  -5764919.63240  22847746.18440
 96  9  8  1 31  0.0040000  0  6 14 15 18 22 25 29
 -12017871.17800  22081724.10500                  -9263791.10040  22081728.73440
   1966307.71800  23521085.69900                   8919228.39740  23521091.32440
    -91235.47500  26092023.78500
  -6708390.51400  23854707.46500                  -5134089.74540  23854713.14840
   6097416.93400  23244292.81600                   4805648.94540  23244296.74240
  -7532085.54600  22847257.77700                  -5766903.87640  22847261.77340
 96  9  8  1 31 30.0040000  0  6 14 15 18 22 25 29
 -12030861.84200  22079252.15200                  -9273913.67940  22079256.74640
   2084396.60000  23543556.94100                   9011245.67840  23543562.47340
   -137599.16400  26083200.99600                    -15650.53850  26083208.19540
  -6756642.69100  23845524.76200                  -5171688.79040  23845529.48440
   6202085.35200  23264210.43400                   4887208.74140  23264214.20740
  -7534483.51400  22846801.30100                  -5768772.41940  22846805.18040
 96  9  8  1 32  0.0040000  0  6 14 15 18 22 25 29
 -12043437.96100  22076858.87100                  -9283713.23940  22076863.54740
   2202838.28200  23566095.71500                   9103537.86740  23566101.02340
   -183918.74900  26074385.90200                    -51743.74540  26074391.42240
  -6804582.46800  23836402.39500                  -5209044.41440  23836407.97340
   6307070.14500  23284188.21500                   4969015.07140  23284191.80140
  -7536740.73400  22846371.88700                  -5770531.28540  22846375.80140
 96  9  8  1 32 30.0040000  0  6 14 15 18 22 25 29
 -12055602.80900  22074544.05100                  -9293192.33140  22074548.71540
   2321627.49300  23588700.42600                   9196100.85940  23588706.15640
   -230176.71300  26065583.30100                    -87788.79540  26065589.96940
  -6852198.10100  23827341.94100                  -5246147.46440  23827346.92240
   6412364.91300  23304225.29300                   5051062.93540  23304229.10240
  -7538865.03900  22845967.63700                  -5772186.57040  22845971.49240
 96  9  8  1 33  0.0040000  0  6 14 15 18 22 25 29
 -12067344.57900  22072309.68400                  -9302341.75840  22072314.37140
   2440758.31900  23611370.48800                   9288930.04840  23611375.80940
   -276376.88700  26056792.09800                   -123788.87240  26056799.01640
  -6899496.74800  23818340.69100                  -5283003.50140  23818345.68440
   6517970.56600  23324321.48800                   5133353.04740  23324325.37940
  -7540851.24900  22845589.87100                  -5773734.26240  22845593.63340
 96  9  8  1 33 30.0040000  0  6 14 15 18 22 25 29
 -12078669.99500  22070154.42600                  -9311166.75840  22070159.05540
   2560229.70800  23634104.69100                   9382024.61040  23634110.38740
   -322527.29000  26048010.40200                   -159750.18140  26048014.31640
  -6946482.08100  23809400.27000                  -5319615.41840  23809405.21540
   6623871.79300  23344473.84000                   5215873.47340  23344477.85940
  -7542679.19200  22845241.80100                  -5775158.62740  22845245.66840
 96  9  8  1 34  0.0040000  0  6 14 15 18 22 25 29
 -12089601.18700  22068074.31600                  -9319684.57040  22068078.94540
   2680035.75000  23656903.59800                   9475379.93940  23656909.14140
   -368647.76500  26039233.10500                   -195688.15840  26039239.79740
  -6993163.31500  23800516.78500                  -5355990.35740  23800522.10540
   6730047.93200  23364678.47300                   5298608.11740  23364682.53940
  -7544350.63400  22844923.76200                  -5776461.03840  22844927.62940
 96  9  8  1 34 30.0040000  0  6 14 15 18 22 25 29
 -12100127.03800  22066071.22300                  -9327886.53540  22066075.78140
   2800178.69100  23679766.23800                   9568997.79040  23679771.68740
   -414734.87500  26030463.60500                   -231600.10940  26030470.02740
  -7039542.69700  23791691.27700                  -5392130.09540  23791696.66840
   6836504.25000  23384936.18400                   5381561.08540  23384940.16840
  -7545847.20200  22844639.12100                  -5777627.18240  22844642.88340
 96  9  8  1 35  0.0040000  0  6 14 15 18 22 25 29
 -12110251.54100  22064144.48000                  -9335775.75940  22064149.05140
   2920656.83100  23702692.13700                   9662876.82740  23702697.71540
   -460785.39800  26021700.31600                   -267483.67040  26021698.19540
  -7085631.14300  23782920.31600                  -5428043.12640  23782925.83640
   6943225.67500  23405244.73000                   5464720.63040  23405248.44540
  -7547160.00200  22844389.18400                  -5778650.11840  22844392.86340
 96  9  8  1 35 30.0040000  0  6 14 15 18 22 25 29
 -12119985.58100  22062292.34000                  -9343360.72840  22062297.00440
   3041460.69000  23725680.34000                   9757009.67640  23725686.05940
   -506807.66100  26012943.09800                   -303345.12640  26012947.83240
  -7131421.46300  23774206.76200                  -5463723.84940  23774211.88340
   7050209.49400  23425603.12100                   5548084.63740  23425607.09440
  -7548299.32700  22844172.31600                  -5779537.89140  22844176.18440
 96  9  8  1 36  0.0050000  0  6 14 15 18 22 25 29
 -12129315.29800  22060517.28200                  -9350630.64340  22060521.95840
   3162600.81700  23748732.45400                   9851404.55540  23748738.33740
   -552786.23200  26004192.92300                   -339172.49140  26004200.46240
  -7176890.86100  23765554.61000                  -5499154.50940  23765560.10640
   7157483.85000  23446016.64200                   5631675.03640  23446020.73140
  -7549279.13700  22843985.90700                  -5780301.37940  22843989.70440
 96  9  8  1 36 30.0050000  0  6 14 15 18 22 25 29
 -12138240.13400  22058818.65700                  -9357585.06140  22058823.33340
   3284043.41400  23771842.36000                   9946035.11940  23771848.00940
   -598728.20100  25995450.63400                   -374971.35940  25995456.34140
  -7222038.98800  23756962.86000                  -5534334.82440  23756968.19240
   7265016.97000  23466479.67300                   5715467.06340  23466483.50540
  -7550117.60200  22843826.43800                  -5780954.71840  22843830.11840
 96  9  8  1 37  0.0050000  0  6 14 15 18 22 25 29
 -12146741.28200  22057200.91500                  -9364209.33240  22057205.74340
   3405808.70600  23795013.63400                  10040917.14040  23795018.93140
   -644618.60700  25986717.60300                   -410730.10940  25986723.79040
  -7266826.52500  23748440.39900                  -5569234.17540  23748445.57940
   7372826.67400  23486995.29800                   5799474.61940  23486999.43540
  -7550807.38100  22843695.10300                  -5781492.18040  22843698.87640
 96  9  8  1 37 30.0050000  0  6 14 15 18 22 25 29
 -12154828.71600  22055662.00100                  -9370511.22540  22055666.70040
   3527881.89000  23818243.50100                  10136039.07840  23818249.52440
   -690476.29100  25977991.68800                   -446463.31340  25977997.38440
  -7311255.33200  23739985.87600                  -5603853.98240  23739990.69240
   7480903.29900  23507561.47800                   5883690.16040  23507565.63840
  -7551365.57500  22843588.65700                  -5781927.11940  22843592.44240
 96  9  8  1 38  0.0050000  0  6 14 15 18 22 25 29
 -12162489.32600  22054204.03200                  -9376480.53640  22054208.87240
   3650275.69500  23841534.31300                  10231410.84340  23841539.83340
   -736272.63500  25969276.92300                   -482148.73340  25969281.72840
  -7355311.88400  23731601.79800                  -5638183.72540  23731607.10640
   7589246.17200  23528178.43100                   5968113.17440  23528182.55640
  -7551766.81100  22843512.37600                  -5782239.75540  22843516.14940
 96  9  8  1 38 30.0050000  0  6 14 15 18 22 25 29
 -12169726.40500  22052826.81300                  -9382119.82040  22052831.59540
   3772980.34200  23864883.93100                  10327024.82940  23864889.28640
   -782004.84800  25960573.54800                   -517784.14040  25960577.12240
  -7399020.03300  23723284.68800                  -5672241.98940  23723290.00940
   7697845.03000  23548844.31300                   6052735.65140  23548848.00540
  -7551983.81300  22843470.95400                  -5782408.82940  22843474.86840
 96  9  8  1 39  0.0050000  0  6 14 15 18 22 25 29
 -12176543.69800  22051529.56300                  -9387431.99540  22051534.20440
   3895991.47900  23888292.51700                  10422877.64740  23888298.11840
   -827678.26500  25951882.97800                   -553373.77340  25951889.56340
  -7442401.30200  23715029.36800                  -5706045.54440  23715034.59540
   7806698.51800  23569558.30600                   6137556.54540  23569562.11440
  -7552014.03000  22843465.30600                  -5782432.36540  22843469.11440
 96  9  8  1 39 30.0050000  0  6 14 15 18 22 25 29
 -12182930.47600  22050314.31300                  -9392408.70340  22050318.89540
   4019303.73800  23911758.11800                  10518965.09640  23911763.89540
   -873290.54200  25943202.80600                   -588915.76740  25943207.48140
  -7485472.66500  23706833.16500                  -5739607.61540  23706838.06340
   7915810.39900  23590321.45400                   6222578.77440  23590325.23940
  -7551856.25100  22843495.27400                  -5782309.41240  22843498.90740
 96  9  8  1 40  0.0050000  0  6 14 15 18 22 25 29
 -12188878.56200  22049182.30600                  -9397043.57340  22049187.05240
   4142911.89200  23935279.24300                  10615283.11840  23935285.18540
   -918838.28100  25934534.84500                   -624407.45240  25934540.99740
  -7528234.69500  23698695.69600                  -5772928.63640  23698700.52440
   8025183.51600  23611134.30600                   6307804.57940  23611138.06740
  -7551510.99400  22843561.07100                  -5782040.35940  22843564.72840
 96  9  8  1 40 30.0050000  0  6 14 15 18 22 25 29
 -12194390.48100  22048133.57100                  -9401338.57340  22048138.36440
   4266803.80000  23958855.29000                  10711822.24840  23958860.78640
   -964346.64300  25925874.96200                   -659868.47840  25925880.49340
  -7570700.99100  23690614.29000                  -5806019.23240  23690619.17740
   8134811.96300  23631995.89900                   6393229.34140  23632000.15340
  -7551007.43100  22843657.06300                  -5781647.95240  22843660.64940
 96  9  8  1 41  0.0050000  0  6 14 15 18 22 25 29
 -12199458.59400  22047169.20400                  -9405287.74540  22047173.88040
   4390985.12500  23982486.28200                  10808586.89240  23982492.02440
  -1009829.19300  25917219.39900                   -695309.36840  25917226.97440
  -7612834.95600  23682596.75100                  -5838850.85040  23682602.28240
   8244695.23000  23652906.13400                   6478852.65640  23652910.00140
  -7550368.01300  22843778.49300                  -5781149.69540  22843782.18540
 96  9  8  1 41 30.0050000  0  6 14 15 18 22 25 29
 -12204089.54100  22046287.89900                  -9408896.26740  22046292.50540
   4515449.11900  24006171.23500                  10905571.79740  24006176.89540
  -1055287.46200  25908569.32100                   -730731.36440  25908574.89940
  -7654611.88600  23674647.23500                  -5871404.27640  23674652.27440
   8354836.80200  23673865.86800                   6564677.25740  23673869.57140
  -7549604.85800  22843923.79000                  -5780555.02340  22843927.61040
 96  9  8  1 42  0.0050000  0  6 14 15 18 22 25 29
 -12208269.63100  22045492.56300                  -9412153.47540  22045497.20440
   4640209.63700  24029912.58700                  11002787.76540  24029918.83340
  -1100707.88400  25899926.29800                   -766123.87040  25899933.56740
  -7695999.41400  23666770.93100                  -5903654.25740  23666776.01740
   8465241.60900  23694875.02400                   6650706.97440  23694879.06740
  -7548702.22700  22844095.39900                  -5779851.66340  22844099.26740
 96  9  8  1 42 30.0050000  0  6 14 15 18 22 25 29
 -12212016.61200  22044779.53200                  -9415073.19540  22044784.12640
   4765245.82800  24053706.07900                  11100218.52840  24053711.75140
  -1146111.80200  25891286.11800                   -801503.47040  25891292.68140
  -7737005.30700  23658967.72800                  -5935606.87340  23658972.81340
   8575881.24800  23715929.06300                   6736919.67140  23715932.59140
  -7547677.48400  22844290.53200                  -5779053.14940  22844294.28240
 96  9  8  1 43  0.0050000  0  6 14 15 18 22 25 29
 -12215331.62900  22044148.61000                  -9417656.31940  22044153.01740
   4890560.61800  24077552.46200                  11197866.39240  24077558.13440
  -1191482.41600  25882651.89200                   -836857.17640  25882656.82540
  -7777600.46000  23651242.92300                  -5967239.42740  23651248.32540
   8686755.98500  23737027.59500                   6823315.56740  23737031.84940
  -7546506.80300  22844513.14900                  -5778140.91440  22844516.91140
 96  9  8  1 43 30.0050000  0  6 14 15 18 22 25 29
 -12218212.23300  22043600.37600                  -9419900.94140  22043605.07540
   5016146.81900  24101450.61000                  11295725.73840  24101456.23540
  -1236801.29300  25874028.01700                   -872170.54240  25874032.83340
  -7817799.99900  23643593.22800                  -5998563.70440  23643598.71240
   8797854.10600  23758168.76700                   6909885.52040  23758172.61040
  -7545178.78200  22844765.98500                  -5777106.08840  22844769.59540
 96  9  8  1 44  0.0050000  0  6 14 15 18 22 25 29
 -12220658.06600  22043134.97000                  -9421806.77640  22043139.58740
   5142004.16700  24125400.82900                  11393796.37740  24125406.57140
  -1282073.41000  25865413.81300                   -907447.50940  25865419.19240
  -7857611.52500  23636017.15700                  -6029585.64440  23636022.44240
   8909169.96200  23779351.49300                   6996625.16040  23779355.63040
  -7543679.04600  22845051.07100                  -5775937.45740  22845054.83340
 96  9  8  1 44 30.0050000  0  6 14 15 18 22 25 29
 -12222681.33500  22042749.85300                  -9423383.34340  22042754.48140
   5268124.17900  24149400.92300                  11492071.68940  24149406.52440
  -1327304.07900  25856805.91500                   -942692.10240  25856812.68840
  -7897040.71200  23628513.87600                  -6060309.66140  23628518.91540
   9020699.37300  23800575.00100                   7083531.19540  23800578.97440
  -7542013.53000  22845368.32900                  -5774639.64740  22845372.12640
 96  9  8  1 45  0.0050000  0  6 14 15 18 22 25 29
 -12224277.04000  22042446.18100                  -9424626.74140  22042450.81040
   5394503.69400  24173449.69600                  11590549.20840  24173455.09940
  -1372495.12100  25848206.19600                   -977905.88540  25848212.09140
  -7936085.78500  23621084.38400                  -6090734.35340  23621089.61040
   9132449.68900  23821840.08700                   7170609.36040  23821844.25940
  -7540180.42000  22845717.16500                  -5773211.25240  22845720.89240
 96  9  8  1 45 30.0050000  0  6 14 15 18 22 25 29
 -12225422.59000  22042228.36000                  -9425519.37040  22042232.94240
   5521150.88000  24197549.74300                  11689235.29540  24197555.79040
  -1417644.40300  25839615.11800                  -1013087.12440  25839620.38040
  -7974747.65000  23613726.70400                  -6120860.46240  23613731.96640
   9244445.21800  23843152.21200                   7257878.60240  23843156.30240
  -7538171.47400  22846099.46200                  -5771645.83640  22846103.08340
 96  9  8  1 46  0.0050000  0  6 14 15 18 22 25 29
 -12226129.13100  22042093.94600                  -9426069.91640  22042098.57540
   5648055.00400  24221699.36800                  11788121.60340  24221705.13440
  -1462773.81100  25831027.48500                  -1048252.83640  25831031.81040
  -8013035.34600  23606440.93800                  -6150694.99640  23606446.10640
   9356695.19100  23864512.72000                   7345346.11140  23864517.03240
  -7535996.97700  22846513.22800                  -5769951.41440  22846516.95440
 96  9  8  1 46 30.0050000  0  6 14 15 18 22 25 29
 -12226386.88200  22042044.61800                  -9426270.75340  22042049.27040
   5775210.40200  24245895.73500                  11887203.72040  24245901.48940
  -1507880.98500  25822443.71200                  -1083401.28040  25822449.27840
  -8050948.68800  23599226.36000                  -6180237.83140  23599231.75140
   9469196.76000  23885921.20400                   7433009.67040  23885925.17740
  -7533667.51100  22846956.70400                  -5768136.24640  22846960.44240
 96  9  8  1 47  0.0050000  0  6 14 15 18 22 25 29
 -12226168.94700  22042086.36800                  -9426100.92940  22042090.92740
   5902631.34400  24270143.22800                  11986492.74040  24270148.51340
  -1552950.94400  25813867.15700                  -1118520.68440  25813873.48540
  -8088473.10900  23592085.50100                  -6209477.60940  23592090.71640
   9581968.88000  23907380.97800                   7520884.03840  23907385.18540
  -7531160.59800  22847433.63400                  -5766182.80340  22847437.39540
 96  9  8  1 47 30.0050000  0  6 14 15 18 22 25 29
 -12225492.07400  22042214.87600                  -9425573.49340  22042219.49340
   6030296.40500  24294437.45400                  12085971.98440  24294443.37240
  -1597994.11700  25805295.59500                  -1153619.22840  25805300.54040
  -8125623.98100  23585015.92300                  -6238426.30940  23585021.00940
   9694985.85600  23928887.28200                   7608949.21340  23928891.36040
  -7528488.78900  22847941.79800                  -5764100.87340  22847945.50140
 96  9  8  1 48  0.0050000  0  6 14 15 18 22 25 29
 -12224345.63200  22042433.09500                  -9424680.16040  22042437.64240
   6158204.39500  24318777.09500                  12185640.53240  24318783.08340
  -1642993.58800  25796731.73500                  -1188683.68540  25796737.24340
  -8162387.29900  23578019.89900                  -6267073.02740  23578024.82140
   9808230.72400  23950436.75100                   7697191.96240  23950440.85340
  -7525654.34000  22848481.34500                  -5761892.19840  22848485.13040
 96  9  8  1 48 30.0050000  0  6 14 15 18 22 25 29
 -12222701.12500  22042746.06300                  -9423398.72440  22042750.57540
   6286364.82200  24343166.07100                  12285505.77240  24343171.75540
  -1687929.74200  25788181.41500                  -1223698.85240  25788184.86040
  -8198734.50100  23571103.34500                  -6295395.49740  23571108.53640
   9921700.67800  23972029.61000                   7785610.10540  23972033.61840
  -7522648.11800  22849053.17300                  -5759549.69240  22849056.95840
 96  9  8  1 49  0.0050000  0  6 14 15 18 22 25 29
 -12220561.67800  22043153.20400                  -9421731.62040  22043157.71640
   6414764.94200  24367598.79800                  12385557.79440  24367604.14240
  -1732804.95500  25779641.80600                  -1258666.51240  25779646.79840
  -8234671.56200  23564264.91500                  -6323398.37240  23564269.80240
  10035382.89700  23993662.50100                   7874193.65140  23993666.41540
  -7519467.80800  22849658.59500                  -5757071.52540  22849662.16940
 96  9  8  1 49 30.0050000  0  6 14 15 18 22 25 29
 -12217936.56200  22043652.95400                  -9419686.06840  22043657.38440
   6543395.82600  24392077.38400                  12485789.62040  24392083.27840
  -1777615.97200  25771114.10300                  -1293584.14440  25771119.02440
  -8270206.60600  23557502.88400                  -6351087.99040  23557507.68840
  10149268.28700  24015334.44600                   7962935.50940  24015338.84140
  -7516128.13500  22850294.07900                  -5754469.18140  22850297.74740
 96  9  8  1 50  0.0050000  0  6 14 15 18 22 25 29
 -12214809.74100  22044247.72000                  -9417249.58040  22044252.19640
   6672270.90200  24416600.93800                  12586211.73240  24416606.88040
  -1822364.79300  25762598.22000                  -1328453.34640  25762604.67740
  -8305330.51600  23550818.91500                  -6378457.24340  23550823.67340
  10263370.71600  24037047.64200                   8051846.49240  24037051.98940
  -7512622.91500  22850960.92300                  -5751737.83440  22850964.73140
 96  9  8  1 50 30.0050000  0  6 14 15 18 22 25 29
 -12211212.23200  22044932.09500                  -9414446.34040  22044936.64240
   6801373.76800  24441168.39900                  12686811.34340  24441174.24740
  -1867085.51400  25754088.82100                  -1363300.58440  25754093.94240
  -8340055.26900  23544211.06300                  -6405515.47040  23544215.97440
  10377678.79000  24058799.43800                   8140917.71140  24058803.32940
  -7508965.93000  22851657.07100                  -5748888.20840  22851660.97440
 96  9  8  1 51  0.0050000  0  6 14 15 18 22 25 29
 -12207163.36000  22045702.92300                  -9411291.35840  22045707.35340
   6930700.40900  24465778.72800                  12787585.31940  24465784.61040
  -1911787.32500  25745582.74300                  -1398133.15040  25745587.14940
  -8374384.43200  23537678.37600                  -6432265.44640  23537683.21640
  10492192.54200  24080590.82900                   8230149.20040  24080594.52040
  -7505158.33000  22852381.70400                  -5745921.24840  22852385.56040
 96  9  8  1 51 30.0050000  0  6 14 15 18 22 25 29
 -12202690.03200  22046554.13400                  -9407805.64240  22046558.70440
   7060232.90300  24490427.74300                  12888519.68440  24490433.43840
  -1956498.11500  25737074.61800                  -1432972.69740  25737081.67740
  -8408323.74100  23531219.61000                  -6458711.62340  23531224.33340
  10606900.27900  24102418.96200                   8319531.85640  24102422.89940
  -7501221.97700  22853130.60300                  -5742853.96440  22853134.47040
 96  9  8  1 52  0.0050000  0  6 14 15 18 22 25 29
 -12197768.19400  22047490.64900                  -9403970.44240  22047495.27840
   7189984.44100  24515118.63400                  12989624.76640  24515124.70440
  -2001203.00000  25728566.75900                  -1467807.65640  25728571.92740
  -8441835.91400  23524842.71200                  -6484824.97040  23524847.59940
  10721810.23000  24124285.64900                   8409072.06940  24124289.55240
  -7497130.59900  22853909.19600                  -5739665.87340  22853912.99340
 96  9  8  1 52 30.0050000  0  6 14 15 18 22 25 29
 -12192393.20600  22048513.27400                  -9399782.13740  22048517.83340
   7319955.05300  24539851.48500                  13090900.52640  24539856.95840
  -2045870.24000  25720067.37600                  -1502613.22740  25720071.47840
  -8474904.31100  23518549.86000                  -6510592.52940  23518554.45440
  10836929.28800  24146192.11800                   8498775.24040  24146196.05640
  -7492874.04300  22854719.05600                  -5736349.06140  22854722.79440
 96  9  8  1 53  0.0050000  0  6 14 15 18 22 25 29
 -12186541.21400  22049627.10300                  -9395222.14440  22049631.66140
   7450143.97200  24564625.72000                  13192346.39640  24564631.64940
  -2090474.47200  25711579.56300                  -1537369.77940  25711585.99740
  -8507534.12500  23512340.64200                  -6536018.32640  23512345.42340
  10952256.39200  24168138.19600                   8588640.50940  24168142.08740
  -7488436.56400  22855563.61000                  -5732891.27240  22855567.50140
 96  9  8  1 53 30.0050000  0  6 14 15 18 22 25 29
 -12180201.62000  22050833.57900                  -9390282.19840  22050838.24340
   7580540.86200  24589439.07100                  13293954.33840  24589445.00140
  -2135003.46600  25703105.51700                  -1572067.63840  25703109.86440
  -8539728.36600  23506214.34500                  -6561104.72840  23506219.32540
  11067774.34400  24190120.73500                   8678654.49240  24190124.90740
  -7483821.85400  22856441.62600                  -5729295.39140  22856445.35340
 96  9  8  1 54  0.0050000  0  6 14 15 18 22 25 29
 -12173357.76400  22052135.79000                  -9384949.31840  22052140.41940
   7711145.84000  24614293.02400                  13395724.41640  24614298.88440
  -2179442.57200  25694648.79000                  -1606695.44840  25694655.00140
  -8571484.50600  23500171.00100                  -6585849.73340  23500176.08740
  11183485.93300  24212139.32900                   8768819.36540  24212143.36040
  -7479028.98000  22857353.75100                  -5725560.66440  22857357.46640
 96  9  8  1 54 30.0050000  0  6 14 15 18 22 25 29
 -12166009.27300  22053534.14200                  -9379223.21940  22053538.78240
   7841953.19000  24639183.69600                  13497652.18640  24639189.39240
  -2223800.14000  25686207.75900                  -1641259.80040  25686212.30640
  -8602810.30000  23494210.21200                  -6610259.42040  23494215.28640
  11299397.37900  24234196.78200                   8859139.96440  24234200.87240
  -7474065.82000  22858298.23500                  -5721693.25840  22858301.95040
 96  9  8  1 55  0.0050000  0  6 14 15 18 22 25 29
 -12158147.49900  22055030.05600                  -9373097.15640  22055034.75540
   7972960.46400  24664114.10300                  13599735.74140  24664120.37240
  -2268090.03700  25677779.76700                  -1675771.36140  25677784.13840
  -8633703.83900  23488331.19600                  -6634332.28440  23488335.97840
  11415501.76200  24256290.60300                   8949610.90740  24256294.58740
  -7468935.40000  22859274.46200                  -5717695.52440  22859278.18840
 96  9  8  1 55 30.0050000  0  6 14 15 18 22 25 29
 -12149776.58900  22056623.21200                  -9366574.36240  22056627.80640
   8104165.50900  24689081.83700                  13701973.40640  24689087.59140
  -2312322.20300  25669362.95400                  -1710237.94540  25669367.71240
  -8664148.07000  23482537.68100                  -6658055.03240  23482542.46240
  11531814.92200  24278424.36000                   9040244.53240  24278428.43840
  -7463650.39000  22860280.30600                  -5713577.31240  22860283.99740
 96  9  8  1 56  0.0050000  0  6 14 15 18 22 25 29
 -12140902.23000  22058311.83700                  -9359659.27740  22058316.47840
   8235565.53300  24714086.64900                  13804363.00440  24714092.59140
  -2356508.50300  25660954.21200                  -1744668.80940  25660958.39540
  -8694143.26700  23476830.13400                  -6681427.89240  23476834.88040
  11648338.85800  24300598.19600                   9131042.39340  24300602.02840
  -7458220.12800  22861313.41500                  -5709345.92140  22861317.16540
 96  9  8  1 56 30.0050000  0  6 14 15 18 22 25 29
 -12131543.59000  22060092.61800                  -9352366.82740  22060097.31740
   8367144.59400  24739125.54800                  13906892.11240  24739130.83340
  -2400661.43400  25652552.67300                  -1779073.65140  25652558.31040
  -8723697.09400  23471206.21200                  -6704456.81340  23471210.97040
  11765046.50400  24322806.77400                   9221983.41440  24322810.80640
  -7452657.16600  22862372.12600                  -5705011.14140  22862375.81740
 96  9  8  1 57  0.0050000  0  6 14 15 18 22 25 29
 -12121694.37900  22061966.98500                  -9344692.11840  22061971.59140
   8498915.72700  24764200.75100                  14009570.89840  24764206.30640
  -2444754.25700  25644162.00100                  -1813431.62640  25644165.69240
  -8752793.76900  23465669.32900                  -6727129.52040  23465674.00540
  11881951.43500  24345053.07900                   9313078.16140  24345057.25140
  -7446940.00100  22863460.04800                  -5700556.20040  22863463.84540
 96  9  8  1 57 30.0050000  0  6 14 15 18 22 25 29
 -12111360.39500  22063933.29000                  -9336639.66340  22063937.79040
   8630878.57300  24789312.29800                  14112399.06140  24789318.20440
  -2488783.61800  25635783.56300                  -1847740.20140  25635789.63440
  -8781432.49600  23460219.29800                  -6749445.39340  23460224.44240
  11999054.23600  24367337.11000                   9404327.08040  24367340.95440
  -7441057.96900  22864579.23500                  -5695972.78840  22864582.95040
 96  9  8  1 58  0.0050000  0  6 14 15 18 22 25 29
 -12100553.20400  22065989.95400                  -9328218.47340  22065994.59540
   8763020.73400  24814458.83700                  14215366.95440  24814464.90740
  -2532753.55200  25627416.05600                  -1882002.47440  25627421.85640
  -8809622.16800  23454854.85300                  -6771411.33540  23454859.96240
  12116328.13200  24389653.57900                   9495709.33040  24389657.16540
  -7434999.89300  22865732.17300                  -5691252.19840  22865735.86440
 96  9  8  1 58 30.0060000  0  6 14 15 18 22 25 29
 -12089268.19800  22068137.37300                  -9319424.96040  22068141.99040
   8895335.15900  24839636.82600                  14318469.05540  24839643.40040
  -2576673.70900  25619058.57600                  -1916225.92540  25619064.10740
  -8837368.91500  23449574.88900                  -6793032.15740  23449579.81140
  12233782.37900  24412004.48200                   9587232.10840  24412008.20940
  -7428750.79300  22866921.31100                  -5686382.77140  22866925.09640
 96  9  8  1 59  0.0060000  0  6 14 15 18 22 25 29
 -12077493.38300  22070378.04500                  -9310249.77440  22070382.80340
   9027819.16200  24864846.70100                  14421703.33940  24864852.77140
  -2620530.86800  25610712.64600                  -1950400.33340  25610718.03740
  -8864669.68900  23444379.81800                  -6814305.45840  23444384.62340
  12351427.12100  24434391.49000                   9678903.31740  24434394.95940
  -7422292.60200  22868150.37300                  -5681350.40740  22868154.07640
 96  9  8  1 59 30.0060000  0  6 14 15 18 22 25 29
 -12065221.65800  22072713.38100                  -9300687.38640  22072718.03340
   9160470.41400  24890088.88100                  14525067.92340  24890094.75240
  -2664333.16900  25602377.47500                  -1984531.94440  25602384.79140
  -8891515.11500  23439271.02900                  -6835223.94940  23439276.06840
  12469250.98700  24456812.40400                   9770714.12540  24456816.30740
  -7415631.21700  22869417.83400                  -5676159.71040  22869421.43240
 96  9  8  2  0  0.0060000  0  6 14 15 18 22 25 29
 -12052449.99000  22075143.80300                  -9290735.43140  22075148.49040
   9293282.66900  24915362.96700                  14628557.94540  24915368.95540
  -2708083.55300  25594052.04500                  -2018623.16140  25594056.76840
  -8917898.57300  23434250.62300                  -6855782.46040  23434255.45140
  12587245.70400  24479266.26400                   9862658.04440  24479270.45940
  -7408782.93600  22870721.15400                  -5670823.38540  22870724.91640
 96  9  8  2  0 30.0060000  0  6 14 15 18 22 25 29
 -12039166.77500  22077671.34200                  -9280384.87040  22077676.02940
   9426262.84900  24940669.31100                  14732178.80940  24940674.80740
  -2751782.80100  25585735.99800                  -2052674.49340  25585741.31840
  -8943810.58200  23429320.12300                  -6875973.61340  23429324.91640
  12705414.97900  24501753.37300                   9954737.99240  24501757.34640
  -7401771.98900  22872055.15400                  -5665360.30140  22872058.88140
 96  9  8  2  1  0.0060000  0  6 14 15 18 22 25 29
 -12025395.64000  22080291.98200                  -9269654.11340  22080296.57640
   9559391.14300  24966001.17800                  14835915.11740  24966006.81440
  -2795445.51700  25577427.78700                  -2086697.35140  25577432.97840
  -8969258.18200  23424477.27100                  -6895802.89140  23424482.00640
  12823720.48600  24524265.95100                  10046924.09740  24524270.12340
  -7394635.36700  22873413.29500                  -5659799.28740  22873417.06840
 96  9  8  2  1 30.0060000  0  6 14 15 18 22 25 29
 -12011113.48900  22083009.85000                  -9258525.16240  22083014.45540
   9692675.40100  24991365.46700                  14939772.96140  24991371.31440
  -2839081.02000  25569123.50600                  -2120699.02040  25569129.06140
  -8994219.07000  23419727.12300                  -6915252.91240  23419731.92840
  12942166.45200  24546805.58400                  10139219.64840  24546809.63940
  -7387377.78800  22874794.40400                  -5654144.01940  22874798.20140
 96  9  8  2  2  0.0060000  0  6 14 15 18 22 25 29
 -11996319.73000  22085824.98200                  -9246997.55740  22085829.60040
   9826105.38600  25016756.99800                  15043744.33940  25016762.68240
  -2882710.18400  25560821.16200                  -2154695.76040  25560825.83840
  -9018714.63100  23415065.74800                  -6934340.34440  23415070.76440
  13060752.32300  24569371.42800                  10231624.20940  24569375.76440
  -7380001.12300  22876198.09200                  -5648395.96740  22876201.68940
 96  9  8  2  2 30.0060000  0  6 14 15 18 22 25 29
 -11980991.74800  22088741.74800                  -9235053.67640  22088746.47140
   9959693.11300  25042177.70900                  15147838.64840  25042183.93240
  -2926319.84300  25552522.29500                  -2188677.26740  25552528.29540
  -9042731.82600  23410495.33400                  -6953055.02140  23410500.36140
  13179503.79500  24591969.51400                  10324157.82340  24591973.72140
  -7372475.78200  22877629.99000                  -5642532.05040  22877633.71740
 96  9  8  2  3  0.0060000  0  6 14 15 18 22 25 29
 -11965123.91100  22091761.42000                  -9222689.12840  22091766.02540
  10093433.92700  25067627.97500                  15252052.24940  25067633.60040
  -2969904.52700  25544228.59200                  -2222639.33940  25544233.73640
  -9066267.55500  23406016.95900                  -6971394.52240  23406021.78740
  13298432.04500  24614600.72500                  10416829.18040  24614605.02540
  -7364767.13300  22879097.06100                  -5636525.29740  22879100.69340
 96  9  8  2  3 30.0060000  0  6 14 15 18 22 25 29
 -11948719.64100  22094883.02900                  -9209906.57740  22094887.76440
  10227320.09100  25093105.31800                  15356379.09840  25093111.79940
  -3013466.12200  25535939.48200                  -2256583.41140  25535944.60340
  -9089324.57400  23401629.29500                  -6989361.00940  23401634.39340
  13417537.58800  24637264.78700                  10509638.69440  24637269.11140
  -7356853.59500  22880602.74800                  -5630358.90140  22880606.41640
 96  9  8  2  4  0.0060000  0  6 14 15 18 22 25 29
 -11931797.35000  22098103.02100                  -9196720.37940  22098107.72140
  10361344.09300  25118609.25600                  15460813.35240  25118615.43240
  -3056977.37800  25527659.27900                  -2290488.23940  25527663.65040
  -9111901.31800  23397333.02100                  -7006953.26040  23397337.79140
  13536820.45500  24659964.09200                  10602586.37540  24659968.06440
  -7348727.47800  22882149.17800                  -5624026.86440  22882152.74040
 96  9  8  2  4 30.0060000  0  6 14 15 18 22 25 29
 -11914377.22200  22101418.06800                  -9183146.25240  22101422.79140
  10495497.81200  25144138.52100                  15565348.68140  25144143.93640
  -3100424.48900  25519391.59200                  -2324343.10540  25519397.05340
  -9133988.37100  23393129.87300                  -7024163.92940  23393134.67840
  13656271.63000  24682695.47500                  10695665.21240  24682699.24840
  -7340402.32800  22883733.28700                  -5617539.73340  22883736.90840
 96  9  8  2  5  0.0060000  0  6 14 15 18 22 25 29
 -11896450.96200  22104829.37300                  -9169177.73040  22104833.93240
  10629789.85300  25169692.13900                  15669991.76540  25169697.71740
  -3143790.10000  25511139.45900                  -2358134.45740  25511145.31840
  -9155578.80800  23389021.17000                  -7040987.62540  23389025.96340
  13775884.62700  24705456.83400                  10788870.14640  24705460.23240
  -7331877.60900  22885355.63100                  -5610897.09140  22885359.18240
 96  9  8  2  5 30.0060000  0  6 14 15 18 22 25 29
 -11878034.34500  22108333.89600                  -9154827.12140  22108338.56140
  10764211.82700  25195272.14600                  15774736.15840  25195277.97140
  -3187077.24200  25502902.39600                  -2391864.67040  25502907.71740
  -9176680.45900  23385005.73200                  -7057430.45240  23385010.43240
  13895644.75000  24728246.52900                  10882189.72440  24728250.65440
  -7323186.80300  22887009.31100                  -5604125.02740  22887012.96740
 96  9  8  2  6  0.0060000  0  6 14 15 18 22 25 29
 -11859125.13600  22111932.06100                  -9140092.67740  22111936.76040
  10898765.16000  25220876.82600                  15879582.85040  25220883.02540
  -3230286.63200  25494679.81100                  -2425534.29940  25494685.81140
  -9197292.32500  23381083.50600                  -7073491.62440  23381087.97140
  14015554.71600  24751064.33400                  10975626.06340  24751068.52940
  -7314346.67100  22888691.53700                  -5597236.60640  22888695.15840
 96  9  8  2  6 30.0060000  0  6 14 15 18 22 25 29
 -11839716.92000  22115625.54500                  -9124969.39040  22115630.20940
  11033441.97600  25246505.44300                  15984525.80140  25246511.49040
  -3273448.58700  25486465.99000                  -2459166.94340  25486471.93240
  -9217410.84300  23377254.88900                  -7089168.36840  23377259.75240
  14135604.30800  24773909.54500                  11069171.19240  24773914.01040
  -7305358.43600  22890401.93600                  -5590232.78140  22890405.43940
 96  9  8  2  7  0.0060000  0  6 14 15 18 22 25 29
 -11819800.68300  22119415.32600                  -9109450.24640  22119420.08440
  11168233.09500  25272154.68600                  16089557.78940  25272160.97840
  -3316579.80300  25478258.20900                  -2492775.63240  25478263.20140
  -9237039.33800  23373519.81100                  -7104463.27840  23373524.60340
  14255786.23700  24796779.54500                  11162819.46340  24796782.76840
  -7296218.86800  22892141.08400                  -5583111.03340  22892144.65840
 96  9  8  2  7 30.0060000  0  6 14 15 18 22 25 29
 -11799355.04400  22123306.09200                  -9093518.58040  22123310.82640
  11303147.36700  25297828.06100                  16194685.77740  25297833.18240
  -3359674.26400  25470057.99800                  -2526355.69640  25470063.10740
  -9256139.75600  23369885.05300                  -7119346.69840  23369889.82240
  14376127.88900  24819678.31800                  11256592.18440  24819682.92440
  -7286906.22300  22893913.31100                  -5575854.40740  22893916.90840
 96  9  8  2  8  0.0060000  0  6 14 15 18 22 25 29
 -11778364.91900  22127300.28700                  -9077162.63640  22127304.85740
  11438175.46200  25323523.25600                  16299902.42940  25323529.18640
  -3402742.65000  25461862.12300                  -2559915.45040  25461866.85740
  -9274707.60600  23366351.88900                  -7133815.13340  23366356.90440
  14496616.86500  24842607.58400                  11350479.70840  24842611.21740
  -7277409.75400  22895720.30300                  -5568454.55440  22895724.00640
 96  9  8  2  8 30.0060000  0  6 14 15 18 22 25 29
 -11756819.32400  22131400.28700                  -9060373.86440  22131404.91640
  11573306.06200  25349237.91200                  16405198.94440  25349242.40040
  -3445784.25600  25453672.06800                  -2593454.33340  25453677.65840
  -9292753.71600  23362917.78700                  -7147877.01340  23362922.72140
  14617245.68100  24865562.67800                  11444476.19040  24865567.06140
  -7267724.59200  22897563.49000                  -5560907.66640  22897567.08840
 96  9  8  2  9  0.0060000  0  6 14 15 18 22 25 29
 -11734697.57900  22135609.93600                  -9043136.14040  22135614.54140
  11708551.62600  25374974.01400                  16510585.08240  25374979.61540
  -3488759.56100  25445493.94300                  -2626941.50740  25445499.32240
  -9310272.92000  23359583.67800                  -7161528.32140  23359588.56440
  14738023.02000  24888545.27900                  11538588.38640  24888548.84240
  -7257845.35400  22899443.44300                  -5553209.55540  22899446.98240
 96  9  8  2  9 30.0060000  0  6 14 15 18 22 25 29
 -11712020.02700  22139925.45900                  -9025465.32240  22139930.13540
  11843896.03700  25400729.98200                  16616048.22040  25400736.19340
  -3531670.76200  25437328.31100                  -2660378.75940  25437333.35040
  -9327278.75200  23356347.67800                  -7174779.59540  23356352.58840
  14858926.89200  24911552.83400                  11632799.21440  24911557.63940
  -7247795.92100  22901355.88900                  -5545378.81040  22901359.49840
 96  9  8  2 10  0.0060000  0  6 14 15 18 22 25 29
 -11688791.55800  22144345.67000                  -9007365.21840  22144350.26440
  11979340.18500  25426503.41200                  16721589.07640  25426509.75240
  -3574495.80000  25429178.52900                  -2693748.88740  25429184.10740
  -9343780.77400  23353207.65400                  -7187638.29140  23353212.45940
  14979947.50100  24934582.81800                  11727100.97240  24934587.11940
  -7237576.97100  22903300.31800                  -5537415.97440  22903303.91640
 96  9  8  2 10 30.0060000  0  6 14 15 18 22 25 29
 -11665029.66600  22148867.38900                  -8988849.46240  22148871.94740
  12114879.62500  25452296.58400                  16827204.19340  25452302.17440
  -3617222.47800  25421048.24800                  -2727042.35640  25421053.93240
  -9359778.42200  23350163.04500                  -7200103.96940  23350167.70940
  15101098.95100  24957636.46700                  11821504.69940  24957640.80340
  -7227207.66500  22905273.45100                  -5529335.98440  22905277.11940
 96  9  8  2 11  0.0060000  0  6 14 15 18 22 25 29
 -11640749.82100  22153487.74000                  -8969930.10140  22153492.39340
  12250517.60900  25478106.52900                  16932896.09540  25478112.40040
  -3659855.43600  25412935.08400                  -2760262.78540  25412939.56140
  -9375252.68000  23347218.48200                  -7212161.80540  23347223.36940
  15222387.61900  24980717.61500                  11916015.35640  24980721.44740
  -7216694.31800  22907274.04500                  -5521143.74740  22907277.74840
 96  9  8  2 11 30.0060000  0  6 14 15 18 22 25 29
 -11615953.98500  22158206.06800                  -8950608.66940  22158210.65040
  12386256.88300  25503938.07600                  17038666.90640  25503944.76840
  -3702410.68800  25404837.10700                  -2793422.69140  25404842.28740
  -9390191.23500  23344375.92000                  -7223802.22040  23344380.87740
  15343825.93300  25003826.44300                  12010642.60440  25003830.61540
  -7206014.59900  22909306.53700                  -5512821.87840  22909310.05340
 96  9  8  2 12  0.0060000  0  6 14 15 18 22 25 29
 -11590637.08700  22163023.78700                  -8930881.21640  22163028.31140
  12522089.91800  25529786.01400                  17144510.78840  25529792.04940
  -3744903.04300  25396751.26400                  -2826533.56740  25396756.47840
  -9404599.84100  23341633.95100                  -7235029.68340  23341638.77940
  15465424.25500  25026965.85000                  12105394.53340  25026968.87340
  -7195153.69200  22911373.11500                  -5504358.81840  22911376.70140
 96  9  8  2 12 30.0060000  0  6 14 15 18 22 25 29
 -11564792.79700  22167941.88900                  -8910742.81140  22167946.43640
  12658013.66300  25555650.92000                  17250425.33840  25555655.74840
  -3787356.96700  25388672.27900                  -2859614.50940  25388677.63540
  -9418473.17400  23338993.80300                  -7245840.04140  23338998.86540
  15587180.20800  25050134.77100                  12200269.31640  25050138.65040
  -7184103.24800  22913475.94300                  -5495748.06540  22913479.81140
 96  9  8  2 13  0.0060000  0  6 14 15 18 22 25 29
 -11538418.07300  22172960.77900                  -8890191.07640  22172965.35040
  12794014.81700  25581530.83400                  17356400.22940  25581537.03340
  -3829800.15300  25380595.67000                  -2892687.08540  25380600.19340
  -9431825.86800  23336453.13900                  -7256244.71940  23336458.22540
  15709057.50200  25073326.73200                  12295238.62040  25073329.82640
  -7172849.76300  22915617.55300                  -5486979.10940  22915621.19740
 96  9  8  2 13 30.0060000  0  6 14 15 18 22 25 29
 -11511482.66400  22178086.34200                  -8869202.44440  22178090.93640
  12930101.24400  25607427.90400                  17462441.56940  25607434.13940
  -3872209.76300  25372525.10700                  -2925733.46940  25372529.87740
  -9444644.59200  23334013.89600                  -7266233.31540  23334018.73640
  15831063.98800  25096544.31800                  12390308.62940  25096548.52540
  -7161374.60100  22917801.05300                  -5478037.41340  22917804.75640
 96  9  8  2 14  0.0060000  0  6 14 15 18 22 25 29
 -11483995.92000  22183316.87300                  -8847784.20440  22183321.43240
  13066260.12900  25633338.03700                  17568539.34140  25633344.16640
  -3914584.21900  25364461.60700                  -2958752.51140  25364466.76440
  -9456936.40100  23331674.60700                  -7275811.32440  23331679.45940
  15953185.23800  25119783.01400                  12485468.03640  25119787.15040
  -7149711.74600  22920020.46700                  -5468949.46640  22920024.05340
 96  9  8  2 14 30.0060000  0  6 14 15 18 22 25 29
 -11455954.29100  22188653.22500                  -8825933.57940  22188657.80740
  13202495.69800  25659262.01400                  17674696.89140  25659268.63540
  -3956909.02200  25356407.42800                  -2991732.83740  25356412.33840
  -9468679.02900  23329440.21700                  -7284961.40240  23329445.22140
  16075411.49300  25143042.35000                  12580709.26440  25143046.55740
  -7137876.26000  22922272.72500                  -5459727.00440  22922276.25240
 96  9  8  2 15  0.0060000  0  6 14 15 18 22 25 29
 -11427366.26600  22194093.13100                  -8803657.19440  22194097.68940
  13338797.73800  25685200.02900                  17780906.25440  25685206.04140
  -3999178.10900  25348363.49800                  -3024669.76440  25348368.30340
  -9479876.85200  23327309.16200                  -7293686.95640  23327314.06140
  16197748.81200  25166321.81100                  12676037.02840  25166325.45540
  -7125888.87100  22924553.64600                  -5450386.17340  22924557.36140
 96  9  8  2 15 30.0060000  0  6 14 15 18 22 25 29
 -11398234.66900  22199636.77900                  -8780957.23940  22199641.36140
  13475169.17300  25711151.06100                  17887169.65340  25711157.23640
  -4041379.36200  25340333.39600                  -3057553.82240  25340337.97840
  -9490518.61300  23325283.88100                  -7301979.21740  23325288.72140
  16320216.71300  25189626.57600                  12771466.54940  25189630.15040
  -7113758.09900  22926862.27900                  -5440933.62140  22926865.86540
 96  9  8  2 16  0.0060000  0  6 14 15 18 22 25 29
 -11368569.08100  22205281.91200                  -8757841.18540  22205286.49440
  13611602.49500  25737113.13100                  17993481.27940  25737119.60040
  -4083518.95000  25332314.37300                  -3090389.81840  25332319.08440
  -9500603.54200  23323364.88900                  -7309837.57840  23323369.38940
  16442804.12000  25212953.90400                  12866989.20440  25212958.10040
  -7101490.13900  22929196.70100                  -5431374.16840  22929200.29940
 96  9  8  2 16 30.0060000  0  6 14 15 18 22 25 29
 -11338369.80100  22211028.55300                  -8734309.27740  22211033.22840
  13748086.75100  25763085.80300                  18099832.62440  25763091.83840
  -4125603.69900  25324305.85000                  -3123183.10840  25324310.23240
  -9510139.63400  23321550.33400                  -7317268.27840  23321555.08040
  16565490.48700  25236301.77100                  12962588.94040  25236305.72140
  -7089074.98300  22931559.34200                  -5421700.02240  22931563.01040
 96  9  8  2 17  0.0060000  0  6 14 15 18 22 25 29
 -11307623.07700  22216879.50600                  -8710350.78840  22216884.13540
  13884628.15000  25789067.93600                  18206228.46940  25789073.51440
  -4167620.24000  25316310.38900                  -3155923.24040  25316314.79540
  -9519135.22900  23319838.51400                  -7324277.81140  23319843.30740
  16688286.04300  25259668.20100                  13058273.79940  25259672.67840
  -7076478.03500  22933956.33400                  -5411884.21940  22933959.93240
 96  9  8  2 17 30.0060000  0  6 14 15 18 22 25 29
 -11276317.06700  22222837.02100                  -8685956.49240  22222841.51040
  14021228.08300  25815061.76400                  18312669.94640  25815068.43240
  -4209552.22900  25308330.99800                  -3188597.47540  25308335.96740
  -9527589.41000  23318229.64600                  -7330865.46140  23318234.36940
  16811175.48300  25283053.60700                  13154031.79240  25283057.61540
  -7063678.62500  22936392.01400                  -5401910.64640  22936395.60040
 96  9  8  2 18  0.0060000  0  6 14 15 18 22 25 29
 -11244436.40900  22228903.35000                  -8661114.41440  22228908.04940
  14157891.86300  25841068.34200                  18419161.16440  25841074.48240
  -4251377.81500  25300371.77100                  -3221188.80740  25300376.82240
  -9535493.07400  23316725.56800                  -7337024.13840  23316730.12740
  16934163.91600  25306456.74800                  13249866.94840  25306460.13540
  -7050655.32000  22938870.26400                  -5391762.61940  22938873.76840
 96  9  8  2 18 30.0060000  0  6 14 15 18 22 25 29
 -11212008.72100  22235074.37300                  -8635846.07940  22235078.86140
  14294598.25100  25867083.11500                  18525685.58240  25867090.30340
  -4293110.14300  25292430.31800                  -3253707.49140  25292435.99040
  -9542877.33500  23315320.48200                  -7342778.08840  23315325.15840
  17057239.14600  25329877.77900                  13345769.70140  25329881.78740
  -7037403.18100  22941392.02100                  -5381436.27940  22941395.44340
 96  9  8  2 19  0.0060000  0  6 14 15 18 22 25 29
 -11179032.84300  22241349.66200                  -8610150.58340  22241354.23240
  14431348.23900  25893105.73200                  18632243.97840  25893111.46340
  -4334746.37000  25284507.57600                  -3286151.27040  25284513.15440
  -9549737.08900  23314015.02900                  -7348123.33140  23314019.67040
  17180422.73300  25353318.48200                  13441756.92640  25353322.19740
  -7023925.14400  22943956.81100                  -5370933.91840  22943960.35040
 96  9  8  2 19 30.0060000  0  6 14 15 18 22 25 29
 -11145518.48100  22247727.06100                  -8584035.49840  22247731.66640
  14568137.55900  25919136.06100                  18738833.01040  25919141.94340
  -4376297.33300  25276600.14600                  -3318528.63640  25276605.32640
  -9556056.87100  23312812.60700                  -7353047.81640  23312816.92040
  17303714.95400  25376780.43600                  13537828.78540  25376784.91240
  -7010240.50000  22946560.90400                  -5360270.55640  22946564.59640
 96  9  8  2 20  0.0060000  0  6 14 15 18 22 25 29
 -11111465.94000  22254207.00600                  -8557501.06040  22254211.64640
  14704969.42500  25945175.18600                  18845455.20340  25945181.42040
  -4417779.74200  25268706.12300                  -3350852.57140  25268711.44340
  -9561821.11200  23311715.91200                  -7357539.41040  23311720.55340
  17427125.75300  25400265.38100                  13633993.02240  25400269.85740
  -6996355.04000  22949203.20900                  -5349450.71640  22949206.90040
 96  9  8  2 20 30.0060000  0  6 14 15 18 22 25 29
 -11076874.61700  22260789.51400                  -8530546.78240  22260794.14340
  14841832.13400  25971219.20100                  18952101.45540  25971225.51840
  -4459220.30400  25260820.35000                  -3383143.89640  25260824.72140
  -9567025.68000  23310724.88100                  -7361594.89240  23310729.45140
  17550639.60500  25423768.60000                  13730237.59340  25423772.77140
  -6982294.94100  22951878.64600                  -5338494.79240  22951882.27940
 96  9  8  2 21  0.0070000  0  6 14 15 18 22 25 29
 -11041729.18200  22267477.40900                  -8503160.72540  22267481.95640
  14978726.01700  25997268.41700                  19058771.94640  25997274.14740
  -4500644.37300  25252937.80800                  -3415422.36040  25252942.48340
  -9571643.14200  23309846.30000                  -7365192.89140  23309851.08140
  17674242.88100  25447289.19800                  13826551.85940  25447293.40540
  -6968075.48700  22954584.52600                  -5327414.69440  22954588.21840
 96  9  8  2 21 30.0070000  0  6 14 15 18 22 25 29
 -11006026.07300  22274271.54200                  -8475340.12640  22274276.07740
  15115644.59800  26023323.47200                  19165461.70640  26023330.47240
  -4542049.77600  25245058.87000                  -3447686.30140  25245064.43640
  -9575656.76900  23309082.50300                  -7368320.37440  23309087.22640
  17797924.56000  25470826.04200                  13922927.19440  25470829.89740
  -6953676.44900  22957324.58100                  -5316194.66140  22957328.23740
 96  9  8  2 22  0.0070000  0  6 14 15 18 22 25 29
 -10969743.53200  22281175.80800                  -8447068.02040  22281180.35440
  15252600.57400  26049385.68300                  19272180.62440  26049391.02640
  -4583418.01900  25237186.76100                  -3479921.26940  25237191.76540
  -9579060.79300  23308434.60400                  -7370972.83340  23308439.17540
  17921697.07000  25494378.93300                  14019373.32240  25494382.81140
  -6939070.57900  22960103.74500                  -5304813.45440  22960107.16740
 96  9  8  2 22 30.0070000  0  6 14 15 18 22 25 29
 -10932896.60700  22288187.43300                  -8418356.13540  22288192.00340
  15389570.61000  26075450.92500                  19378910.45240  26075455.82340
  -4624756.63500  25229320.14400                  -3512133.16540  25229325.13640
  -9581882.32200  23307897.96400                  -7373171.40540  23307902.71040
  18045542.11400  25517946.37000                  14115875.97140  25517950.24940
  -6924263.76300  22962921.59700                  -5293275.66940  22962925.17140
 96  9  8  2 23  0.0070000  0  6 14 15 18 22 25 29
 -10895499.59800  22295303.74500                  -8389215.60540  22295308.45640
  15526556.48600  26101516.37800                  19485652.66940  26101522.02640
  -4666043.14700  25221463.33900                  -3544304.45940  25221468.14440
  -9584134.06100  23307469.23700                  -7374925.98740  23307473.86640
  18169474.83300  25541527.99500                  14212446.92740  25541531.61640
  -6909247.42000  22965779.19800                  -5281574.61540  22965782.86640
 96  9  8  2 23 30.0070000  0  6 14 15 18 22 25 29
 -10857557.16000  22302524.36200                  -8359650.07540  22302529.01540
  15663551.29900  26127585.91700                  19592401.84240  26127591.81140
  -4707248.70300  25213622.73700                  -3576412.65540  25213627.70640
  -9585851.60700  23307142.51100                  -7376264.31440  23307147.36240
  18293502.55000  25565130.22200                  14309091.89440  25565134.75740
  -6894052.71500  22968670.60400                  -5269734.57540  22968674.27240
 96  9  8  2 24  0.0070000  0  6 14 15 18 22 25 29
 -10819062.09700  22309849.66700                  -8329653.92640  22309854.24940
  15800554.69500  26153657.43300                  19699157.63540  26153664.08940
  -4748362.36600  25205798.42500                  -3608449.24640  25205802.89040
  -9587030.72600  23306918.15100                  -7377183.08940  23306922.89740
  18417615.73800  25588749.72900                  14405803.45240  25588754.18340
  -6878702.41900  22971591.65100                  -5257773.29240  22971595.19040
 96  9  8  2 24 30.0070000  0  6 14 15 18 22 25 29
 -10780015.61900  22317279.77600                  -8299228.09540  22317284.37040
  15937563.79600  26179729.59700                  19805917.90840  26179737.71040
  -4789385.76800  25197992.12000                  -3640415.51840  25197997.64040
  -9587653.62300  23306799.45600                  -7377668.44340  23306804.17940
  18541813.55200  25612382.97200                  14502580.96940  25612386.40540
  -6863208.25600  22974540.11200                  -5245699.90840  22974543.71040
 96  9  8  2 25  0.0070000  0  6 14 15 18 22 25 29
 -10740412.56700  22324815.89400                  -8268368.57340  22324820.58140
  16074580.22400  26205802.26900                  19912683.94040  26205808.79640
  -4830317.03700  25190203.35400                  -3672309.99740  25190207.53840
  -9587704.60800  23306789.88600                  -7377708.15340  23306794.53840
  18666106.58800  25636034.27600                  14599432.72140  25636039.08140
  -6847572.72100  22977515.38600                  -5233516.36340  22977519.03040
 96  9  8  2 25 30.0070000  0  6 14 15 18 22 25 29
 -10700224.59700  22332463.37000                  -8237053.28640  22332468.11640
  16211613.64200  26231879.69800                  20019463.19940  26231886.58140
  -4871162.57400  25182430.46400                  -3704137.67040  25182434.40140
  -9587149.60100  23306895.51100                  -7377275.65640  23306900.05840
  18790499.93100  25659706.30800                  14696362.59240  25659710.18640
  -6831760.13200  22980524.61200                  -5221194.84840  22980528.18640
 96  9  8  2 26  0.0070000  0  6 14 15 18 22 25 29
 -10659475.60700  22340217.98700                  -8205300.83640  22340222.66340
  16348639.34200  26257955.84700                  20126236.42440  26257960.66340
  -4911970.07300  25174664.97900                  -3735935.71740  25174669.89040
  -9585988.04400  23307116.56500                  -7376370.52540  23307121.30040
  18914971.11800  25683392.80800                  14793353.11840  25683396.68640
  -6815750.76700  22983571.15900                  -5208720.00740  22983574.75740
 96  9  8  2 26 30.0070000  0  6 14 15 18 22 25 29
 -10618152.04900  22348081.52600                  -8173100.65940  22348086.26140
  16485673.05400  26284031.22200                  20233015.95640  26284036.09740
  -4952718.84900  25166911.18300                  -3767687.98240  25166915.80040
  -9584213.51200  23307454.27600                  -7374987.75140  23307458.62440
  19039552.68900  25707099.10400                  14890429.67440  25707103.95640
  -6799513.48500  22986660.71400                  -5196067.55640  22986664.22940
 96  9  8  2 27  0.0070000  0  6 14 15 18 22 25 29
 -10576267.63800  22356051.96400                  -8140463.45340  22356056.53440
  16622696.44000  26310106.08100                  20339787.36540  26310111.34340
  -4993426.22300  25159164.46400                  -3799407.98440  25159168.97640
  -9581857.88000  23307902.16700                  -7373152.16740  23307906.69040
  19164218.39400  25730822.87800                  14987571.76540  25730827.60140
  -6783062.57700  22989791.30800                  -5183248.65240  22989794.88240
 96  9  8  2 27 30.0070000  0  7  4 14 15 18 22 25 29
                  26960278.37800
 -10533817.74100  22364129.81500                  -8107385.60640  22364134.33940
  16759715.92100  26336179.69000                  20446555.77040  26336186.38240
  -5034074.80800  25151429.19000                  -3831082.17340  25151434.00740
  -9578918.19000  23308461.62000                  -7370861.48340  23308466.31940
  19288958.39100  25754560.84700                  15084771.75940  25754565.73340
  -6766385.52900  22992964.69800                  -5170253.53540  22992968.33140
 96  9  8  2 28  0.0070000  0  7  4 14 15 18 22 25 29
      -543.99500  26960171.94800
 -10490815.97300  22372312.88600                  -8073877.73240  22372317.44440
  16896724.87200  26362252.24500                  20553315.96940  26362258.01140
  -5074648.59700  25143708.65100                  -3862698.08640  25143713.89040
  -9575406.81000  23309129.91700                  -7368125.31940  23309134.41740
  19413765.26100  25778309.01100                  15182023.90340  25778312.57340
  -6749506.78000  22996176.72200                  -5157101.25540  22996180.41340
 96  9  8  2 28 30.0070000  0  7  4 14 15 18 22 25 29
      -642.90300  26960153.94800                        -0.40950  26960159.81940
 -10447285.87900  22380596.21400                  -8039958.17040  22380600.81940
  17033703.49100  26388319.86200                  20660052.49140  26388325.11240
  -5115144.73100  25136001.97900                  -3894253.47740  25136006.31540
  -9571336.80100  23309904.30800                  -7364953.85940  23309908.93640
  19538618.33200  25802066.22200                  15279312.02340  25802071.03840
  -6732460.80700  22999420.40100                  -5143818.66240  22999423.98740
 96  9  8  2 29  0.0070000  0  7  4 14 15 18 22 25 29
      -255.34800  26960227.58100                       301.64840  26960231.34340
 -10403202.31800  22388985.27600                  -8005607.34040  22388989.87040
  17170670.96700  26414382.87000                  20766780.36140  26414389.42140
  -5155537.86500  25128315.43300                  -3925728.60840  25128319.73340
  -9566677.11100  23310791.01900                  -7361322.90740  23310795.51940
  19663535.17600  25825838.29200                  15376649.82740  25825843.34340
  -6715215.60500  23002701.86200                  -5130380.82140  23002705.50740
 96  9  8  2 29 30.0070000  0  7  4 14 15 18 22 25 29
       621.40800  26960393.58900                       984.79440  26960398.11240
 -10358578.90500  22397476.70600                  -7970835.84840  22397481.18340
  17307615.22200  26440442.14400                  20873490.13640  26440448.44840
  -5195838.86900  25120646.36200                  -3957131.95640  25120650.26540
  -9561423.90500  23311790.85400                  -7357229.48240  23311795.41340
  19788516.39300  25849621.90100                  15474037.76840  25849627.14040
  -6697777.70000  23006020.40900                  -5116792.84540  23006024.06540
 96  9  8  2 30  0.0070000  0  7  4 14 15 18 22 25 29
      1983.10500  26960652.08100                      2045.93140  26960655.79640
 -10313413.47400  22406071.40900                  -7935642.00840  22406075.97940
  17444532.28900  26466496.33900                  20980178.71440  26466502.59740
  -5236058.33700  25112992.67500                  -3988471.76540  25112997.67940
  -9555573.87900  23312904.06500                  -7352670.99740  23312908.69440
  19913568.01200  25873419.73700                  15571480.61140  25873423.13640
  -6680158.00300  23009373.19800                  -5103063.20140  23009376.98340
 96  9  8  2 30 30.0070000  0  7  4 14 15 18 22 25 29
      3843.89600  26961008.10400                      3495.88240  26961015.22240
 -10267678.01800  22414774.51100                  -7900004.00040  22414779.14040
  17581424.32300  26492545.90900                  21086847.80940  26492553.80040
  -5276203.35700  25105353.22900                  -4019753.56740  25105358.08140
  -9549120.82300  23314131.89400                  -7347642.61740  23314136.26540
  20038687.87500  25897229.22200                  15668976.59340  25897233.44040
  -6662338.02100  23012764.15100                  -5089177.48740  23012767.84340
 96  9  8  2 31  0.0070000  0  7  4 14 15 18 22 25 29
      6214.92900  26961456.91700                      5343.47440  26961460.23340
 -10221367.74300  22423587.15100                  -7863918.07540  22423591.75740
  17718279.69400  26518587.82300                  21193488.32340  26518592.95640
  -5316302.20900  25097723.01100                  -4050999.38140  25097726.86640
  -9542076.99500  23315472.34700                  -7342153.90040  23315476.96440
  20163857.50800  25921047.91700                  15766511.37540  25921052.53440
  -6644317.64200  23016193.26900                  -5075135.62740  23016196.84340
 96  9  8  2 31 30.0070000  0  7  4 14 15 18 22 25 29
      9098.72600  26962007.65900                      7590.60340  26962009.96840
 -10174476.48000  22432510.04200                  -7827379.42040  22432514.72940
  17855095.64500  26544623.95600                  21300097.95940  26544630.81540
  -5356360.56100  25090099.69800                  -4082213.65040  25090104.76140
  -9534446.89500  23316924.32300                  -7336208.34140  23316928.82340
  20289070.23200  25944874.96400                  15864079.75440  25944879.64040
  -6626101.46300  23019659.92500                  -5060941.19640  23019663.46440
 96  9  8  2 32  0.0070000  0  7  4 14 15 18 22 25 29
     12505.97700  26962653.69000                     10245.61040  26962660.47640
 -10126980.39400  22441548.50300                  -7790369.47940  22441553.03840
  17991879.09700  26570652.82300                  21406682.44240  26570659.12840
  -5396357.18400  25082488.92500                  -4113379.80740  25082493.83540
  -9526231.92300  23318487.59700                  -7329807.03940  23318492.20240
  20414331.16500  25968711.00300                  15961685.65240  25968714.31940
  -6607672.35400  23023166.78400                  -5046580.84040  23023170.52240
 96  9  8  2 32 30.0070000  0  7  4 14 15 18 22 25 29
     16431.14200  26963401.75300                     13304.23040  26963407.84740
 -10078893.43000  22450698.94800                  -7752899.10940  22450703.58940
  18128612.16400  26596672.21400                  21513227.61740  26596678.30840
  -5436304.14500  25074887.14400                  -4144507.26340  25074891.85440
  -9517448.01300  23320159.00300                  -7322962.41540  23320163.49140
  20539629.73700  25992555.58900                  16059320.89940  25992559.21040
  -6589036.81000  23026712.97200                  -5032059.62940  23026716.56940
 96  9  8  2 33  0.0070000  0  8  4 14 15 18 19 22 25 29
     20870.70000  26964246.79200                     16763.66840  26964253.30840
 -10030224.98200  22459959.85400                  -7714975.64140  22459964.51940
  18265305.11100  26622683.89400                  21619741.62040  26622690.03440
  -5476178.63800  25067298.90100                  -4175578.25840  25067303.63640
    -43065.95310  26959679.87800
  -9508082.64200  23321941.19800                  -7315664.70140  23321945.83940
  20664990.72000  26016410.37800                  16157004.78340  26016413.68340
  -6570191.38700  23030299.55800                  -5017374.87740  23030303.12040
 96  9  8  2 33 30.0070000  0  8  4 14 15 18 19 22 25 29
     25809.94200  26965187.08900                     20612.40440  26965194.89740
  -9980979.49700  22469331.25300                  -7676602.53440  22469335.89440
  18401954.80400  26648688.16700                  21726221.78440  26648693.33540
  -5515959.66800  25059728.92500                  -4206576.42740  25059733.23740
    -99109.02800  26949015.80000
  -9498139.24900  23323833.29200                  -7307916.58240  23323837.75740
  20790414.53300  26040277.73700                  16254737.61840  26040281.27640
  -6551152.51600  23033922.08100                  -5002539.38840  23033925.63240
 96  9  8  2 34  0.0070000  0  8  4 14 15 18 19 22 25 29
     31234.54600  26966220.00300                     24839.39240  26966225.17140
  -9931175.36000  22478808.76100                  -7637794.11140  22478813.37840
  18538549.96800  26674681.36200                  21832659.62140  26674687.69040
  -5555661.37400  25052173.86200                  -4237512.78540  25052178.96040
   -154991.59000  26938382.90100                     -8696.23350  26938387.57740
  -9487610.33400  23325836.70600                  -7299712.21040  23325841.37040
  20915889.81800  26064153.97900                  16352510.60540  26064159.78040
  -6531933.56900  23037579.47900                  -4987563.58340  23037582.98340
 96  9  8  2 34 30.0070000  0  8  4 14 15 18 19 22 25 29
     37132.32100  26967342.67500                     29435.10840  26967346.76540
  -9880817.13600  22488391.55000                  -7598553.93340  22488396.15540
  18675091.81400  26700664.65100                  21939055.56940  26700669.19840
  -5595277.92800  25044635.43300                  -4268382.80340  25044639.80440
   -210707.89900  26927779.32300                    -52111.54040  26927782.87440
  -9476480.01400  23327954.80800                  -7291039.21140  23327959.33140
  21041420.26800  26088040.92500                  16450326.55040  26088045.49540
  -6512535.43400  23041270.87000                  -4972448.14740  23041274.32740
 96  9  8  2 35  0.0070000  0  8  4 14 15 18 19 22 25 29
     43503.54400  26968553.25300                     34399.70540  26968558.53840
  -9829906.12100  22498079.64400                  -7558883.01440  22498084.21440
  18811573.68900  26726635.27600                  22045405.12240  26726642.24140
  -5634804.30400  25037113.59700                  -4299182.54340  25037118.06140
   -266268.86300  26917205.36200                    -95405.73940  26917211.05840
  -9464746.28200  23330187.50300                  -7281896.02340  23330192.07340
  21166988.58100  26111935.42500                  16548171.99840  26111939.76140
  -6492958.89300  23044996.04200                  -4957193.69040  23044999.45240
 96  9  8  2 35 30.0070000  0  8  4 14 15 18 19 22 25 29
     50365.76100  26969859.32300                     39746.89240  26969863.63640
  -9778438.13600  22507873.73700                  -7518778.09440  22507878.40140
  18947990.75700  26752595.58900                  22151704.15040  26752601.80040
  -5674245.98700  25029608.05800                  -4329916.27740  25029612.64040
   -321664.50900  26906664.88600                   -138570.96940  26906670.03040
  -9452402.58200  23332536.54200                  -7272277.53640  23332541.01940
  21292584.41200  26135835.12000                  16646038.87340  26135837.79240
  -6473206.75800  23048754.80800                  -4941802.40240  23048758.34740
 96  9  8  2 36  0.0070000  0  8  4 14 15 18 19 22 25 29
     57729.13100  26971259.71400                     45484.56840  26971262.85440
  -9726419.47000  22517772.70600                  -7478244.07040  22517777.24140
  19084338.60000  26778541.25300                  22257949.22740  26778547.14740
  -5713608.37300  25022117.47900                  -4360588.24840  25022122.19040
   -376899.94900  26896155.03400                   -181611.56240  26896157.72940
  -9439435.35300  23335004.04200                  -7262173.17940  23335008.56540
  21418217.45300  26159742.31500                  16743934.74540  26159746.07740
  -6453261.81800  23052550.07300                  -4926260.87540  23052553.60140
 96  9  8  2 36 30.0070000  0  8  4 14 15 18 19 22 25 29
     65633.37000  26972765.42500                     51643.75040  26972769.87840
  -9673834.95500  22527779.08900                  -7437269.12540  22527783.62440
  19220630.17000  26804476.90100                  22364150.38540  26804481.58940
  -5752863.85300  25014647.47900                  -4391176.89740  25014652.41340
   -431985.83100  26885671.33900                   -224535.63040  26885675.49940
  -9425830.04700  23337593.04200                  -7251571.62040  23337597.63640
  21543901.99800  26183660.01100                  16841870.73240  26183666.81940
  -6433104.69300  23056385.87000                  -4910554.00940  23056389.49140
 96  9  8  2 37  0.0070000  0  8  4 14 15 18 19 22 25 29
     74086.13600  26974372.91700                     58230.37040  26974377.27640
  -9620701.10300  22537890.15100                  -7395866.12340  22537894.71040
  19356854.84100  26830398.20600                  22470299.45340  26830404.40540
  -5792030.37000  25007194.42500                  -4421696.23440  25007199.40540
   -486940.62800  26875213.39400                   -267357.41040  26875219.62840
  -9411600.16900  23340301.12800                  -7240483.38540  23340305.81540
  21669621.94800  26207583.08100                  16939834.34840  26207588.48340
  -6412753.33000  23060258.55800                  -4894695.79640  23060262.09740
 96  9  8  2 37 30.0070000  0  8  4 14 15 18 19 22 25 29
     83068.49500  26976083.54200                     65229.59340  26976086.34340
  -9567036.84400  22548101.98700                  -7354049.81340  22548106.59340
  19493000.49800  26856308.61200                  22576386.95040  26856314.71840
  -5831125.88300  24999754.97900                  -4452160.24640  24999759.59740
   -541779.41700  26864778.12000                   -310088.93140  26864782.70240
  -9396761.61100  23343124.52600                  -7228920.85240  23343129.05040
  21795371.31000  26231512.16700                  17037820.94040  26231517.26540
  -6392218.13600  23064166.34700                  -4878694.33540  23064169.86240
 96  9  8  2 38  0.0070000  0  8  4 14 15 18 19 22 25 29
     92582.87800  26977894.85400                     72643.40340  26977900.79640
  -9512814.69200  22558420.08900                  -7311798.78640  22558424.68340
  19629087.91300  26882203.76900                  22682429.03440  26882210.20240
  -5870129.85200  24992332.58900                  -4482552.92340  24992336.92540
   -596484.02300  26854367.58100                   -352715.81840  26854372.15140
  -9381293.62000  23346068.05000                  -7216867.85540  23346072.66740
  21921174.45200  26255452.67500                  17135849.29040  26255455.08940
  -6371466.58100  23068115.12000                  -4862524.29140  23068118.64740
 96  9  8  2 38 30.0070000  0  8  4 14 15 18 19 22 25 29
    102603.34100  26979799.67500                     80451.53640  26979803.68340
  -9458031.96000  22568844.99500                  -7269110.93440  22568849.56540
  19765098.62700  26908087.91700                  22788411.35840  26908094.06940
  -5909068.73800  24984922.46400                  -4512894.88040  24984926.81140
   -651057.79400  26843982.10400                   -395240.81240  26843990.95640
  -9365226.45100  23349125.62800                  -7204347.96540  23349130.12840
  22047003.99900  26279396.58900                  17233898.32140  26279401.94440
  -6350514.80000  23072102.26900                  -4846198.21440  23072105.77240
 96  9  8  2 39  0.0070000  0  8  4 14 15 18 19 22 25 29
    113101.74900  26981796.80000                     88632.17240  26981802.55440
  -9402675.28500  22579378.97200                  -7225975.86340  22579383.48340
  19901025.92700  26933952.03400                  22894328.68040  26933958.18640
  -5947955.65900  24977522.82300                  -4543196.34740  24977527.37040
   -705482.87700  26833626.33900                   -437649.92340  26833633.38640
  -9348562.01100  23352296.90900                  -7191362.67040  23352301.43340
  22172866.41800  26303348.14400                  17331972.93940  26303354.27240
  -6329349.74600  23076129.62000                  -4829705.94940  23076133.12440
 96  9  8  2 39 30.0070000  0  8  4 14 15 18 19 22 25 29
    124087.77700  26983890.55000                     97192.69940  26983894.52240
  -9346717.27200  22590027.33900                  -7182372.21840  22590032.00340
  20036876.45500  26959802.93300                  23000186.21140  26959810.40140
  -5986775.14600  24970135.72200                  -4573445.26940  24970139.84740
   -759748.40200  26823301.00300                   -479934.66640  26823306.47640
  -9331276.87400  23355585.94800                  -7177893.71440  23355590.62440
  22298784.03100  26327310.16700                  17430090.57540  26327314.32740
  -6307940.84500  23080203.55800                  -4813023.67140  23080206.97940
 96  9  8  2 40  0.0070000  0  8  4 14 15 18 19 22 25 29
    135554.44800  26986069.41700                    106127.77940  26986073.90540
  -9290169.10100  22600788.26100                  -7138308.70540  22600792.84340
  20172627.80100  26985636.37000                  23105966.37540  26985644.83540
  -6025546.86500  24962757.64400                  -4603656.95840  24962761.39440
   -813872.36400  26812999.85400                   -522109.14640  26813005.45640
  -9313379.69200  23358991.40900                  -7163947.84140  23358995.82740
  22424738.79700  26351279.11200                  17528237.12140  26351282.14740
  -6286307.82900  23084320.41700                  -4796166.76740  23084323.90940
 96  9  8  2 40 30.0070000  0  8  4 14 15 18 19 22 25 29
    147530.95500  26988348.76900                    115460.08940  26988353.24540
  -9233038.87300  22611659.80800                  -7093791.64340  22611664.39040
  20308280.67100  27011450.19800                  23211669.89840  27011455.56540
  -6064263.89700  24955389.96400                  -4633826.05240  24955394.53440
   -867847.53800  26802729.83900                   -564167.66040  26802736.34340
  -9294864.67000  23362514.80800                  -7149520.53740  23362519.19040
  22550738.57400  26375255.55800                  17626418.74040  26375260.53840
  -6264451.00600  23088479.49500                  -4779135.46340  23088483.17540
 96  9  8  2 41  0.0070000  0  8  4 14 15 18 19 22 25 29
    160026.84400  26990726.40100                    125197.18540  26990729.85840
  -9175349.50800  22622637.65900                  -7048838.89240  22622642.34740
  20443840.54900  27037245.40100                  23317300.90440  27037253.47940
  -6102900.74400  24948037.62800                  -4663932.65840  24948042.21040
   -921678.06700  26792485.79200                   -606113.40540  26792494.69040
  -9275727.14600  23366156.69800                  -7134608.16540  23366161.15140
  22676794.64700  26399242.59700                  17724644.26740  26399248.10440
  -6242382.68400  23092678.91700                  -4761939.36040  23092682.53840
 96  9  8  2 41 30.0070000  0  8  4 14 15 18 19 22 25 29
    173066.24300  26993207.74500                    135357.74240  26993213.85140
  -9117104.99900  22633721.17500                  -7003453.56640  22633725.87440
  20579318.33800  27063026.56500                  23422867.93440  27063031.69840
  -6141431.74800  24940705.43300                  -4693956.78840  24940709.73340
   -975352.18400  26782270.87000                   -647937.31240  26782276.96440
  -9255967.81500  23369916.68300                  -7119211.26640  23369921.08940
  22802905.73000  26423241.32300                  17822912.66440  26423245.05040
  -6220111.30100  23096917.18300                  -4744585.03340  23096920.86240
 96  9  8  2 42  0.0070000  0  8  4 14 15 18 19 22 25 29
    186625.61900  26995787.79200                    145923.50340  26995793.85140
  -9058321.83400  22644907.10400                  -6957648.49940  22644911.58140
  20714701.28600  27088789.47900                  23528361.13140  27088793.15940
  -6179864.84900  24933392.08900                  -4723904.63640  24933396.92940
  -1028865.91500  26772087.34700                   -689636.26840  26772092.97240
  -9235611.12300  23373790.52600                  -7103348.88840  23373794.78040
  22929047.86700  26447244.61200                  17921205.24040  26447246.90940
  -6197658.15500  23101189.66700                  -4727089.06440  23101193.34740
 96  9  8  2 42 30.0070000  0  8  4 14 15 18 19 22 25 29
    200689.40100  26998464.45600                    156882.22440  26998467.91340
  -8998991.64600  22656197.37800                  -6911417.17940  22656201.90140
  20849988.10800  27114534.08900                  23633779.38240  27114542.49540
  -6218184.76500  24926099.71400                  -4753764.29040  24926104.21440
  -1082198.07600  26761938.77600                   -731193.71540  26761943.68640
  -9214658.26700  23377777.69000                  -7087021.96840  23377781.97940
  23055214.85300  26471253.22200                  18019517.16840  26471257.30040
  -6175022.20000  23105497.37000                  -4709450.65440  23105500.93340
 96  9  8  2 43  0.0070000  0  8  4 14 15 18 19 22 25 29
    215239.09100  27001233.15100                    168219.66740  27001238.92940
  -8939102.98000  22667593.77600                  -6864750.67740  22667598.42940
  20985167.18200  27140257.02600                  23739113.65640  27140262.25340
  -6256400.63400  24918827.36200                  -4783542.87040  24918831.76940
  -1135352.26700  26751825.11200                   -772612.42240  26751830.09340
  -9193111.45200  23381877.79200                  -7070232.22440  23381882.09340
  23181388.48500  26495264.46400                  18117834.30240  26495268.75340
  -6152201.78800  23109839.81500                  -4691668.50440  23109843.37840
 96  9  8  2 43 30.0080000  0  7  4 14 18 19 22 25 29
    230283.34400  27004097.66400                    179942.49840  27004101.18040
  -8878620.78200  22679103.33600                  -6817621.69040  22679107.96540
  -6294523.56300  24911572.86700                  -4813249.04040  24911577.14440
  -1188306.41200  26741747.68000                   -813875.31840  26741753.11740
  -9170951.29700  23386094.62500                  -7052964.54540  23386099.12540
  23307570.78900  26519276.18700                  18216158.18240  26519280.01940
  -6129160.24200  23114224.25000                  -4673714.04240  23114227.62540
 96  9  8  2 44  0.0080000  0  7  4 14 18 19 22 25 29
    245821.69400  27007053.14100                    192050.25540  27007055.41440
  -8817541.13500  22690726.42200                  -6770027.16140  22690731.08640
  -6332567.47900  24904333.25800                  -4842893.63040  24904337.95740
  -1241056.52700  26731710.39100                   -854979.20940  26731717.59040
  -9148161.49400  23390431.41400                  -7035206.23940  23390435.79740
  23433758.63100  26543289.76600                  18314486.31440  26543295.03940
  -6105879.93300  23118654.35200                  -4655573.53340  23118657.92640
 96  9  8  2 44 30.0080000  0  7  4 14 18 19 22 25 29
    261859.06600  27010103.64800                    204546.92140  27010108.71140
  -8755872.18800  22702461.51600                  -6721973.44140  22702466.12140
  -6370541.63600  24897107.23400                  -4872483.87140  24897111.67640
  -1293632.85600  26721703.12500                   -895947.72040  26721709.98440
  -9124734.78300  23394889.39100                  -7016951.61040  23394894.14840
  23559954.41300  26567304.10900                  18412820.70740  26567308.26940
  -6082356.06200  23123131.05500                  -4637243.25640  23123134.62940
 96  9  8  2 45  0.0080000  0  7  4 14 18 19 22 25 29
    278406.99700  27013253.78900                    217441.41740  27013258.00840
  -8693626.11900  22714306.56200                  -6673470.00540  22714311.21540
  -6408447.19800  24889893.69500                  -4902020.66140  24889898.31240
  -1346053.88700  26711728.80500                   -936795.19740  26711735.88740
  -9100678.19900  23399467.20300                  -6998206.23340  23399471.63340
  23686164.26800  26591320.54700                  18511166.07840  26591327.41840
  -6058580.66800  23127655.07800                  -4618716.95440  23127658.67640
 96  9  8  2 45 30.0080000  0  7  4 14 18 19 22 25 29
    295459.64200  27016499.93700                    230729.18840  27016505.03540
  -8630825.58600  22726257.15600                  -6624534.52440  22726261.79740
  -6446277.37400  24882695.03900                  -4931498.70940  24882699.66840
  -1398326.76800  26701778.74200                   -977527.25840  26701784.34440
  -9075998.11500  23404163.69500                  -6978974.97940  23404168.03140
  23812393.48400  26615340.57800                  18609526.50840  26615345.09040
  -6034567.44500  23132224.96100                  -4600005.33940  23132228.53540
 96  9  8  2 46  0.0080000  0  7  4 14 18 19 22 25 29
    313013.28500  27019840.20300                    244407.32340  27019843.14440
  -8567494.73800  22738308.39100                  -6575185.81940  22738313.03140
  -6484024.65800  24875512.01600                  -4960912.15540  24875517.04340
  -1450475.18000  26691858.88300                  -1018162.31940  26691865.08240
  -9050699.14800  23408977.89800                  -6959261.47940  23408982.18740
  23938643.51800  26639364.32000                  18707903.18340  26639369.14840
  -6010348.03400  23136833.69500                  -4581133.05840  23136837.15240
 96  9  8  2 46 30.0080000  0  7  4 14 18 19 22 25 29
    331074.85800  27023275.27300                    258481.29740  27023280.17240
  -8503631.37500  22750461.33600                  -6525422.15740  22750465.87140
  -6521664.27600  24868349.50000                  -4990241.70140  24868353.44940
  -1502489.83100  26681961.44500                  -1058693.14640  26681966.49640
  -9024781.22800  23413909.93000                  -6939065.68440  23413914.32440
  24064925.62200  26663396.16400                  18806304.83740  26663400.59440
  -5985927.42200  23141480.75000                  -4562103.99340  23141484.27740
 96  9  8  2 47  0.0080000  0  7  4 14 18 19 22 25 29
    349650.15400  27026811.02300                    272955.57340  27026816.01640
  -8439240.45800  22762714.61700                  -6475247.41840  22762719.15240
  -6559193.99100  24861207.72700                  -5019485.61840  24861211.84040
  -1554344.24400  26672091.46900                  -1099099.08840  26672095.26640
  -8998246.91600  23418959.17200                  -6918389.57640  23418963.48440
  24191240.18400  26687433.45300                  18904731.75940  26687435.72740
  -5961318.29700  23146163.75000                  -4542928.04040  23146167.17240
 96  9  8  2 47 30.0080000  0  7  4 14 18 19 22 25 29
    368734.95400  27030441.43000                    287826.84840  27030447.44140
  -8374321.51100  22775068.31200                  -6424661.22740  22775072.87140
  -6596629.82500  24854084.10200                  -5048656.36740  24854088.02740
  -1606037.24700  26662254.97700                  -1139379.35040  26662263.05540
  -8971093.47800  23424126.36700                  -6897231.03240  23424130.78540
  24317574.51900  26711473.44500                  19003174.06640  26711477.47740
  -5936527.28300  23150881.23400                  -4523610.35840  23150884.76240
 96  9  8  2 48  0.0080000  0  7  4 14 18 19 22 25 29
    388335.16500  27034173.06200                    303099.71140  27034176.33240
  -8308855.96900  22787525.87500                  -6373649.11440  22787530.45740
  -6633978.87900  24846976.35200                  -5077759.50440  24846980.96940
  -1657567.33800  26652449.75000                  -1179532.59540  26652456.11340
  -8943327.50100  23429409.85200                  -6875595.18840  23429414.24640
  24443922.87400  26735517.18700                  19101627.37640  26735522.61340
  -5911541.11300  23155635.94500                  -4504140.60240  23155639.44940
 96  9  8  2 48 30.0080000  0  7  4 14 18 19 22 25 29
    408464.50500  27038002.43000                    318784.90840  27038007.31640
  -8242821.63600  22800091.70300                  -6322193.78540  22800096.33240
  -6671231.06800  24839887.71100                  -5106787.16240  24839892.42240
  -1708915.62300  26642676.92200                  -1219544.19840  26642683.57840
  -8914954.52700  23434809.18700                  -6853486.35840  23434813.64140
  24570287.02400  26759560.72700                  19200092.93040  26759564.38340
  -5886336.95700  23160432.24200                  -4484500.98640  23160435.75840
 96  9  8  2 49  0.0080000  0  7  4 14 18 19 22 25 29
    429112.61500  27041933.33600                    334874.38440  27041938.11740
  -8176213.02800  22812767.00800                  -6270290.97440  22812771.53140
  -6708394.43100  24832815.85200                  -5135745.60240  24832819.89440
  -1760090.23500  26632940.06200                  -1259420.48540  26632945.18440
  -8885985.84500  23440321.66400                  -6830913.33740  23440326.14140
  24696656.77000  26783609.97700                  19298562.93540  26783614.48840
  -5860909.78600  23165270.70300                  -4464687.59740  23165274.09040
 96  9  8  2 49 30.0080000  0  7  4 14 18 19 22 25 29
    450278.14100  27045960.03900                    351366.93340  27045965.07840
  -8109013.17500  22825554.81200                  -6217927.46140  22825559.37140
  -6745474.90200  24825759.63300                  -5164639.44240  24825763.87540
  -1811103.71500  26623232.32000                  -1299171.18840  26623237.64140
  -8856425.44500  23445946.81200                  -6807879.24340  23445951.28940
  24823027.43800  26807658.31200                  19397033.56040  26807660.15240
  -5835248.49600  23170153.96100                  -4444691.77640  23170157.50040
 96  9  8  2 50  0.0080000  0  7  4 14 18 19 22 25 29
    471974.31000  27050089.91400                    368273.07340  27050094.71940
  -8041213.72500  22838456.65600                  -6165096.72140  22838461.18040
  -6782445.12900  24818724.28100                  -5193447.37140  24818728.37140
  -1861946.89600  26613557.41400                  -1338789.22240  26613563.00440
  -8826252.74500  23451688.29700                  -6784368.02840  23451692.76240
  24949413.81800  26831709.62500                  19495516.37840  26831713.91440
  -5809346.33500  23175082.99200                  -4424508.26140  23175086.43740
 96  9  8  2 50 30.0080000  0  7  4 14 18 19 22 25 29
    494190.19600  27054315.64800                    385584.11840  27054320.62940
  -7972837.71000  22851468.21900                  -6111816.70540  22851472.75440
  -6819307.53500  24811709.91400                  -5222171.29340  24811714.12140
  -1912623.12100  26603914.16400                  -1378277.12640  26603921.36340
  -8795449.09800  23457550.15600                  -6760365.17040  23457554.32840
  25075805.94800  26855758.64800                  19594003.82740  26855761.28540
  -5783218.17100  23180054.97700                  -4404148.63840  23180058.42240
 96  9  8  2 51  0.0080000  0  7  4 14 18 19 22 25 29
    516926.54400  27058642.75000                    403300.74440  27058646.75840
  -7903897.33200  22864587.10900                  -6058096.93240  22864591.55140
  -6856068.74100  24804714.30500                  -5250816.36640  24804718.75840
  -1963129.45200  26594301.93700                  -1417632.65040  26594307.51640
  -8763995.86800  23463535.58600                  -6735856.13940  23463539.71140
  25202200.11500  26879811.79700                  19692492.79040  26879813.88340
  -5756868.53700  23185069.30500                  -4383616.44240  23185072.83240
 96  9  8  2 51 30.0080000  0  7  4 14 18 19 22 25 29
    540179.67700  27063068.01600                    421420.08740  27063072.32840
  -7834416.01600  22877808.72700                  -6003955.65140  22877813.34440
  -6892729.06300  24797738.10200                  -5279382.81240  24797742.41440
  -2013473.26900  26584722.74200                  -1456861.53740  26584728.83640
  -8731889.84300  23469645.00000                  -6710838.43240  23469649.32440
  25328585.11200  26903863.21100                  19790974.58540  26903865.54340
  -5730308.34500  23190123.26600                  -4362920.17940  23190126.72340
 96  9  8  2 52  0.0080000  0  7  4 14 18 19 22 25 29
    563949.49800  27067591.03900                    439941.98040  27067595.64440
  -7764398.94600  22891132.78100                  -5949396.89840  22891137.38740
  -6929273.23200  24790783.97700                  -5307858.77340  24790788.16040
  -2063637.17900  26575176.89100                  -1495950.26040  26575181.96540
  -8699109.98100  23475882.88300                  -6685295.67440  23475887.18440
  25454977.34000  26927915.52300                  19889461.96740  26927919.34440
  -5703525.60500  23195219.85900                  -4342050.50040  23195223.26940
 96  9  8  2 52 30.0080000  0  7  4 14 18 19 22 25 29
    588213.60000  27072205.85200                    458849.06540  27072211.07840
  -7693853.88400  22904556.85200                  -5894426.73140  22904561.34040
  -6965732.22700  24783846.25800                  -5336268.35640  24783850.89840
  -2113630.05100  26565662.37500                  -1534905.67640  26565668.72740
  -8665684.81100  23482243.58600                  -6659250.07240  23482247.93440
  25581356.64200  26951962.39800                  19987939.39640  26951970.31240
  -5676523.40100  23200358.20300                  -4321009.81140  23200361.59040
 96  9  8  2 53  0.0080000  0  7  4 14 18 19 22 25 29
    612980.82200  27076922.32000                    478148.21240  27076926.66840
  -7622754.60300  22918086.57800                  -5839024.69740  22918091.11340
  -7002091.27600  24776927.15600                  -5364600.04540  24776931.18740
  -2163443.24300  26556183.68000                  -1573721.06940  26556188.75440
  -8631627.12400  23488724.31200                  -6632711.59740  23488728.54340
  25707736.43400  26976010.65600                  20086417.25140  26976013.03540
  -5649282.41100  23205541.93000                  -4299783.06240  23205545.45740
 96  9  8  2 53 30.0080000  0  7  4 14 18 19 22 25 29
    638245.07100  27081729.90600                    497834.62340  27081734.64140
  -7551097.11300  22931722.60200                  -5783187.68940  22931727.20740
  -7038341.24600  24770029.06200                  -5392846.74640  24770033.58640
  -2213081.68500  26546738.06200                  -1612400.35140  26546743.67640
  -8596940.19300  23495325.24200                  -6605682.80340  23495329.43740
  25834116.12400  27000062.62500                  20184894.81340  27000065.59040
  -5621795.63000  23210772.50800                  -4278364.78340  23210776.05940
 96  9  8  2 54  0.0080000  0  7  4 14 18 19 22 25 29
    664010.08300  27086631.71100                    517911.27240  27086637.28940
  -7478867.16800  22945467.46900                  -5726904.61340  22945472.06240
  -7074485.88800  24763150.66400                  -5421011.36640  24763154.57840
  -2262540.87500  26537326.32000                  -1650939.92040  26537332.25040
  -8561627.85000  23502045.03900                  -6578166.67640  23502049.46940
  25960488.19700  27024110.82000                  20283366.51540  27024118.16040
  -5594065.47600  23216049.37500                  -4256756.86240  23216052.80940
 96  9  8  2 54 30.0080000  0  7  4 14 18 19 22 25 29
    690279.63400  27091629.97700                    538381.02140  27091636.76240
  -7406062.76800  22959321.79700                  -5670173.91340  22959326.33240
  -7110509.76200  24756295.53900                  -5449081.88940  24756299.78140
  -2311824.16500  26527947.80500                  -1689342.42640  26527952.68040
  -8525703.72500  23508880.98400                  -6550173.83040  23508885.42640
  26086840.17000  27048152.49200                  20381822.68140  27048158.44540
  -5566100.01500  23221370.96900                  -4234965.58340  23221374.41440
 96  9  8  2 55  0.0080000  0  7  4 14 18 19 22 25 29
    717060.77700  27096727.89100                    559249.42440  27096732.49640
  -7332696.52900  22973282.87500                  -5613005.41440  22973287.43440
  -7146388.69400  24749467.78100                  -5477039.46340  24749472.63340
  -2360926.72800  26518604.07800                  -1727604.12240  26518609.73840
  -8489161.14900  23515834.85900                  -6521699.07540  23515839.25440
  26213172.75800  27072194.30500                  20480263.66840  27072197.46940
  -5537901.09300  23226737.00000                  -4212992.38640  23226740.42240
 96  9  8  2 55 30.0080000  0  7  4 14 18 19 22 25 29
    744346.09400  27101919.22700                    580510.70540  27101924.43040
  -7258788.48000  22987347.06200                  -5555414.72540  22987351.64440
  -7182139.83700  24742664.60900                  -5504897.46740  24742669.25040
  -2409857.36600  26509293.09400                  -1765731.84640  26509298.16840
  -8451990.53900  23522908.01600                  -6492734.94840  23522912.38740
  26339482.48900  27096230.58600                  20578686.72040  27096237.23040
  -5509472.07300  23232146.91400                  -4190839.89640  23232150.47740
 96  9  8  2 56  0.0080000  0  7  4 14 18 19 22 25 29
    772134.38400  27107207.18700                    602163.94740  27107211.25440
  -7184331.72200  23001515.75000                  -5497396.47740  23001520.49640
  -7217764.80100  24735885.85200                  -5532657.16540  24735889.95340
  -2458603.69600  26500016.46900                  -1803715.96540  26500023.07840
  -8414186.04600  23530101.96100                  -6463276.88740  23530106.41440
  26465786.92700  27120264.05500                  20677105.89640  27120268.85940
  -5480814.13900  23237600.19500                  -4168509.03140  23237603.64140
 96  9  8  2 56 30.0080000  0  7  4 14 18 19 22 25 29
    800412.53900  27112588.52300                    624198.81840  27112596.40240
  -7109342.39900  23015785.66400                  -5438963.23140  23015790.29340
  -7253286.12700  24729126.19500                  -5560336.09340  24729130.23840
  -2507173.08700  26490773.53100                  -1841562.20140  26490779.89440
  -8375749.21400  23537416.28100                  -6433326.09240  23537420.59440
  26592100.19500  27144301.78900                  20775531.74940  27144306.99240
  -5451933.75700  23243096.11700                  -4146004.82640  23243099.63340
 96  9  8  2 57  0.0080000  0  7  4 14 18 19 22 25 29
    829203.33100  27118065.99200                    646633.03640  27118069.47340
  -7033809.44800  23030159.18700                  -5380106.39440  23030163.62940
  -7288723.97200  24722382.21100                  -5587949.98140  24722386.80540
  -2555556.22600  26481566.82000                  -1879263.33440  26481571.59040
  -8336665.80000  23544853.71900                  -6402871.47340  23544858.01940
  26718444.04900  27168343.07000                  20873981.48140  27168348.76640
  -5422821.83800  23248635.90600                  -4123320.20340  23248639.48040
 96  9  8  2 57 30.0080000  0  6  4 14 18 19 22 29
    858500.81200  27123643.27300
  -6957732.53300  23044636.18700                  -5320825.69040  23044640.72340
  -7324107.38200  24715648.98400                  -5615521.43640  24715653.30940
  -2603764.94800  26472393.06200                  -1916828.49840  26472398.18440
  -8296945.98000  23552411.77300                  -6371920.95040  23552416.05140
  -5393506.45400  23254214.43700                  -4100477.04040  23254217.89440
 96  9  8  2 58  0.0080000  0  6  4 14 18 19 22 29
    888322.03400  27129318.35200                     10895.78850  27129323.40240
  -6881098.82600  23059218.94500                  -5261111.11740  23059223.53940
  -7359418.64700  24708929.71100                  -5643036.67540  24708934.30540
  -2651777.00600  26463257.07000                  -1954240.47140  26463262.83640
  -8256610.18000  23560087.58600                  -6340490.44140  23560091.81640
  -5363983.11000  23259832.67200                  -4077471.83040  23259836.15240
 96  9  8  2 58 30.0080000  0  6  4 14 18 19 22 29
    918695.14100  27135097.26600                     34563.12740  27135101.63740
  -6803899.29700  23073909.59400                  -5200955.65740  23073914.18740
  -7394644.80600  24702226.24200                  -5670485.61040  24702230.36740
  -2699587.40200  26454158.96900                  -1991495.31240  26454165.41440
  -8215656.35400  23567880.71900                  -6308578.35340  23567884.98440
  -5334225.23800  23265495.29700                  -4054283.87740  23265498.68440
 96  9  8  2 59  0.0080000  0  6  4 14 18 19 22 29
    949596.86100  27140978.44500                     58642.33840  27140981.92640
  -6726161.75400  23088702.53900                  -5140380.95640  23088707.19140
  -7429778.92600  24695540.44500                  -5697862.82640  24695544.23040
  -2747223.28000  26445094.20300                  -2028614.14940  26445099.57040
  -8174114.29700  23575785.97700                  -6276207.90340  23575790.50040
  -5304240.38400  23271201.18700                  -4030919.04140  23271204.70340
 96  9  8  2 59 30.0080000  0  6  4 14 18 19 22 29
    981018.75600  27146957.36700                     83126.95040  27146963.37940
  -6647869.06800  23103601.07800                  -5079373.68040  23103605.68440
  -7464781.22700  24688879.71900                  -5725137.32740  24688883.87940
  -2794674.23300  26436063.85900                  -2065588.86240  26436070.78940
  -8131971.67000  23583805.47700                  -6243369.48240  23583809.78940
  -5273995.55300  23276956.60200                  -4007351.63040  23276960.09440
 96  9  8  3  0  0.0080000  0  6  4 14 18 19 22 29
   1012929.27400  27153029.75800                    107992.28840  27153034.63340
  -6569050.25900  23118599.88300                  -5017956.42940  23118604.44140
  -7499666.27200  24682241.30500                  -5752320.46740  24682245.67640
  -2841971.98800  26427064.53900                  -2102444.22140  26427069.98840
  -8089241.09900  23591936.88300                  -6210072.92140  23591941.23040
  -5243488.46600  23282761.88300                  -3983579.87040  23282765.32840
 96  9  8  3  0 30.0080000  0  6  4 14 18 19 22 29
   1045332.03200  27159195.35900                    133241.17540  27159203.84840
  -6489691.41900  23133701.38300                  -4956118.37640  23133706.00040
  -7534417.94000  24675628.03900                  -5779399.67340  24675632.53940
  -2889118.07000  26418090.94500                  -2139181.36740  26418096.96940
  -8045884.51100  23600187.60900                  -6176288.55340  23600191.98040
  -5212708.06700  23288619.10200                  -3959595.12640  23288622.61740
 96  9  8  3  1  0.0080000  0  6  4 14 18 19 22 29
   1078215.77200  27165452.11700                    158864.85840  27165457.90640
  -6409784.45200  23148907.28900                  -4893853.20640  23148911.84840
  -7569019.86500  24669043.67200                  -5806362.19140  24669047.89140
  -2936096.46500  26409152.53900                  -2175787.87140  26409157.70740
  -8001884.36000  23608560.26600                  -6142002.71140  23608564.56640
  -5181652.73400  23294528.84400                  -3935396.15040  23294532.38340
 96  9  8  3  1 30.0080000  0  6  4 14 18 19 22 29
   1111581.44400  27171801.72700                    184864.08740  27171805.81640
  -6329323.27200  23164218.53100                  -4831156.17940  23164223.12540
  -7603495.39200  24662483.12500                  -5833226.22740  24662487.32040
  -2982892.00000  26400248.00800                  -2212251.87640  26400253.48040
  -7957232.47600  23617057.23400                  -6107209.01740  23617061.40640
  -5150335.17500  23300488.37500                  -3910992.85540  23300491.80940
 96  9  8  3  2  0.0080000  0  6  4 14 18 19 22 29
   1145429.89700  27178243.17200                    211239.49240  27178248.85540
  -6248311.34000  23179634.55500                  -4768030.00540  23179639.21940
  -7637855.77800  24655945.10900                  -5860000.53840  24655949.60940
  -3029496.58600  26391378.93700                  -2248567.08840  26391384.50440
  -7911935.29400  23625677.10900                  -6071912.49640  23625681.31640
  -5118772.60700  23306494.43700                  -3886398.63240  23306497.94140
 96  9  8  3  2 30.0080000  0  6  4 14 18 19 22 29
   1179760.64400  27184775.18700                    237990.69840  27184780.57840
  -6166738.83100  23195157.32800                  -4704467.01740  23195161.94540
  -7672084.47700  24649431.16400                  -5886672.24340  24649435.47740
  -3075888.49100  26382550.48400                  -2284716.57740  26382555.34840
  -7866000.16900  23634418.12500                  -6036118.87840  23634422.37940
  -5086964.95100  23312547.35900                  -3861613.44040  23312550.85240
 96  9  8  3  3  0.0080000  0  6  4 14 18 19 22 29
   1214588.27900  27191403.77300                    265129.13640  27191409.04740
  -6084601.02200  23210787.57000                  -4640463.52440  23210792.12940
  -7706169.91200  24642944.61700                  -5913232.28840  24642948.71940
  -3122060.41100  26373764.65600                  -2320694.63940  26373769.62540
  -7819419.67700  23643282.03900                  -5999822.37440  23643286.23440
  -5054903.72700  23318648.26600                  -3836630.65940  23318651.72340
 96  9  8  3  3 30.0080000  0  6  4 14 18 19 22 29
   1249916.85000  27198127.27300                    292657.91340  27198133.63740
  -6001906.05700  23226523.98400                  -4576025.89640  23226528.61340
  -7740124.93700  24636483.53900                  -5939690.71540  24636487.96940
  -3168031.39400  26365015.80500                  -2356516.13340  26365020.82040
  -7772212.92000  23652265.21100                  -5963037.87340  23652269.65240
  -5022602.48200  23324795.04700                  -3811460.85040  23324798.43440
 96  9  8  3  4  0.0080000  0  6  4 14 18 19 22 29
   1285727.26600  27204941.43700                    320562.12740  27204943.87540
  -5918685.51700  23242360.25000                  -4511178.72540  23242364.92640
  -7773954.12300  24630045.90600                  -5966051.10940  24630050.13740
  -3213844.05100  26356299.41400                  -2392214.25140  26356305.41440
  -7724399.89200  23661363.67200                  -5925780.95440  23661367.96140
  -4990084.95200  23330982.64100                  -3786122.50640  23330986.21540
 96  9  8  3  4 30.0080000  0  6  4 14 18 19 22 29
   1322047.43800  27211851.63300                    348863.51840  27211854.86740
  -5834936.95300  23258297.15600                  -4445920.09340  23258301.85540
  -7807635.58700  24623636.44500                  -5992296.37640  24623640.73440
  -3259498.44200  26347611.14100                  -2427789.07640  26347616.22740
  -7675954.06800  23670582.60900                  -5888030.95540  23670586.74640
  -4957342.24200  23337213.78900                  -3760608.70840  23337217.34040
 96  9  8  3  5  0.0080000  0  6  4 14 18 19 22 29
   1358913.49800  27218867.71900                    377590.39040  27218871.62140
  -5750659.43300  23274334.51600                  -4380249.28940  23274339.09840
  -7841172.39300  24617254.78900                  -6018428.92740  24617259.19540
  -3304984.50500  26338955.84400                  -2463232.69140  26338960.37940
  -7626864.23900  23679923.90600                  -5849779.12840  23679928.06640
  -4924364.34700  23343489.10900                  -3734911.64540  23343492.70740
 96  9  8  3  5 30.0090000  0  6  4 14 18 19 22 29
   1396300.24500  27225981.59100                    406722.86240  27225988.53240
  -5665879.07300  23290467.67700                  -4314186.67040  23290472.22440
  -7874596.41200  24610894.09900                  -6044473.58640  24610898.39940
  -3350304.05700  26330330.92700                  -2498546.55340  26330337.26740
  -7577161.79000  23689382.18500                  -5811049.93340  23689386.46240
  -4891166.66900  23349806.51300                  -3709043.31440  23349810.05240
 96  9  8  3  6  0.0090000  0  6  4 14 18 19 22 29
   1434207.43400  27233195.66900                    436260.92640  27233201.03640
  -5580588.01300  23306698.02000                  -4247726.11440  23306702.62640
  -7907893.35000  24604558.02800                  -6070419.22340  24604562.24740
  -3395432.25800  26321743.79400                  -2533711.37640  26321749.73540
  -7526836.99500  23698958.84900                  -5771835.79540  23698963.05640
  -4857742.49900  23356166.64500                  -3682998.50540  23356170.09140
 96  9  8  3  6 30.0090000  0  6  4 14 18 19 22 29
   1472638.38600  27240509.08300                    466207.12740  27240512.81040
  -5494769.86600  23323028.73900                  -4180854.84740  23323033.35640
  -7941074.00300  24598243.85600                  -6096274.25440  24598247.73540
  -3440346.64100  26313196.14500                  -2568709.52740  26313201.29040
  -7475901.29000  23708651.45800                  -5732145.62240  23708655.54840
  -4824075.97500  23362573.24700                  -3656764.83940  23362576.75140
 96  9  8  3  7  0.0090000  0  6  4 14 18 19 22 29
   1511571.09000  27247918.29400                    496544.28740  27247924.01340
  -5408430.66800  23339458.53600                  -4113577.56740  23339463.15340
  -7974157.53200  24591948.40300                  -6122053.59840  24591952.36440
  -3485048.08700  26304689.65300                  -2603541.75940  26304695.81740
  -7424384.38400  23718454.83300                  -5692002.56340  23718459.34540
  -4790161.18200  23369027.23900                  -3630337.72340  23369030.79040
 96  9  8  3  7 30.0090000  0  6  4 14 18 19 22 29
   1550989.23200  27255418.30200                    527259.72740  27255423.84540
  -5321542.53900  23355992.73100                  -4045872.53640  23355997.32540
  -8007114.42100  24585676.53600                  -6147734.26740  24585680.28640
  -3529541.39400  26296223.47400                  -2638211.81240  26296229.66140
  -7372266.68300  23728372.27000                  -5651391.35940  23728376.67740
  -4755981.36700  23375531.16100                  -3603704.08740  23375534.67740
 96  9  8  3  8  0.0090000  0  6  4 14 18 19 22 29
   1590888.43400  27263011.39500                    558350.00440  27263016.09540
  -5234087.37000  23372634.90300                  -3977725.66640  23372639.56740
  -8039928.06900  24579432.48900                  -6173303.32140  24579436.61440
  -3573849.96100  26287791.70000                  -2672737.89040  26287798.12240
  -7319534.90500  23738407.12200                  -5610301.65040  23738411.43540
  -4721528.60400  23382087.29400                  -3576857.76740  23382090.79840
 96  9  8  3  8 30.0090000  0  6  4 14 18 19 22 29
   1631256.64300  27270692.63000                    589805.73940  27270698.40740
  -5146089.41700  23389380.23900                  -3909155.84440  23389384.90340
  -8072603.52700  24573214.87200                  -6198764.69340  24573219.05640
  -3617995.41400  26279390.56000                  -2707136.88840  26279396.61840
  -7266197.53600  23748556.60600                  -5568740.05840  23748560.93140
  -4686795.33300  23388696.88800                  -3549792.86940  23388700.33340
 96  9  8  3  9  0.0090000  0  6  4 14 18 19 22 29
   1672085.81000  27278462.49700                    621620.67740  27278466.81040
  -5057549.06000  23406228.87200                  -3840163.36940  23406233.53640
  -8105116.47800  24567027.46600                  -6224099.43140  24567031.68540
  -3661976.79300  26271021.38800                  -2741408.03340  26271027.41140
  -7212233.25200  23758825.51300                  -5526689.95240  23758829.93140
  -4651765.06400  23395362.96600                  -3522496.54940  23395366.35240
 96  9  8  3  9 30.0090000  0  6  4 14 18 19 22 29
   1713366.30400  27286317.47400                    653787.28440  27286323.62640
  -4968467.93400  23423180.77000                  -3770749.50440  23423185.34140
  -8137468.04600  24560871.31700                  -6249308.41840  24560875.40740
  -3705795.65800  26262683.28600                  -2775552.54040  26262688.37240
  -7157633.24500  23769215.66100                  -5484144.48240  23769219.90340
  -4616450.59800  23402083.12200                  -3494978.77140  23402086.56740
 96  9  8  3 10  0.0090000  0  6  4 14 18 19 22 29
   1755112.70300  27294262.91100                    686316.93940  27294266.77840
  -4878868.28300  23440230.92700                  -3700931.59840  23440235.35640
  -8169668.95700  24554743.47400                  -6274400.01240  24554747.51740
  -3749421.38300  26254381.62200                  -2809546.55840  26254387.21240
  -7102401.70000  23779725.90300                  -5441106.89440  23779730.04040
  -4580854.17500  23408856.91100                  -3467241.29440  23408860.33340
 96  9  8  3 10 30.0090000  0  6  4 14 18 19 22 29
   1797333.10000  27302296.38000                    719215.94840  27302301.86440
  -4788775.45300  23457374.95000                  -3630729.40140  23457379.62640
  -8201739.55600  24548640.71600                  -6299390.06040  24548644.67740
  -3792832.31500  26246120.66900                  -2843373.19840  26246126.72740
  -7046549.89600  23790354.03600                  -5397585.99240  23790358.37240
  -4544994.12300  23415680.88800                  -3439298.38740  23415684.31040
 96  9  8  3 11  0.0090000  0  6  4 14 18 19 22 29
   1840054.00300  27310425.35600                    752504.98740  27310430.10240
  -4698164.89600  23474617.73100                  -3560123.78240  23474622.39540
  -8233678.59000  24542563.06000                  -6324277.59740  24542567.25540
  -3836000.03600  26237905.66100                  -2877010.33740  26237912.68540
  -6990062.05700  23801103.34100                  -5353569.48340  23801107.52440
  -4508874.26400  23422554.25500                  -3411153.03940  23422557.72440
 96  9  8  3 11 30.0090000  0  6  4 14 18 19 22 29
   1883278.24700  27318649.93500                    786186.18840  27318656.72040
  -4607056.11300  23491955.05200                  -3489129.93140  23491959.82140
  -8265521.68900  24536503.15300                  -6349090.37740  24536507.50140
  -3878944.36100  26229733.59100                  -2910473.39440  26229739.18140
  -6932958.16100  23811969.94200                  -5309072.92340  23811974.04440
  -4472535.59400  23429469.36400                  -3382837.17840  23429472.76340
 96  9  8  3 12  0.0090000  0  6  4 14 18 19 22 29
   1927015.34000  27326974.26300                    820267.03940  27326979.37240
  -4515446.36200  23509387.76300                  -3417745.70940  23509392.39240
  -8297261.10000  24530463.38800                  -6373822.36140  24530467.82940
  -3921677.84900  26221602.06000                  -2943772.18240  26221607.01740
  -6875244.22900  23822952.41900                  -5264101.01440  23822956.52040
  -4435977.20100  23436426.09900                  -3354350.10940  23436429.54440
 96  9  8  3 12 30.0090000  0  6  4 14 18 19 22 29
   1971263.12200  27335393.38800                    854745.80940  27335397.89940
  -4423321.23000  23526918.57500                  -3345959.90340  23526923.20440
  -8328882.11600  24524446.27800                  -6398462.09040  24524450.43840
  -3964220.43000  26213506.27800                  -2976922.17440  26213511.79840
  -6816923.01500  23834050.42700                  -5218655.89840  23834054.52840
  -4399192.72200  23443425.77000                  -3325686.87340  23443429.08740
 96  9  8  3 13  0.0090000  0  6  4 14 18 19 22 29
   2016013.24300  27343910.05200                    889616.02540  27343917.02840
  -4330672.91300  23544548.93500                  -3273766.39840  23544553.54040
  -8360363.96600  24518455.20800                  -6422993.37740  24518459.34540
  -4006593.09500  26205443.41900                  -3009939.82240  26205449.37240
  -6757997.61900  23845263.76300                  -5172739.99440  23845268.18140
  -4362171.01200  23450470.70800                  -3296838.77640  23450474.21240
 96  9  8  3 13 30.0090000  0  6  4 14 18 19 22 29
   2061237.56000  27352516.12200                    924855.75340  27352520.56340
  -4237510.47300  23562276.98900                  -3201172.30040  23562281.57140
  -8391688.96200  24512494.56700                  -6447402.45240  24512499.07940
  -4048812.61600  26197408.37200                  -3042838.07440  26197414.27840
  -6698472.85800  23856590.77000                  -5126357.04640  23856595.09540
  -4324902.11300  23457562.91100                  -3267798.06840  23457566.35640
 96  9  8  3 14  0.0090000  0  6  4 14 18 19 22 29
   2106908.51400  27361206.25500                    960443.49840  27361210.66140
  -4143840.84000  23580101.88800                  -3128182.97640  23580106.62240
  -8422839.39000  24506566.60600                  -6471675.49540  24506570.90740
  -4090870.12000  26189405.79400                  -3075610.12840  26189410.59940
  -6638356.01800  23868030.52000                  -5079512.74740  23868035.03240
  -4287374.73700  23464703.97400                  -3238555.95040  23464707.36040
 96  9  8  3 14 30.0090000  0  6  4 14 18 19 22 29
   2153030.53500  27369983.79400                    996382.72540  27369986.98140
  -4049663.47400  23598023.25500                  -3054798.02940  23598028.01340
  -8453810.79600  24500672.86400                  -6495809.03040  24500677.02440
  -4132739.06900  26181438.36400                  -3108235.21440  26181443.90740
  -6577630.96400  23879586.09900                  -5032194.51140  23879590.38840
  -4249568.71800  23471898.30200                  -3209096.71040  23471901.63040
 96  9  8  3 15  0.0090000  0  6  4 14 18 19 22 29
   2199582.11200  27378842.38800                   1032656.68840  27378847.02840
  -3954987.48400  23616039.70000                  -2981024.53740  23616044.34140
  -8484620.75700  24494809.89500                  -6519816.79940  24494813.91540
  -4174426.83000  26173504.76300                  -3140719.14140  26173510.55240
  -6516305.58700  23891256.15300                  -4984408.49640  23891260.48940
  -4211491.71000  23479143.95800                  -3179426.30540  23479147.35640
 96  9  8  3 15 30.0090000  0  6  4 14 18 19 22 29
   2246578.13000  27387784.22400                   1069276.92340  27387791.42340
  -3859808.33200  23634151.72400                  -2906858.97340  23634156.35240
  -8515269.13900  24488977.99700                  -6543698.62640  24488981.95840
  -4215907.99200  26165610.84100                  -3173042.07140  26165616.06740
  -6454370.72000  23903041.91900                  -4936147.54840  23903046.13840
  -4173129.28800  23486444.09100                  -3149533.50240  23486447.46640
 96  9  8  3 16  0.0090000  0  6  4 14 18 19 22 29
   2294050.63300  27396818.41100                   1106268.51640  27396821.90340
  -3764130.20400  23652358.41100                  -2832304.58940  23652363.26340
  -8545768.09500  24483174.02800                  -6567464.03140  24483178.34140
  -4257165.19100  26157760.70000                  -3205190.46540  26157766.14940
  -6391825.99300  23914943.93500                  -4887411.38640  23914948.31740
  -4134483.14500  23493798.42700                  -3119419.60740  23493801.91940
 96  9  8  3 16 30.0090000  0  6  4 14 18 19 22 29
   2342029.95700  27405948.56000                   1143655.00040  27405954.22040
  -3667936.89900  23670663.39500                  -2757348.77140  23670668.09540
  -8576117.44200  24477398.83300                  -6591112.85640  24477403.16940
  -4298207.75600  26149950.12200                  -3237171.63940  26149955.25540
  -6328670.44500  23926962.13800                  -4838199.26140  23926966.61440
  -4095537.41700  23501209.53600                  -3089072.27940  23501212.95840
 96  9  8  3 17  0.0090000  0  6  4 14 18 19 22 29
   2390492.24800  27415171.27800                   1181417.80840  27415176.95040
  -3571253.48900  23689061.61400                  -2682011.05640  23689066.36040
  -8606322.61700  24471650.90300                  -6614649.33040  24471655.01740
  -4339057.99400  26142176.59900                  -3269002.92640  26142181.40340
  -6264929.71400  23939091.31000                  -4788531.14740  23939095.56340
  -4056328.09900  23508670.72400                  -3058519.55540  23508674.16940
 96  9  8  3 17 30.0090000  0  6  4 14 18 19 22 29
   2439467.14100  27424490.84100                   1219580.09240  27424497.45040
  -3474073.17100  23707554.53600                  -2606286.13740  23707559.21240
  -8636357.12300  24465935.38800                  -6638052.83240  24465939.48940
  -4379685.74100  26134445.06700                  -3300660.87640  26134450.03640
  -6200579.61600  23951336.63000                  -4738388.20340  23951340.74340
  -4016844.54900  23516184.30200                  -3027753.14740  23516187.63040
 96  9  8  3 18  0.0090000  0  6  4 14 18 19 22 29
   2488945.53500  27433904.99700                   1258134.65340  27433910.64540
  -3376391.31900  23726142.62200                  -2530170.41740  23726147.25140
  -8666221.95300  24460252.16900                  -6661324.11540  24460256.37640
  -4420110.24000  26126752.70800                  -3332160.42540  26126757.53640
  -6135619.70000  23963698.25500                  -4687770.08240  23963702.38040
  -3977097.10400  23523747.86400                  -2996781.10540  23523751.23940
 96  9  8  3 18 30.0090000  0  6  4 14 18 19 22 29
   2538897.04200  27443410.99700                   1297057.89340  27443415.21640
  -3278214.18200  23744825.26300                  -2453668.76640  23744829.95040
  -8695922.83800  24454600.67700                  -6684467.64440  24454604.90740
  -4460342.71200  26119096.70800                  -3363510.36540  26119102.04040
  -6070051.39500  23976175.57500                  -4636677.88940  23976179.59540
  -3937090.84200  23531360.96600                  -2965607.39140  23531364.43540
 96  9  8  3 19  0.0090000  0  6  4 14 18 19 22 29
   2589314.22300  27453005.96600                   1336344.03540  27453010.91140
  -3179543.77000  23763601.67700                  -2376782.74040  23763606.48140
  -8725454.02900  24448980.80200                  -6707478.94040  24448984.96240
  -4500364.81200  26111481.69200                  -3394696.38040  26111486.63840
  -6003850.77900  23988772.78600                  -4585092.98540  23988776.95840
  -3896826.47400  23539023.03600                  -2934232.55440  23539026.49340
 96  9  8  3 19 30.0090000  0  6  4 14 18 19 22 29
   2640175.90400  27462684.52800                   1375976.47840  27462688.13840
  -3080395.45700  23782469.09100                  -2299524.32240  23782473.91940
  -8754863.33400  24443384.47400                  -6730395.26540  24443388.73940
  -4540214.12200  26103897.59100                  -3425747.75040  26103902.82940
  -5937049.26100  24001484.95800                  -4533039.84840  24001489.37640
  -3856309.37500  23546733.02800                  -2902660.78440  23546736.42740
 96  9  8  3 20  0.0090000  0  6  4 14 18 19 22 29
   2691488.02500  27472448.16100                   1415959.98340  27472451.65340
  -2980750.33900  23801430.77800                  -2221878.77540  23801435.50140
  -8784139.79700  24437813.49700                  -6753208.06940  24437817.61040
  -4579889.02500  26096347.71600                  -3456663.23140  26096352.91940
  -5869656.39600  24014309.43500                  -4480525.91740  24014313.63040
  -3815517.48000  23554495.49700                  -2870874.88840  23554498.98940
 96  9  8  3 20 30.0090000  0  6  4 14 18 19 22 29
   2743242.68700  27482297.27800                   1456288.24240  27482303.10240
  -2880616.09600  23820485.69200                  -2143852.09440  23820490.57940
  -8813273.38500  24432269.20800                  -6775909.54840  24432273.33340
  -4619370.77600  26088834.57500                  -3487428.19740  26088839.80240
  -5801686.61600  24027243.43500                  -4427562.44840  24027247.79440
  -3774445.70100  23562311.25500                  -2838870.89540  23562314.74740
 96  9  8  3 21  0.0090000  0  6  4 14 18 19 22 29
   2795454.10500  27492232.70800                   1496972.45840  27492237.17340
  -2779979.71600  23839636.09900                  -2065434.13740  23839640.88040
  -8842248.77600  24426755.70000                  -6798487.76340  24426759.60240
  -4658655.16900  26081359.19200                  -3518039.38240  26081364.65340
  -5733152.79300  24040285.27000                  -4374159.45940  24040289.52440
  -3733085.98700  23570181.66100                  -2806642.54440  23570185.10640
 96  9  8  3 21 30.0090000  0  6  4 14 18 19 22 29
   2848114.41700  27502253.18500                   1538006.41240  27502256.67740
  -2678855.65800  23858879.54400                  -1986636.17240  23858884.20840
  -8871065.03800  24421271.88000                  -6820941.96840  24421276.15740
  -4697753.48700  26073918.27800                  -3548505.57640  26073924.33740
  -5664080.29600  24053429.33300                  -4320336.72740  24053433.47040
  -3691447.80100  23578105.09100                  -2774197.19640  23578108.48940
 96  9  8  3 22  0.0090000  0  6  4 14 18 19 22 29
   2901229.31000  27512360.13000                   1579394.64540  27512364.78240
  -2577250.15300  23878214.41100                  -1907463.05940  23878219.09940
  -8899696.72100  24415823.66900                  -6843252.35340  24415828.01740
  -4736641.03000  26066519.34100                  -3578807.54140  26066524.91940
  -5594453.87600  24066678.70000                  -4266082.36640  24066682.98940
  -3649537.09700  23586080.28600                  -2741539.50240  23586083.64940
 96  9  8  3 22 30.0090000  0  6  4 14 18 19 22 29
   2954812.57400  27522557.14500                   1621147.81740  27522564.90740
  -2475152.20900  23897642.28600                  -1827906.22240  23897647.02040
  -8928133.46700  24410412.10600                  -6865410.84840  24410416.47740
  -4775304.32100  26059161.15300                  -3608934.74840  26059166.26340
  -5524233.09700  24080041.03600                  -4211364.86940  24080045.37240
  -3607339.21700  23594110.90300                  -2708658.02940  23594114.26740
 96  9  8  3 23  0.0090000  0  6  4 14 18 19 22 29
   3008859.35400  27532842.39500                   1663262.18540  27532848.73540
  -2372570.25100  23917163.81700                  -1747972.23840  23917168.51740
  -8956382.44100  24405036.42700                  -6887423.00940  24405040.72740
  -4813758.75200  26051843.79400                  -3638899.19240  26051848.62240
  -5453406.38500  24093519.23900                  -4156175.21440  24093523.50540
  -3564865.21100  23602193.09100                  -2675561.39540  23602196.46640
 96  9  8  3 23 30.0090000  0  6  4 14 18 19 22 29
   3063366.53300  27543214.41100                   1705735.33340  27543216.48540
  -2269516.32000  23936774.38800                  -1667670.47640  23936778.88840
  -8984445.91000  24399696.06700                  -6909290.62340  24399700.14540
  -4852002.33800  26044566.16900                  -3668699.36140  26044571.59540
  -5381966.36000  24107113.49700                  -4100507.65140  24107117.78640
  -3522118.69500  23610327.54400                  -2642252.42240  23610331.02440
 96  9  8  3 24  0.0090000  0  6  4 14 18 19 22 29
   3118324.41900  27553672.31700                   1748559.64040  27553677.16940
  -2165990.83400  23956474.46600                  -1587001.27240  23956479.16540
  -9012332.91300  24394389.38000                  -6931020.73440  24394393.57540
  -4890038.07000  26037328.37200                  -3698337.52840  26037333.98540
  -5309920.38500  24120823.53600                  -4044367.92740  24120827.79040
  -3479102.30400  23618513.11400                  -2608733.15240  23618516.47740
 96  9  8  3 24 30.0090000  0  6  4 14 18 19 22 29
   3173703.25200  27564211.45000                   1791711.95340  27564214.93140
  -2062005.09200  23976262.42700                  -1505973.42740  23976267.11440
  -9040058.62400  24389113.27000                  -6952625.15840  24389117.56040
  -4927881.71200  26030126.48100                  -3727826.04440  26030131.04040
  -5237301.63200  24134642.39500                  -3987781.88040  24134646.86040
  -3435831.62100  23626747.34100                  -2575015.73440  23626750.73940
 96  9  8  3 25  0.0090000  0  6  4 14 18 19 22 29
   3229517.59500  27574832.38800                   1835203.63640  27574838.18840
  -1957560.99000  23996137.16100                  -1424588.41140  23996141.98940
  -9067613.63600  24383870.01300                  -6974096.57340  24383874.25540
  -4965517.81500  26022965.01300                  -3757152.80740  26022970.28640
  -5164117.20400  24148569.03600                  -3930755.04340  24148573.24340
  -3392295.77000  23635031.70000                  -2541091.68440  23635035.07540
 96  9  8  3 25 30.0090000  0  6  4 14 18 19 22 29
   3285770.83900  27585537.32500                   1879037.31340  27585541.42740
  -1852652.36800  24016100.77000                  -1342841.44940  24016105.52840
  -9095005.52000  24378657.31700                  -6995440.88340  24378661.39540
  -5002951.54800  26015841.48100                  -3786321.89440  26015845.97040
  -5090373.78000  24162601.92700                  -3873292.62940  24162606.33340
  -3348483.15900  23643368.93500                  -2506951.99040  23643372.32140
 96  9  8  3 26  0.0090000  0  6  4 14 18 19 22 29
   3342477.15500  27596327.58300                   1923223.98840  27596332.01340
  -1747261.22000  24036156.25500                  -1260718.49340  24036160.89540
  -9122227.98000  24373477.25500                  -7016653.16840  24373481.15740
  -5040179.41800  26008756.95800                  -3815330.57940  26008762.20840
  -5016058.86300  24176743.60600                  -3815384.89440  24176748.01340
  -3304376.07200  23651762.52800                  -2472582.82940  23651765.88040
 96  9  8  3 26 30.0090000  0  6  4 14 18 19 22 29
   3399633.35100  27607204.12200                   1967761.33740  27607207.40340
  -1641412.35500  24056298.52000                  -1178238.85140  24056303.17340
  -9149297.64000  24368325.95000                  -7037746.38340  24368329.95840
  -5077223.46000  26001707.68500                  -3844196.02540  26001712.64240
  -4941175.12500  24190993.42700                  -3757033.92540  24190997.49340
  -3259978.01700  23660211.12200                  -2437986.93840  23660214.49740
 96  9  8  3 27  0.0090000  0  6  4 14 18 19 22 29
   3457269.17500  27618171.74700                   2012672.35340  27618175.60240
  -1535100.36800  24076529.02000                  -1095398.35640  24076533.61440
  -9176207.19000  24363205.41100                  -7058714.84340  24363209.48940
  -5114083.20800  25994693.34900                  -3872917.83540  25994698.65740
  -4865692.96500  24205357.16100                  -3698216.64840  24205361.46240
  -3215271.48100  23668718.46600                  -2403150.67340  23668721.91140
 96  9  8  3 27 30.0100000  0  6  4 14 18 19 22 29
   3515361.86900  27629225.90000                   2057939.37940  27629230.16640
  -1428330.59800  24096846.70500                  -1012201.14540  24096851.33440
  -9202955.83500  24358115.17400                  -7079557.92540  24358119.15840
  -5150774.39200  25987711.29900                  -3901508.34340  25987716.93540
  -4789629.26700  24219831.52500                  -3638946.22240  24219835.81440
  -3170271.49300  23677281.61900                  -2368085.74240  23677285.07640
 96  9  8  3 28  0.0100000  0  6  4 14 18 19 22 29
   3573908.99100  27640367.52500                   2103560.50440  27640372.76440
  -1321112.51000  24117249.44700                   -928654.58740  24117254.04140
  -9229510.07900  24353062.13500                  -7100249.52740  24353066.45940
  -5187263.11600  25980767.56400                  -3929941.05440  25980772.86140
  -4712984.74900  24234416.69700                  -3579223.21640  24234420.88140
  -3124972.32200  23685901.79900                  -2332787.68040  23685905.30340
 96  9  8  3 28 30.0100000  0  6  4 14 18 19 22 29
   3632891.95300  27651592.43900                   2149521.21840  27651596.90440
  -1213455.15700  24137736.03300                   -844765.75140  24137740.65040
  -9255863.08300  24348047.21300                  -7120784.31440  24348051.29140
  -5223546.74200  25973863.06400                  -3958213.95440  25973868.23240
  -4635771.69200  24249109.59600                  -3519057.18840  24249113.89640
  -3079387.95000  23694576.18200                  -2297267.39340  23694579.52140
 96  9  8  3 29  0.0100000  0  6  4 14 18 19 22 29
   3692277.19900  27662892.28300                   2195795.43940  27662896.09240
  -1105370.46300  24158303.86100                   -760543.92040  24158308.50240
  -9282027.57600  24343068.23600                  -7141172.21240  24343072.25640
  -5259643.47000  25966994.86900                  -3986341.25040  25966999.32240
  -4558019.38400  24263905.51800                  -3458470.96640  24263909.57240
  -3033536.64800  23703301.51800                  -2261539.10540  23703304.81040
 96  9  8  3 29 30.0100000  0  6  4 14 18 19 22 29
   3752059.25000  27674268.11900                   2242378.85440  27674273.93240
   -996841.38900  24178956.25200                   -675975.82140  24178960.82240
  -9307981.65800  24338129.42400                  -7161396.15840  24338133.39640
  -5295534.91500  25960165.13500                  -4014308.57140  25960170.19740
  -4479723.16400  24278805.08000                  -3397460.91340  24278809.17040
  -2987403.47200  23712080.21300                  -2225591.16940  23712083.43540
 96  9  8  3 30  0.0100000  0  6  4 14 18 19 22 29
   3812246.80300  27685720.92400                   2289278.19340  27685725.74040
   -887872.11100  24199692.37700                   -591064.69640  24199697.13540
  -9333730.64400  24333229.59600                  -7181460.28340  24333233.55740
  -5331224.01200  25953373.33000                  -4042118.21940  25953378.42840
  -4400875.96100  24293809.08000                  -3336021.52440  24293813.29940
  -2940985.85500  23720913.36900                  -2189421.59340  23720916.79140
 96  9  8  3 30 30.0100000  0  6  4 14 18 19 22 29
   3872852.82800  27697254.47800                   2336503.67840  27697257.77140
   -778457.56900  24220513.03300                   -505806.62140  24220517.74440
  -9359294.38200  24328364.79100                  -7201380.06940  24328368.71740
  -5366728.05300  25946616.47800                  -4069783.67340  25946621.47140
  -4321473.37300  24308918.83800                  -3274149.36640  24308923.02140
  -2894277.63600  23729801.60300                  -2153025.57540  23729805.01440
 96  9  8  3 31  0.0100000  0  6  4 14 18 19 22 29
   3933890.01500  27708870.13500                   2384065.10440  27708876.73240
   -668586.00000  24241421.11100                   -420192.41340  24241425.96340
  -9384659.94700  24323538.01800                  -7221145.43740  24323541.97840
  -5402039.12000  25939896.97800                  -4097298.75240  25939901.60740
  -4241494.47600  24324138.43900                  -3211828.14340  24324142.38940
  -2847263.55600  23738748.05700                  -2116391.22340  23738751.39640
 96  9  8  3 31 30.0100000  0  6  4 14 18 19 22 29
   3995357.67600  27720566.76800                   2431961.99740  27720571.66640
   -558260.40900  24262415.43900                   -334224.42540  24262420.10340
  -9409824.11600  24318749.29100                  -7240753.85540  24318753.21740
  -5437145.82000  25933216.51800                  -4124654.57340  25933222.13140
  -4160949.09900  24339465.54900                  -3149065.50340  24339469.62740
  -2799952.65800  23747751.04100                  -2079525.58640  23747754.42840
 96  9  8  3 32  0.0100000  0  6  4 14 18 19 22 29
   4057266.02300  27732347.76000                   2480202.21340  27732351.79140
   -447486.99000  24283494.90000                   -247907.49340  24283499.65840
  -9434797.54900  24313997.10300                  -7260213.65840  24314000.90040
  -5472048.91200  25926574.72800                  -4151851.76440  25926579.61540
  -4079844.24500  24354899.29900                  -3085866.90740  24354903.48240
  -2752341.21500  23756811.11900                  -2042425.75140  23756814.61140
 96  9  8  3 32 30.0100000  0  6  4 14 18 19 22 29
   4119608.13300  27744212.01800                   2528780.52740  27744216.75240
   -336261.21300  24304660.54100                   -161238.07240  24304665.24040
  -9459585.10200  24309280.15800                  -7279528.62640  24309284.08440
  -5506740.85100  25919973.09600                  -4178884.41640  25919978.19340
  -3998175.89500  24370440.05700                  -3022229.22540  24370444.08840
  -2704433.24300  23765927.76800                  -2005094.85040  23765931.16640
 96  9  8  3 33  0.0100000  0  6  4 14 18 19 22 29
   4182362.50900  27756153.24400                   2577680.01240  27756158.68240
   -224604.19800  24325908.20500                    -74232.61840  24325912.93940
  -9484193.75000  24304596.89300                  -7298704.18840  24304600.99440
  -5541227.25200  25913410.36100                  -4205756.91040  25913415.40040
  -3915959.51400  24386085.31400                  -2958164.50640  24386089.46340
  -2656244.42100  23775097.82200                  -1967545.11640  23775101.18540
 96  9  8  3 33 30.0100000  0  6  4 14 18 19 22 29
   4245541.54700  27768174.65800                   2626910.38240  27768179.55740
   -112514.56700  24347237.97100                     13109.95040  24347242.82240
  -9508631.95100  24299946.85300                  -7317746.93740  24299950.85040
  -5575497.96700  25906888.91600                  -4232461.33440  25906893.63940
  -3833192.86800  24401835.07200                  -2893671.00840  24401838.95140
  -2607749.79900  23784325.85300                  -1929757.09540  23784329.25240
 96  9  8  3 34  0.0100000  0  6  4 14 18 19 22 29
   4309130.88200  27780275.68200                   2676460.56840  27780280.52140
        -3.76500  24368648.12700                    100780.69540  24368652.95540
  -9532903.92100  24295327.93900                  -7336660.15640  24295331.91240
  -5609566.98300  25900405.62700                  -4259008.59640  25900410.25640
  -3749871.57900  24417690.76800                  -2828745.31940  24417694.97540
  -2558965.43600  23793609.31400                  -1891743.30840  23793612.60740
 96  9  8  3 34 30.0100000  0  6  4 14 18 19 22 29
   4373135.32700  27792456.19700                   2726334.12840  27792461.38940
    112944.58800  24390141.46300                    188792.39540  24390146.31440
  -9556988.31000  24290744.72100                  -7355427.20740  24290748.67040
  -5643415.40200  25893964.28300                  -4285383.98940  25893969.38140
  -3665977.88100  24433655.25200                  -2763373.60240  24433659.36540
  -2509880.39000  23802949.82200                  -1853495.21840  23802953.30340
 96  9  8  3 35  0.0100000  0  6  4 14 18 19 22 29
   4437547.47600  27804712.31400                   2776525.38440  27804714.83440
    226328.33500  24411717.62700                    277143.35740  24411722.37340
  -9580873.22400  24286199.67400                  -7374038.81840  24286203.70540
  -5677047.33600  25887564.28300                  -4311590.64940  25887569.60340
  -3581527.15100  24449725.86900                  -2697567.83040  24449730.02940
  -2460483.59400  23812349.68900                  -1815004.21940  23812353.05340
 96  9  8  3 35 30.0100000  0  6  4 14 18 19 22 29
   4502351.16600  27817044.91600                   2827021.79040  27817050.88140
    340146.32000  24433376.66600                    365832.68440  24433381.42440
  -9604557.60200  24281692.68900                  -7392494.16040  24281696.47540
  -5710478.06200  25881202.74400                  -4337640.54240  25881207.95940
  -3496534.22300  24465899.32200                  -2631339.57140  24465903.47140
  -2410796.79900  23821804.84600                  -1776287.23440  23821808.11540
 96  9  8  3 36  0.0100000  0  6  4 14 18 19 22 29
   4567558.74300  27829455.29100                   2877832.82940  27829462.54940
    454409.97300  24455120.17400                    454869.29140  24455124.88540
  -9628013.47200  24277229.12700                  -7410771.43840  24277233.18240
  -5743705.05600  25874879.90800                  -4363531.68140  25874885.07640
  -3410998.21900  24482176.34600                  -2564688.13740  24482180.75240
  -2360823.02400  23831314.59600                  -1737346.63540  23831317.95940
 96  9  8  3 36 30.0100000  0  6  4 14 18 19 22 29
   4633179.53200  27841941.37700                   2928965.94040  27841946.48640
    569117.57700  24476948.30700                    544251.83340  24476953.08840
  -9651243.93500  24272808.39300                  -7428873.09540  24272812.49440
  -5776729.45700  25868596.01800                  -4389264.94740  25868600.71740
  -3324927.86600  24498554.68200                  -2497620.32340  24498558.79540
  -2310542.74600  23840882.47800                  -1698167.18240  23840885.91240
 96  9  8  3 37  0.0100000  0  6  4 14 18 19 22 29
   4699211.48200  27854505.90000                   2980419.35840  27854511.64340
    684257.11200  24498858.79100                    633970.94340  24498863.53740
  -9674255.51400  24268429.40800                  -7446804.18240  24268433.40440
  -5809558.84200  25862348.51000                  -4414846.24640  25862353.20940
  -3238331.43900  24515033.61100                  -2430142.58340  24515037.57240
  -2259963.30800  23850507.51800                  -1658754.63940  23850510.85740
 96  9  8  3 37 30.0100000  0  6  4 14 18 19 22 29
   4765664.03200  27867152.19700                   3032200.58540  27867157.60040
    799827.60600  24520851.13500                    724025.86340  24520855.81040
  -9697044.56900  24264092.99400                  -7464561.86940  24264097.01440
  -5842182.79500  25856140.33000                  -4440267.49340  25856145.15840
  -3151194.29400  24531615.30700                  -2362243.50540  24531619.47840
  -2209083.03200  23860189.69700                  -1619107.66040  23860193.08440
 96  9  8  3 38  0.0100000  0  6  4 14 18 19 22 29
   4832521.16600  27879874.20500                   3084297.02740  27879879.51440
    915808.50300  24542921.43900                    814400.57940  24542926.30340
  -9719631.70300  24259794.76000                  -7482162.21240  24259798.87340
  -5874611.64800  25849969.15800                  -4465536.68240  25849973.79940
  -3063533.44700  24548296.59600                  -2293936.34740  24548300.69740
  -2157898.77900  23869929.78300                  -1579223.82840  23869933.11140
 96  9  8  3 38 30.0100000  0  6  4 14 18 19 22 29
   4899757.27200  27892668.33800                   3136688.76340  27892672.07640
   1032180.69000  24565066.40800                    905080.20040  24565071.29540
  -9742042.05700  24255530.18200                  -7499624.80840  24255534.04940
  -5906838.14400  25843836.90000                  -4490648.22340  25843841.71740
  -2975357.34800  24565076.05700                  -2225227.69440  24565080.13540
  -2106413.42600  23879726.99400                  -1539105.36740  23879730.45140
 96  9  8  3 39  0.0100000  0  6  4 14 18 19 22 29
   4967363.57100  27905533.92400                   3189369.01840  27905538.60040
   1148945.11100  24587285.72100                    996065.45840  24587290.63140
  -9764260.31300  24251302.04100                  -7516937.72040  24251305.77940
  -5938865.52900  25837742.04100                  -4515604.59140  25837747.37340
  -2886669.74100  24581952.46300                  -2156120.46140  24581956.43540
  -2054630.49400  23889581.01800                  -1498755.03140  23889584.39340
 96  9  8  3 39 30.0100000  0  6  4 14 18 19 22 29
   5035340.84100  27918467.91600                   3242338.27640  27918472.14640
   1266097.91700  24609579.21300                   1087353.35040  24609584.02940
  -9786279.57100  24247112.09600                  -7534095.57140  24247116.08040
  -5970695.04400  25831685.15000                  -4540406.78140  25831690.62340
  -2797485.12300  24598923.99400                  -2086625.94940  24598928.28340
  -2002550.89400  23899491.39300                  -1458173.52140  23899494.79140
 96  9  8  3 40  0.0100000  0  6  4 14 18 19 22 29
   5103704.49200  27931478.54100                   3295608.62840  27931484.30740
   1383645.35600  24631947.90000                   1178948.74940  24631952.83440
  -9808078.69400  24242963.68900                  -7551081.87740  24242967.75640
  -6002310.07000  25825668.71300                  -4565041.82340  25825673.84640
  -2707799.52400  24615990.49400                  -2016741.06140  24615994.80740
  -1950168.43400  23909459.47800                  -1417356.01940  23909462.80740
 96  9  8  3 40 30.0100000  0  6  4 14 18 19 22 29
   5172463.84300  27944563.56400                   3349187.37040  27944569.24840
   1501589.36900  24654391.88500                   1270853.16640  24654396.84240
  -9829648.60800  24238859.36900                  -7567889.59340  24238863.27140
  -6033707.92700  25819694.65000                  -4589507.63940  25819699.64340
  -2617608.86900  24633153.16600                  -1946462.62440  24633157.39640
  -1897494.13000  23919483.11100                  -1376311.10440  23919486.49840
 96  9  8  3 41  0.0100000  0  7  3  4 14 18 19 22 29
                  27938798.06400
   5241639.57600  27957726.80700                   3403090.48140  27957730.83840
   1619959.48900  24676916.80700                   1363089.61840  24676921.76440
  -9850954.58700  24234804.89300                  -7584491.64640  24234808.94740
  -6064891.58200  25813759.84600                  -4613806.54040  25813765.06040
  -2526890.07700  24650416.41600                  -1875772.65340  24650420.37740
  -1844522.04700  23929563.28300                  -1335034.15440  23929566.71740
 96  9  8  3 41 30.0100000  0  7  3  4 14 18 19 22 29
    -33749.74100  27932152.17400
   5311218.16900  27970966.93900                   3457307.59440  27970972.58840
   1738746.46000  24699521.47100                   1455650.88540  24699526.32240
  -9872015.45200  24230797.22100                  -7600902.69240  24230801.11140
  -6095860.15900  25807866.94700                  -4637937.85440  25807871.36540
  -2435635.29000  24667781.58800                  -1804665.02240  24667785.83040
  -1791249.39800  23939700.72800                  -1293523.00440  23939704.01040
 96  9  8  3 42  0.0100000  0  7  3  4 14 18 19 22 29
    -68545.35400  27925530.57200
   5381204.18800  27984284.36100                   3511842.10840  27984288.17040
   1857960.22600  24722206.82200                   1548544.71440  24722211.55740
  -9892820.10800  24226838.14300                  -7617114.10040  24226841.98640
  -6126609.86800  25802015.31400                  -4661898.64540  25802019.67440
  -2343817.33600  24685253.93200                  -1733118.56440  24685258.06840
  -1737652.42300  23949899.84600                  -1251759.12740  23949903.26840
 96  9  8  3 42 30.0100000  0  6  3 14 18 19 22 29
   -103226.11200  27918931.70500                     -1798.32350  27918934.56440
   1977590.83700  24744971.82200                   1641763.36740  24744976.72140
  -9913381.75700  24222925.30700                  -7633136.15640  24222929.31440
  -6157163.40600  25796201.42400                  -4685706.56840  25796206.13540
  -2251440.89500  24702832.65800                  -1661136.91540  24702836.93540
  -1683719.44300  23960162.92400                  -1209733.43540  23960166.22840
 96  9  8  3 43  0.0100000  0  6  3 14 18 19 22 29
   -137805.53500  27912350.43900                    -28743.29640  27912356.29940
   2097614.75700  24767811.62700                   1735288.49540  24767816.54940
  -9933703.42900  24219058.11100                  -7648971.21440  24219062.07240
  -6187518.48900  25790424.69700                  -4709359.85440  25790429.12740
  -2158517.17900  24720515.42400                  -1588728.81740  24720519.63140
  -1629440.44500  23970491.80700                  -1167438.11240  23970495.17040
 96  9  8  3 43 30.0100000  0  6  3 14 18 19 22 29
   -172282.20700  27905790.33800                    -55608.20840  27905794.95540
   2218009.46400  24790722.03300                   1829102.54740  24790726.79140
  -9953792.31800  24215235.21300                  -7664624.88140  24215239.15040
  -6217663.42700  25784688.39300                  -4732849.39140  25784693.11540
  -2065068.52500  24738298.13500                  -1515911.68140  24738302.21340
  -1574815.92100  23980886.71300                  -1124873.54740  23980890.02940
 96  9  8  3 44  0.0100000  0  6  3 14 18 19 22 29
   -206658.92600  27899248.47800                    -82395.25640  27899251.97140
   2338754.18400  24813699.14300                   1923189.32540  24813704.06440
  -9973651.66800  24211456.21300                  -7680099.69140  24211460.20940
  -6247608.95400  25778990.18200                  -4756183.55540  25778995.49040
  -1971132.50800  24756173.58800                  -1442714.77340  24756177.58440
  -1519874.59800  23991341.85300                  -1082062.12540  23991345.19340
 96  9  8  3 44 30.0100000  0  6  3 14 18 19 22 29
   -240914.05100  27892729.96300                   -109087.49440  27892730.38540
   2459860.34400  24836744.93200                   2017557.75540  24836749.68940
  -9993275.87500  24207721.97800                  -7695391.27740  24207725.85740
  -6277331.57100  25773333.47800                  -4779344.00840  25773338.35340
  -1876710.17800  24774141.66600                  -1369138.93140  24774145.81440
  -1464627.85400  24001854.72100                  -1039012.71640  24001858.02540
 96  9  8  3 45  0.0100000  0  6  3 14 18 19 22 29
   -275047.07200  27886235.60300                   -135684.59840  27886240.24440
   2581339.08900  24859861.36900                   2112216.51440  24859866.32640
 -10012657.99400  24204033.56400                  -7710494.22440  24204037.50240
  -6306826.01000  25767720.95500                  -4802326.66540  25767725.45540
  -1781812.40300  24792199.91600                  -1295192.60640  24792204.21740
  -1409093.46800  24012422.41600                   -995739.17740  24012425.82640
 96  9  8  3 45 30.0100000  0  6  3 14 18 19 22 29
   -309057.45500  27879764.27500                   -162186.18440  27879768.51840
   2703204.55100  24883051.54100                   2207176.60640  24883056.29940
 -10031798.58200  24200391.18900                  -7725408.95540  24200394.98640
  -6336103.13800  25762149.99400                  -4825139.96640  25762154.91640
  -1686438.75900  24810348.77500                  -1220875.47740  24810352.85340
  -1353274.04900  24023044.75200                   -952243.52940  24023048.13940
 96  9  8  3 46  0.0100000  0  6  3 14 18 19 22 29
   -342958.29400  27873312.72800                   -188602.41940  27873317.77940
   2825455.92000  24906315.22800                   2302437.40740  24906320.24440
 -10050698.70200  24196794.86900                  -7740136.31140  24196798.83040
  -6365182.94900  25756616.30700                  -4847799.52340  25756620.85340
  -1590589.40100  24828588.36900                  -1146187.65240  24828592.36540
  -1297164.30600  24033722.00200                   -908521.66440  24033725.28340
 96  9  8  3 46 30.0100000  0  6  3 14 18 19 22 29
   -376737.57200  27866883.90000                   -214923.88240  27866887.53340
   2948103.13000  24929654.21300                   2398006.64840  24929659.04140
 -10069359.68000  24193243.46300                  -7754677.33340  24193247.33040
  -6394070.37400  25751118.80700                  -4870309.16640  25751123.85740
  -1494241.88700  24846922.65800                  -1071111.66740  24846926.77140
  -1240733.99400  24044460.37700                   -864550.00540  24044463.77540
 96  9  8  3 47  0.0100000  0  6  3 14 18 19 22 29
   -410412.57800  27860476.45500                   -241164.15040  27860480.89640
   3071133.22400  24953066.31400                   2493874.24440  24953071.47140
 -10087785.96900  24189737.07200                  -7769035.47040  24189741.06840
  -6422779.03900  25745655.90800                  -4892679.51740  25745661.10040
  -1397403.23700  24865350.57200                   -995652.96840  24865354.92040
  -1183958.36800  24055264.26000                   -820309.27040  24055267.67040
 96  9  8  3 47 30.0100000  0  6  3 14 18 19 22 29
   -443989.22200  27854086.58800                   -267327.74540  27854091.60340
   3194519.31200  24976546.01000                   2590019.23540  24976550.76840
 -10105987.03800  24186273.65000                  -7783218.11840  24186277.51840
  -6451304.21400  25740227.92400                  -4914906.90140  25740232.84640
  -1300071.39800  24883872.28300                   -919809.96640  24883876.29140
  -1126827.77800  24066135.93900                   -775791.93340  24066139.33840
 96  9  8  3 48  0.0100000  0  6  3 14 18 19 22 29
   -477462.15100  27847717.25200                   -293410.47940  27847724.51040
   3318243.81000  25000089.86900                   2686427.92540  25000094.67440
 -10123971.95300  24182851.25200                  -7797232.32740  24182855.29540
  -6479645.02700  25734834.97100                  -4936990.62640  25734839.70540
  -1202251.00900  24902486.84600                   -843586.27640  24902490.87740
  -1069348.52800  24077073.90000                   -731002.91340  24077077.29940
 96  9  8  3 48 30.0100000  0  6  3 14 18 19 22 29
   -510823.83600  27841366.67400                   -319406.61140  27841369.67440
   3442297.52700  25023696.48600                   2783093.14940  25023701.32640
 -10141749.75900  24179468.21300                  -7811085.15440  24179472.03340
  -6507785.09900  25729479.71300                  -4958917.91940  25729484.42440
  -1103941.31800  24921194.29100                   -766981.31840  24921198.45140
  -1011528.00700  24088076.93200                   -685947.96840  24088080.23640
 96  9  8  3 49  0.0100000  0  6  3 14 18 19 22 29
   -544042.39300  27835047.36100                   -345291.18140  27835053.94740
   3566708.71800  25047371.04100                   2880036.92940  25047375.98640
 -10159285.57500  24176131.08000                  -7824749.42340  24176134.98240
  -6535679.97900  25724171.51000                  -4980654.17340  25724175.97540
  -1005123.92800  24939998.53300                   -689980.74940  24940002.67040
   -953365.88300  24099144.71300                   -640626.84140  24099148.13540
 96  9  8  3 49 30.0110000  0  6  3 14 18 19 22 29
   -577093.42600  27828759.32700                   -371045.17640  27828764.88240
   3691487.65400  25071115.65500                   2977267.27040  25071120.54240
 -10176569.52300  24172842.14000                  -7838217.42540  24172846.00740
  -6563329.90700  25718910.03800                  -5002199.55440  25718914.89040
   -905794.62200  24958900.42900                   -612581.28140  24958904.41340
   -894883.01200  24110273.67100                   -595055.78340  24110277.09340
 96  9  8  3 50  0.0110000  0  6  3 14 18 19 22 29
   -609967.96200  27822501.87400                   -396661.69640  27822505.43640
   3816642.28700  25094931.92900                   3074790.34740  25094936.82740
 -10193599.81900  24169601.63200                  -7851487.77540  24169605.54640
  -6590744.97100  25713692.96000                  -5023561.91340  25713697.64740
   -805966.07800  24977897.09300                   -534792.80440  24977901.14740
   -836100.13000  24121459.78000                   -549250.94240  24121463.10840
 96  9  8  3 50 30.0110000  0  6  3 14 18 19 22 29
   -642668.41900  27816279.21000                   -422142.48640  27816284.61240
   3942181.48500  25118821.29600                   3172613.09040  25118825.89040
 -10210373.44900  24166409.64000                  -7864558.13140  24166413.50740
  -6617936.16500  25708518.54600                  -5044749.83140  25708523.36240
   -705648.73300  24996987.06900                   -456623.43540  24996991.51140
   -777027.44900  24132700.92100                   -503220.28640  24132704.27240
 96  9  8  3 51  0.0110000  0  6  3 14 18 19 22 29
   -675183.00700  27810091.49100                   -447478.53240  27810094.86640
   4068114.97800  25142785.77200                   3270743.08440  25142790.64740
 -10226872.25000  24163269.80400                  -7877414.33840  24163273.85840
  -6644909.11500  25703386.09300                  -5065767.68140  25703391.05040
   -604837.72300  25016170.67900                   -378069.39940  25016175.20240
   -717650.89700  24143999.84300                   -456952.84340  24144003.14740
 96  9  8  3 51 30.0110000  0  6  3 14 18 19 22 29
   -707532.51700  27803935.57700                   -472685.94140  27803940.27640
   4194423.98200  25166821.31100                   3369165.67740  25166826.11640
 -10243096.68900  24160182.49900                  -7890056.74640  24160186.47240
  -6671681.21500  25698291.53000                  -5086629.04040  25698296.31140
   -503540.42200  25035446.98300                   -299136.43140  25035451.46040
   -657964.60100  24155357.68600                   -410444.04440  24155361.14340
 96  9  8  3 52  0.0110000  0  6  3 14 18 19 22 29
   -739745.06300  27797805.32700                   -497786.59240  27797809.56940
   4321081.25600  25190923.20200                   3467859.64640  25190928.04240
 -10259067.74100  24157143.43600                  -7902501.71140  24157147.46840
  -6698263.95400  25693232.84300                  -5107342.84640  25693237.99940
   -401777.28700  25054811.78800                   -219840.47540  25054816.24140
   -597982.43000  24166771.96800                   -363704.69340  24166775.42540
 96  9  8  3 52 30.0110000  0  6  3 14 18 19 22 29
   -771814.20600  27791702.75700                   -522775.52240  27791706.64740
   4448078.22600  25215090.28800                   3566818.31040  25215095.12840
 -10274768.30300  24154155.56900                  -7914735.90140  24154159.56540
  -6724642.93100  25688212.94400                  -5127897.88840  25688217.64340
   -299544.77500  25074265.75700                   -140178.77840  25074270.09340
   -537684.96900  24178246.14700                   -316719.66340  24178249.47640
 96  9  8  3 53  0.0110000  0  6  3 14 18 19 22 29
   -803744.62300  27785625.67100                   -547656.34340  27785630.22940
   4575410.01500  25239320.83500                   3666037.88740  25239325.51140
 -10290200.93400  24151218.77200                  -7926761.32340  24151222.74540
  -6750818.01200  25683232.25700                  -5148294.04040  25683236.72240
   -196843.98300  25093809.35100                    -60152.18840  25093813.52240
   -477067.40600  24189781.28800                   -269485.19140  24189784.68640
 96  9  8  3 53 30.0110000  0  6  3 14 18 19 22 29
   -835532.71600  27779578.41300                   -572426.30340  27779583.24140
   4703064.92600  25263612.54600                   3765509.24340  25263617.33940
 -10305375.80600  24148331.18600                  -7938585.89940  24148335.03040
  -6776796.35200  25678288.64700                  -5168536.89640  25678293.22940
    -93699.00200  25113437.12400                     20220.53240  25113441.51840
   -416147.00300  24201374.01500                   -222014.74940  24201377.43640
 96  9  8  3 54  0.0110000  0  6  3 14 18 19 22 29
   -867148.52400  27773561.63200                   -597061.94540  27773565.80440
   4831042.82200  25287966.13200                   3865232.28140  25287970.70240
 -10320299.77700  24145491.09300                  -7950214.96340  24145495.15940
  -6802584.52400  25673381.09300                  -5188631.56240  25673385.96840
      9871.33000  25133145.96000                    100924.69140  25133150.10840
   -354916.49800  24213025.69400                   -174302.66540  24213029.12840
 96  9  8  3 54 30.0110000  0  6  3 14 18 19 22 29
   -898562.27900  27767584.96000                   -621540.18640  27767589.90540
   4959355.13500  25312383.08500                   3965215.89340  25312387.79640
 -10334960.27500  24142701.40500                  -7961638.72240  24142705.36640
  -6828168.64700  25668512.93600                  -5208567.22040  25668517.62440
    113876.40400  25152937.26500                    181967.60740  25152941.39040
   -293349.09600  24224741.76500                   -126328.06240  24224745.12840
 96  9  8  3 55  0.0110000  0  6  3 14 18 19 22 29
   -929775.72200  27761644.56100                   -645862.31340  27761651.13640
   5087995.21100  25336862.42900                   4065454.90640  25336867.15140
 -10349369.61400  24139959.48300                  -7972866.76940  24139963.36240
  -6853560.88800  25663680.68600                  -5228353.36640  25663685.14040
    218305.85800  25172809.71000                    263341.21140  25172813.84740
   -231451.92300  24236520.28800                    -78096.49640  24236523.65140
 96  9  8  3 55 30.0110000  0  6  3 14 18 19 22 29
   -960775.80700  27755746.35100                   -670018.22440  27755751.96440
   5216964.09800  25361404.29600                   4165950.13240  25361408.53840
 -10363513.05500  24137267.96800                  -7983887.62240  24137271.81140
  -6878742.03100  25658888.91300                  -5247975.01940  25658893.55440
    323176.54900  25192765.81900                    345058.63640  25192770.12040
   -169199.54900  24248366.64700                    -29588.15340  24248370.05840
 96  9  8  3 56  0.0110000  0  6  3 14 18 19 22 29
   -991590.74800  27749881.07700                   -694029.87440  27749883.21040
   5346252.83300  25386007.22600                   4266694.60240  25386011.93640
 -10377399.65100  24134625.48300                  -7994708.33140  24134629.29240
  -6903709.04200  25654137.95200                  -5267429.81540  25654142.61640
    428496.02200  25212807.58500                    427125.76540  25212811.79240
   -106583.85800  24260282.03800                     19203.29340  24260285.43640
 96  9  8  3 56 30.0110000  0  6  3 14 18 19 22 29
  -1022240.81300  27744049.14000                   -717912.98740  27744055.45640
   5475856.99200  25410670.17900                   4367684.84740  25410674.94840
 -10391019.12300  24132033.71000                  -8005320.90440  24132037.68340
  -6928450.97900  25649429.59300                  -5286709.23640  25649434.22240
    534282.33000  25232937.94400                    509556.65440  25232942.12840
    -43598.27300  24272267.84300                     68282.96840  24272271.22940
 96  9  8  3 57  0.0110000  0  6  3 14 18 19 22 29
  -1052748.19800  27738244.24100                   -741684.99540  27738248.68340
   5605766.17100  25435391.04600                   4468912.77340  25435396.06140
 -10404372.73600  24129492.40500                  -8015726.30940  24129496.28440
  -6952982.08100  25644761.46800                  -5305824.36640  25644766.23740
    640524.20900  25253155.31100                    592342.53840  25253159.64740
     19745.60800  24284321.77200                    117641.83840  24284325.17140
 96  9  8  3 57 30.0110000  0  6  3 14 18 19 22 29
  -1083109.45600  27732465.87400                   -765343.08140  27732471.59340
   5735973.70400  25460168.81100                   4570373.17140  25460173.39340
 -10417461.62400  24127001.81900                  -8025925.43540  24127005.67540
  -6977304.28800  25640133.33500                  -5324776.71440  25640138.11640
    747213.58400  25273457.52200                    675477.11540  25273462.10440
     83445.52900  24296443.31100                    167278.14440  24296446.83940
 96  9  8  3 58  0.0110000  0  6  3 14 18 19 22 29
  -1113287.78200  27726723.49900                   -788858.63440  27726728.62040
   5866489.97500  25485005.09300                   4672074.15440  25485010.01540
 -10430260.66400  24124566.10100                  -8035898.70040  24124569.92140
  -7001410.61000  25635545.77200                  -5343560.82840  25635550.20240
    854357.76800  25293846.49100                    758966.09540  25293850.67540
    147503.48400  24308633.20200                    217193.43240  24308636.63640
 96  9  8  3 58 30.0110000  0  6  3 14 18 19 22 29
  -1143272.54500  27721018.69400                   -812223.36840  27721023.47640
   5997305.06700  25509898.43600                   4774007.97840  25509903.10140
 -10442771.74500  24122185.42900                  -8045647.59740  24122189.31940
  -7025320.50200  25630995.85800                  -5362191.89440  25631000.28840
    961946.87200  25314320.04600                    842801.75540  25314324.15940
    211892.45800  24320885.94400                    267366.66040  24320889.39040
 96  9  8  3 59  0.0110000  0  6  3 14 18 19 22 29
  -1173034.40900  27715355.43600                   -835414.43640  27715359.23340
   6128440.64100  25534852.97600                   4876191.53240  25534857.62840
 -10454987.75200  24119860.68600                  -8055166.55240  24119864.49540
  -7049028.73200  25626484.25700                  -5380665.81040  25626489.01540
   1069986.10800  25334879.17100                    926988.17840  25334883.43640
    276603.92300  24333200.24900                    317791.18240  24333203.77640
 96  9  8  3 59 30.0110000  0  6  3 14 18 19 22 29
  -1202570.14400  27709733.63200                   -858429.26640  27709740.39340
   6259896.41200  25559867.81100                   4978624.59240  25559872.66340
 -10466913.71500  24117591.30400                  -8064459.50740  24117595.31140
  -7072544.71600  25622009.17100                  -5398989.93340  25622014.19840
   1178467.73100  25355522.42900                   1011519.31240  25355526.61240
    341619.20300  24345572.23300                    368452.42640  24345575.71440
 96  9  8  4  0  0.0110000  0  6  3 14 18 19 22 29
  -1231882.50800  27704155.85100                   -881270.08240  27704161.65140
   6391676.67500  25584944.78000                   5081310.49740  25584949.58540
 -10478546.21200  24115377.70200                  -8073523.78640  24115381.44040
  -7095856.23500  25617573.43600                  -5417154.73440  25617578.42940
   1287402.94700  25376252.19400                   1096403.89540  25376256.19040
    406930.74800  24358000.49900                    419344.53740  24358003.88640
 96  9  8  4  0 30.0110000  0  6  3 14 18 19 22 29
  -1260999.84800  27698613.64000                   -903958.89340  27698619.35840
   6523788.80500  25610085.01500                   5184255.01440  25610089.81940
 -10489906.54500  24113215.96000                  -8082375.99440  24113219.75740
  -7118973.24500  25613174.05400                  -5435167.96340  25613178.69440
   1396778.03700  25397065.45200                   1181631.24240  25397069.58940
    472528.57000  24370483.57700                    470459.72540  24370486.84740
 96  9  8  4  1  0.0110000  0  6  3 14 18 19 22 29
  -1289917.50200  27693110.31900                   -926492.15240  27693115.13640
   6656232.76100  25635288.18600                   5287458.09740  25635293.16740
 -10500988.72700  24111107.23300                  -8091011.45640  24111110.92540
  -7141877.23300  25608815.37400                  -5453015.20540  25608820.17940
   1506578.76300  25417959.79600                   1267190.24740  25417964.20240
    538432.63400  24383024.59300                    521813.53440  24383027.72240
 96  9  8  4  1 30.0110000  0  6  3 14 18 19 22 29
  -1318643.18700  27687645.43600                   -948875.76540  27687650.08940
   6788980.82700  25660549.14700                   5390898.14140  25660553.80040
 -10511796.82700  24109050.38200                  -8099433.35240  24109054.36640
  -7164572.77700  25604496.85800                  -5470700.00740  25604501.69840
   1616789.50900  25438932.30400                   1353068.75640  25438936.56940
    604648.68500  24395625.11600                    573410.46540  24395628.38640
 96  9  8  4  2  0.0110000  0  6  3 14 18 19 22 29
  -1347161.13500  27682216.64000                   -971097.53040  27682221.19840
   6922029.86500  25685867.57700                   5494572.71840  25685872.62840
 -10522318.92800  24107048.08500                  -8107632.38740  24107051.94040
  -7187044.57100  25600220.29600                  -5488210.46540  25600224.81940
   1727409.42900  25459982.74100                   1439266.10240  25459986.84340
    671203.03000  24408290.03800                    625270.99340  24408293.41340
 96  9  8  4  2 30.0110000  0  6  3 14 18 19 22 29
  -1375454.36000  27676833.74900                   -993144.19140  27676838.83540
   7055365.92300  25711240.71000                   5598470.92740  25711246.14740
 -10532543.22100  24105102.36600                  -8115599.36440  24105106.35140
  -7209304.47500  25595984.42100                  -5505555.82440  25595989.16740
   1838422.31800  25481107.68600                   1525769.65240  25481112.02240
    738109.41400  24421021.92100                    677405.83340  24421025.21440
 96  9  8  4  3  0.0110000  0  6  3 14 18 19 22 29
  -1403501.65100  27671498.90500                  -1014999.14440  27671503.82740
   7188965.25100  25736663.59300                   5702574.30440  25736668.60840
 -10542456.65100  24103215.78800                  -8123324.10740  24103219.66740
  -7231351.46700  25591789.19400                  -5522735.27540  25591793.60140
   1949818.44100  25502305.58500                   1612571.82940  25502309.85140
    805366.82800  24433820.44400                    729814.20540  24433823.69040
 96  9  8  4  3 30.0110000  0  6  3 14 18 19 22 29
  -1431290.67200  27666208.33500                  -1036652.92740  27666213.96040
   7322823.06600  25762135.97600                   5806879.08340  25762140.60440
 -10552051.93200  24101390.31900                  -8130800.94640  24101394.08140
  -7253201.18500  25587631.16300                  -5539761.02340  25587636.08540
   2061607.95700  25523578.35100                   1699680.54240  25523582.41740
    872969.35600  24446684.83500                    782491.49640  24446688.16340
 96  9  8  4  4  0.0110000  0  6  3 14 18 19 22 29
  -1458830.00700  27660969.31100                  -1058112.13840  27660974.91340
   7456932.15800  25787656.14000                   5911379.67740  25787660.89740
 -10561327.15200  24099625.16300                  -8138028.38840  24099628.91340
  -7274855.94600  25583510.57700                  -5556634.85040  25583515.14740
   2173790.83900  25544925.89000                   1787095.77340  25544930.33140
    940908.22500  24459613.18600                    835430.86340  24459616.51540
 96  9  8  4  4 30.0110000  0  7  3 14 18 19 22 28 29
  -1486131.29700  27655772.97600                  -1079385.80840  27655776.92540
   7591292.07400  25813223.96800                   6016075.71740  25813228.80840
 -10570288.08700  24097919.89700                  -8145010.93440  24097923.72940
  -7296323.78500  25579425.48300                  -5573363.02640  25579430.31140
   2286365.69300  25566348.74900                   1874816.44740  25566352.85140
                  28211878.10100
   1009170.10500  24472602.89700                    888621.93240  24472606.30840
 96  9  8  4  5  0.0110000  0  7  3 14 18 19 22 28 29
  -1513199.98600  27650622.07700                  -1100478.28440  27650626.63640
   7725920.15700  25838842.51500                   6120980.71040  25838847.62440
 -10578933.83000  24096274.78800                  -8151747.87340  24096278.56140
  -7317586.67800  25575379.03000                  -5589931.48640  25575383.85840
   2399355.10400  25587849.28000                   1962860.14140  25587853.73340
     19913.55910  28216809.61600                     15517.74110  28216814.21000
   1077764.33200  24485656.03800                    942071.97340  24485659.40140
 96  9  8  4  5 30.0110000  0  7  3 14 18 19 22 28 29
  -1540065.47700  27645508.03800                  -1121412.44240  27645512.97240
   7860817.71800  25864513.30400                   6226095.67940  25864518.09740
 -10587280.25400  24094686.47600                  -8158251.57440  24094690.19040
  -7338643.82100  25571371.84300                  -5606339.62740  25571376.42540
   2512765.96600  25609430.83500                   2051232.23840  25609435.01840
     46311.90100  28221833.25700                     36087.87800  28221837.35800
   1146699.16100  24498773.78000                    995787.42040  24498777.28440
 96  9  8  4  6  0.0110000  0  7  3 14 18 19 22 28 29
  -1566743.99100  27640434.24900                  -1142200.85940  27640438.98340
   7995996.64300  25890236.62400                   6331429.90340  25890241.24140
 -10595333.84500  24093153.81900                  -8164527.09040  24093157.59340
  -7359485.08100  25567405.80400                  -5622579.53940  25567410.66740
   2626590.23400  25631091.11600                   2139926.47640  25631095.31140
     73195.05600  28226948.92100                     57035.81000  28226953.63200
   1215985.39700  24511958.54600                   1049776.68940  24511961.93340
 96  9  8  4  6 30.0110000  0  7  3 14 18 19 22 28 29
  -1593225.11900  27635394.07700                  -1162835.47340  27635399.23340
   8131467.02700  25916015.99100                   6436991.23740  25916020.97240
 -10603100.50800  24091675.82700                  -8170579.03040  24091679.57740
  -7380102.68400  25563482.53000                  -5638645.18840  25563487.19440
   2740826.85200  25652829.60100                   2228942.01940  25652833.81940
    100565.50300  28232157.42100                     78363.44700  28232161.50700
   1285638.24500  24525213.13200                   1104051.62540  24525216.69440
 96  9  8  4  7  0.0110000  0  7  3 14 18 19 22 28 29
  -1619499.98300  27630393.26500                  -1183309.39440  27630397.30840
   8267210.69400  25941847.06100                   6542765.51940  25941851.56140
 -10610581.26100  24090252.44400                  -8176408.17640  24090256.13640
  -7400494.26700  25559602.48300                  -5654534.70740  25559606.98340
   2855475.09700  25674646.17100                   2318278.31840  25674649.93340
    128418.39300  28237457.80400                    100067.03100  28237462.14700
   1355660.10000  24538537.71000                   1158614.10740  24538541.03840
 96  9  8  4  7 30.0110000  0  7  3 14 18 19 22 28 29
  -1645549.96400  27625435.99900                  -1203608.02540  27625442.40940
   8403225.40800  25967730.03000                   6648751.01940  25967735.40940
 -10617766.38800  24088884.81900                  -8182006.96340  24088888.71040
  -7420655.19000  25555765.73300                  -5670244.49540  25555770.22240
   2970521.63600  25696539.14000                   2407924.97240  25696543.15940
    156757.97600  28242850.85800                    122149.83700  28242854.55000
   1426062.56900  24551934.92100                   1213473.17740  24551938.36640
 96  9  8  4  8  0.0110000  0  7  3 14 18 19 22 28 29
  -1671353.84700  27620524.98300                  -1223714.96040  27620528.33540
   8539487.64700  25993659.86600                   6754929.39140  25993664.65940
 -10624652.97300  24087574.48300                  -8187373.12040  24087578.35140
  -7440603.95700  25551969.55400                  -5685788.97140  25551974.27640
   3085948.23400  25718504.29600                   2497867.77340  25718508.65540
    185580.34100  28248335.46000                    144608.82000  28248339.32700
   1496828.16700  24565401.21800                   1268615.20440  24565404.72240
 96  9  8  4  8 30.0110000  0  8  3 14 18 19 22 27 28 29
  -1696876.51100  27615668.64000                  -1243602.75240  27615671.59340
   8675988.02900  26019634.62400                   6861293.32740  26019639.14740
 -10631224.49400  24086323.98300                  -8192493.78540  24086327.96840
  -7460338.80100  25548214.02200                  -5701166.75540  25548218.71040
   3201768.02600  25740543.41300                   2588116.96240  25740547.49140
     -7322.76810  28578236.52200
    214889.91900  28253912.67900                    167447.48500  28253917.07300
   1567945.12700  24578934.21800                   1324031.00940  24578937.59340
 96  9  8  4  9  0.0110000  0  8  3 14 18 19 22 27 28 29
  -1722115.05000  27610866.59300                  -1263269.08340  27610871.04640
   8812723.61200  26045654.85100                   6967840.53940  26045660.11240
 -10637472.40100  24085135.03000                  -8197362.28240  24085139.12040
  -7479878.10900  25544495.98300                  -5716392.17240  25544500.08540
   3317972.46500  25762656.69400                   2678665.88040  25762660.94840
    -51219.01900  28569882.58500
    244682.60300  28259582.40500                    190662.55100  28259586.38600
   1639393.54400  24592530.64000                   1379705.09240  24592534.14340
 96  9  8  4  9 30.0110000  0  8  3 14 18 19 22 27 28 29
  -1747063.91700  27606119.09300                  -1282709.76040  27606122.05840
   8949709.31300  26071722.17900                   7074582.64740  26071727.05440
 -10643387.43600  24084009.50700                  -8201971.39940  24084013.47940
  -7499222.29100  25540814.98300                  -5731465.55240  25540819.75340
   3434565.93300  25784843.61600                   2769517.93040  25784847.68340
    -95019.89900  28561547.54600
    274972.10900  28265346.31900                    214264.77200  28265350.13200
   1711173.24000  24606189.64000                   1435637.31540  24606193.16740
 96  9  8  4 10  0.0110000  0  9  3 14 18 19 22 27 28 29 31
  -1771736.34500  27601423.08500                  -1301934.99840  27601427.45640
   9086933.56000  26097835.42100                   7181510.62540  26097840.24940
 -10648990.82600  24082943.19400                  -8206337.67240  24082947.02640
  -7518393.24400  25537166.85800                  -5746403.94340  25537171.33540
   3551536.96800  25807102.81100                   2860664.19440  25807107.14740
   -138737.83500  28553228.60800                    -20430.51750  28553232.92140
    305749.08700  28271203.20200                    238246.83000  28271206.78000
   1783247.55300  24619905.03000                   1491799.10440  24619908.39340
     -8927.86810  28227254.39700
 96  9  8  4 10 30.0110000  0  9  3 14 18 19 22 27 28 29 31
  -1796143.79800  27596778.03800                  -1320953.76440  27596781.12040
   9224414.68700  26123997.14000                   7288638.76440  26124002.13240
 -10654281.96300  24081936.39700                  -8210460.63440  24081940.22940
  -7537380.15800  25533553.68600                  -5761198.92340  25533558.23340
   3668886.09500  25829433.49100                   2952105.07040  25829437.60440
   -182367.85000  28544927.41300                    -54427.85940  28544932.14740
    337017.73600  28277153.60800                    262611.99800  28277156.92100
   1855617.39200  24633676.42100                   1548191.18140  24633679.99540
    -62542.31700  28217052.19400
 96  9  8  4 11  0.0110000  0  9  3 14 18 19 22 27 28 29 31
  -1820312.19200  27592180.18600                  -1339786.24940  27592185.81140
   9362135.98300  26150204.32700                   7395954.06040  26150208.97940
 -10659277.91300  24080985.60800                  -8214353.57740  24080989.35840
  -7556188.24200  25529974.58500                  -5775854.55940  25529978.79240
   3786592.67600  25851831.78000                   3043824.48140  25851836.15140
   -225929.96600  28536635.46800                    -88372.26140  28536641.44440
    368771.31900  28283196.48300                    287355.07500  28283199.69000
   1928288.89100  24647505.42100                   1604818.31640  24647508.89040
   -116210.77600  28206839.15500
 96  9  8  4 11 30.0120000  0  9  3 14 18 19 22 27 28 29 31
  -1844241.24900  27587627.00400                  -1358432.29140  27587631.58640
   9500095.19000  26176457.26900                   7503454.74240  26176462.33240
 -10663983.82300  24080090.08200                  -8218020.51040  24080093.92640
  -7574807.23200  25526431.31600                  -5790362.84440  25526436.13340
   3904661.05000  25874299.71500                   3135825.81640  25874303.86340
   -269416.47400  28528361.45700                   -122257.79840  28528366.74240
    401015.78900  28289332.28500                    312480.62900  28289335.89800
   2001282.50200  24661395.64400                   1661696.44940  24661398.98440
   -169928.04400  28196618.01900                    -25118.31950  28196619.07440
 96  9  8  4 12  0.0120000  0  9  3 14 18 19 22 27 28 29 31
  -1867895.56500  27583125.67600                  -1376864.19840  27583131.00840
   9638301.46300  26202757.13700                   7611147.92840  26202761.34440
 -10668369.80500  24079255.62900                  -8221438.14640  24079259.39140
  -7593216.79500  25522928.43400                  -5804707.93940  25522933.13340
   4023093.20000  25896836.60500                   3228110.60140  25896840.50840
   -312819.16700  28520101.53500                   -156078.05240  28520106.14140
    433762.62300  28295563.73800                    337997.66400  28295567.30500
   2074622.48700  24675351.75400                   1718844.48640  24675355.18740
   -223672.03400  28186389.71500                    -66996.77040  28186392.19940
 96  9  8  4 12 30.0120000  0  9  3 14 18 19 22 27 28 29 31
  -1891282.10000  27578674.59800                  -1395087.46440  27578679.82440
   9776737.05700  26229100.59800                   7719019.82440  26229105.23840
 -10672422.74000  24078484.21500                  -8224596.27140  24078488.16440
  -7611429.22100  25519462.65200                  -5818899.42640  25519467.11740
   4141872.93100  25919439.45700                   3320666.22840  25919443.86340
   -356167.13200  28511851.16000                   -189855.59740  28511854.94540
    466997.32800  28301888.22300                    363894.82900  28301891.78900
   2148321.14300  24689376.07400                   1776272.00440  24689379.59040
   -277449.49400  28176155.51200                   -108901.18740  28176158.78140
 96  9  8  4 13  0.0120000  0  9  3 14 18 19 22 27 28 29 31
  -1914390.21000  27574278.18400                  -1413093.73940  27574283.97340
   9915391.57700  26255485.73800                   7827062.29040  26255490.84840
 -10676138.27000  24077777.40200                  -8227491.48540  24077781.23440
  -7629449.82100  25516033.60500                  -5832941.42440  25516038.21140
   4260984.81800  25942106.07400                   3413480.68540  25942110.09440
   -399476.84300  28503610.36300                   -223603.40940  28503614.79340
    500723.77200  28308305.52700                    390175.19400  28308309.53900
   2222390.61300  24703471.28500                   1833988.45840  24703474.68440
   -331252.32900  28165917.85500                   -150825.50340  28165920.24640
 96  9  8  4 13 30.0120000  0  9  3 14 18 19 22 27 28 29 31
  -1937198.11500  27569938.30100                  -1430866.14140  27569942.47340
  10054284.19600  26281916.01200                   7935290.30240  26281920.78140
 -10679502.79100  24077136.99600                  -8230113.18540  24077140.93440
  -7647280.24700  25512640.06600                  -5846835.25040  25512644.62540
   4380419.94800  25964833.58200                   3506547.03340  25964837.74240
   -442744.58300  28495378.99600                   -257318.39040  28495383.35540
    534945.09600  28314817.83200                    416841.16900  28314821.57000
   2296826.49100  24717635.89400                   1891990.44340  24717639.28140
   -385092.26300  28155673.41800                   -192778.68440  28155677.69540
 96  9  8  4 14  0.0120000  0  9  3 14 18 19 22 27 28 29 31
  -1959704.19000  27565654.12900                  -1448403.32640  27565658.58240
  10193414.83100  26308391.80900                   8043703.77840  26308396.14440
 -10682512.88300  24076564.11300                  -8232458.70840  24076567.88740
  -7664922.02500  25509283.41000                  -5860582.06540  25509288.16840
   4500170.33000  25987621.55100                   3599859.01440  25987625.84040
   -485983.56000  28487149.45700                   -291011.10540  28487155.64440
    569657.86200  28321423.17600                    443890.08400  28321427.01600
   2371614.56400  24731867.78500                   1950266.85140  24731871.27740
   -438967.85800  28145419.62100                   -234759.66740  28145423.74640
 96  9  8  4 14 30.0120000  0  9  3 14 18 19 22 27 28 29 31
  -1981905.13500  27561430.69900                  -1465702.74840  27561434.85940
  10332788.80600  26334913.60500                   8152306.86640  26334918.77340
 -10685161.07900  24076060.24600                  -8234522.23740  24076063.98440
  -7682350.78800  25505966.53500                  -5874162.90240  25505971.09440
   4620253.82200  26010473.27700                   3693430.57240  26010477.42640
   -529167.47100  28478930.76900                   -324660.81240  28478939.96140
    604882.82700  28328126.05100                    471338.11700  28328129.48400
   2446772.45500  24746169.55100                   2008831.44140  24746173.07840
   -492858.63000  28135165.16800                   -276752.44340  28135168.37940
 96  9  8  4 15  0.0120000  0  9  3 14 18 19 22 27 28 29 31
  -2003810.63600  27557260.95700                  -1482771.97140  27557266.20740
  10472393.49100  26361479.58200                   8261089.72740  26361484.09440
 -10687485.48400  24075618.00400                  -8236333.46040  24075621.74240
  -7699570.07600  25502690.00400                  -5887580.52940  25502694.42240
   4740676.57300  26033388.24600                   3787266.48040  26033392.92240
   -572286.21700  28470725.59000                   -358259.83040  28470730.03140
    640608.65900  28334923.64400                    499176.45000  28334928.00000
   2522275.15400  24760537.55900                   2067664.71140  24760541.03940
   -546778.68700  28124904.63700                   -318768.04340  28124907.20340
 96  9  8  4 15 30.0120000  0  9  3 14 18 19 22 27 28 29 31
  -2025412.30800  27553150.49600                  -1499604.43340  27553155.85140
  10612221.59600  26388087.64400                   8370046.68240  26388092.53140
 -10689484.88400  24075237.48800                  -8237891.42340  24075241.21540
  -7716566.43000  25499455.62900                  -5900824.43240  25499460.18740
   4861460.53000  26056372.46500                   3881383.85140  26056376.84840
   -615323.06100  28462536.86300                   -391794.92040  28462542.54740
    676832.00700  28341817.33200                    527402.42200  28341820.44900
   2598121.17700  24774970.37100                   2126765.50340  24774973.79340
   -600726.45400  28114638.39400                   -360805.30040  28114642.85940
 96  9  8  4 16  0.0120000  0  9  3 14 18 19 22 27 28 29 31
  -2046712.13300  27549098.00400                  -1516201.68540  27549103.17240
  10752262.42400  26414737.16800                   8479169.38840  26414741.28140
 -10691150.72600  24074920.55900                  -8239189.48640  24074924.19140
  -7733322.64100  25496267.01900                  -5913881.20440  25496271.61340
   4982633.81300  26079430.86300                   3975804.58440  26079435.30540
   -658262.78700  28454365.32400                   -425254.40340  28454371.87540
    713567.11200  28348808.35500                    556027.18600  28348810.92200
   2674331.69400  24789472.51900                   2186150.31740  24789475.89440
   -654681.58600  28104371.29300                   -402848.24440  28104376.94140
 96  9  8  4 16 30.0120000  0  9  3 14 18 19 22 27 28 29 31
  -2067723.80100  27545100.11300                  -1532574.39940  27545104.73040
  10892486.26700  26441420.38700                   8588434.71340  26441425.05140
 -10692508.67000  24074662.00400                  -8240247.62740  24074665.74240
  -7749856.02000  25493120.67600                  -5926764.33440  25493125.21140
   5104175.78100  26102559.51200                   4070512.60540  26102564.37540
   -701119.63100  28446209.51900                   -458649.28740  28446212.63740
    750795.99200  28355893.16000                    585036.72700  28355895.69100
   2750892.73000  24804041.82400                   2245808.26040  24804045.29340
   -708664.29900  28094097.56600                   -444912.59640  28094104.19940
 96  9  8  4 17  0.0120000  0  9  3 14 18 19 22 27 28 29 31
  -2088425.21000  27541159.07400                  -1548705.35340  27541163.10540
  11032905.29000  26468141.56600                   8697852.13240  26468146.27740
 -10693548.38200  24074464.35500                  -8241057.77940  24074468.09440
  -7766159.62900  25490018.11300                  -5939468.43340  25490022.71940
   5226087.34000  26125758.97300                   4165508.63240  26125762.24240
   -743881.58300  28438072.91800                   -491970.22740  28438078.29740
    788529.59500  28363074.29300                    614439.58200  28363076.73000
   2827799.36200  24818676.65200                   2305735.50340  24818680.10940
   -762659.87900  28083824.12900                   -486987.05940  28083826.93040
 96  9  8  4 17 30.0120000  0  9  3 14 18 19 22 27 28 29 31
  -2108833.68900  27537274.71500                  -1564608.07140  27537279.36740
  11173508.27900  26494897.18400                   8807412.90940  26494901.63740
 -10694261.06000  24074328.67600                  -8241613.11140  24074332.44940
  -7782251.61500  25486956.09000                  -5952007.62940  25486960.53140
   5348337.76900  26149022.29300                   4260768.70140  26149026.40640
   -786562.77600  28429951.44900                   -525228.27240  28429955.10540
    826761.21800  28370348.84800                    644230.47100  28370351.90200
   2905047.22800  24833376.22300                   2365928.63940  24833379.63340
   -816663.68100  28073546.85500                   -529067.93440  28073551.14440
 96  9  8  4 18  0.0120000  0  9  3 14 18 19 22 27 28 29 31
  -2128946.79600  27533449.66000                  -1580280.59140  27533454.88740
  11314306.87100  26521690.19100                   8917126.07840  26521694.96140
 -10694642.06500  24074256.01900                  -8241909.99940  24074259.75840
  -7798142.84800  25483932.17600                  -5964390.37240  25483936.74640
   5470913.55700  26172347.53500                   4356282.31340  26172351.74240
   -829164.34900  28421844.84800                   -558424.21240  28421850.81240
    865497.49600  28377720.38700                    674414.59700  28377723.53900
   2982627.80200  24848139.60500                   2426381.03440  24848143.09840
   -870668.68300  28063269.91000                   -571149.75340  28063275.03140
 96  9  8  4 18 30.0120000  0  9  3 14 18 19 22 27 28 29 31
  -2148737.59500  27529682.64400                  -1595701.97540  27529687.34440
  11455310.48300  26548521.98000                   9026999.02340  26548526.79740
 -10694673.35900  24074250.31600                  -8241934.37640  24074254.11340
  -7813826.56100  25480947.44100                  -5976611.42740  25480952.38740
   5593812.75100  26195734.05900                   4452047.92040  26195738.39440
   -871672.20900  28413755.24600                   -591547.18240  28413761.03540
    904744.10600  28385188.59800                    704996.38600  28385192.23400
   3060542.35000  24862966.12100                   2487093.66540  24862969.49640
   -924651.19500  28052997.77700                   -613213.99940  28052998.51640
 96  9  8  4 19  0.0120000  0  9  3 14 18 19 22 27 28 29 31
  -2168229.31500  27525973.74600                  -1610890.32240  27525977.67240
  11596496.96900  26575389.38700                   9137014.46440  26575393.51240
 -10694349.31400  24074311.79300                  -8241681.86640  24074315.56640
  -7829331.06000  25477997.33200                  -5988692.82840  25478002.09040
   5717022.43200  26219180.16800                   4548055.45540  26219183.76640
   -914098.64900  28405681.27700                   -624606.71840  28405686.56240
    944484.30700  28392750.44900                    735962.77100  28392754.36700
   3138775.70300  24877853.62900                   2548054.72040  24877857.19140
   -978616.99500  28042729.14400                   -655265.26540  28042732.70740
 96  9  8  4 19 30.0120000  0  9  3 14 18 19 22 27 28 29 31
  -2187396.15100  27522326.24600                  -1625825.50540  27522330.26640
  11737881.88900  26602294.05900                   9247184.53240  26602299.01640
 -10693646.06800  24074445.54300                  -8241133.88040  24074449.28140
  -7844645.03300  25475082.64400                  -6000625.78240  25475087.25040
   5840558.37800  26242688.87900                   4644317.23240  26242692.51240
   -956442.49000  28397623.55100                   -657601.85940  28397630.45740
    984734.33300  28400407.99600                    767326.42100  28400413.54300
   3217362.70700  24892808.26200                   2609291.33740  24892811.64840
  -1032558.56800  28032463.44100                   -697297.63840  28032469.51240
 96  9  8  4 20  0.0120000  0  9  3 14 18 19 22 27 28 29 31
  -2206230.05200  27518740.91000                  -1640501.24240  27518745.57440
  11879461.38800  26629235.53500                   9357506.18640  26629240.09440
 -10692579.13100  24074648.71500                  -8240302.49640  24074652.44140
  -7859775.35200  25472203.51200                  -6012415.64440  25472207.90640
   5964415.19600  26266257.98800                   4740829.03840  26266261.99640
   -998712.35400  28389579.66000                   -690539.35140  28389583.48040
   1025490.42800  28408163.83200                    799084.38700  28408169.20700
   3296304.64800  24907830.47300                   2670804.53440  24907833.94140
  -1086487.27000  28022201.87100                   -739320.01640  28022206.33640
 96  9  8  4 20 30.0120000  0  9  3 14 18 19 22 27 28 29 31
  -2224740.22700  27515220.19900                  -1654924.72140  27515225.28540
  12021219.75300  26656211.24600                   9467967.25240  26656216.30940
 -10691143.21400  24074921.74600                  -8239183.58840  24074925.59040
  -7874725.46200  25469358.69900                  -6024065.09340  25469363.34040
   6088595.02300  26289888.73800                   4837592.52940  26289892.88740
  -1040907.30800  28381551.08200                   -723418.52740  28381556.69540
   1066750.56200  28416015.73800                    831235.13500  28416019.32800
   3375609.69800  24922921.39400                   2732600.66840  24922924.99240
  -1140407.57200  28011939.91800                   -781335.75140  28011944.16040
 96  9  8  4 21  0.0120000  0  9  3 14 18 19 22 27 28 29 31
  -2242930.88100  27511758.34800                  -1669099.26540  27511763.08240
  12163169.09500  26683223.26900                   9578577.11140  26683228.43740
 -10689345.96000  24075263.73000                  -8237783.12040  24075267.56240
  -7889492.84600  25466548.75400                  -6035572.12740  25466553.21940
   6213090.72800  26313578.84000                   4934602.17940  26313583.55140
  -1083033.01600  28373533.92600                   -756243.70140  28373541.17240
   1108522.27900  28423965.21500                    863784.54600  28423968.12500
   3455277.07000  24938081.88700                   2794679.13040  24938085.40240
  -1194340.13700  28001676.34000                   -823361.14540  28001680.04340
 96  9  8  4 21 30.0120000  0  9  3 14 18 19 22 27 28 29 31
  -2260790.48000  27508360.69900                  -1683015.81640  27508365.35140
  12305320.37100  26710273.82400                   9689344.35240  26710278.73440
 -10687203.46700  24075671.52700                  -8236113.63740  24075675.30140
  -7904068.42400  25463774.87900                  -6046929.70940  25463779.66040
   6337902.49500  26337330.30900                   5031858.10540  26337333.90640
  -1125092.88700  28365530.36300                   -789017.62140  28365535.57840
   1150808.93000  28432012.66000                    896735.19300  28432014.76600
   3535309.58900  24953311.43400                   2857042.12340  24953314.85540
  -1248283.47200  27991412.51900                   -865394.87440  27991419.64840
 96  9  8  4 22  0.0120000  0  9  3 14 18 19 22 27 28 29 31
  -2278334.71400  27505020.57400                  -1696686.63440  27505024.98040
  12447658.30500  26737360.03500                   9800257.00540  26737364.52340
 -10684718.56800  24076144.33200                  -8234177.33740  24076148.08240
  -7918453.61700  25461037.43400                  -6058138.93240  25461042.06240
   6463030.09300  26361141.08200                   5129360.10740  26361145.53540
  -1167077.17000  28357539.97300                   -821732.58340  28357545.58640
   1193604.31800  28440156.69900                    930082.30900  28440159.08600
   3615681.37200  24968605.59000                   2919669.48040  24968609.09440
  -1302222.59600  27981148.34000                   -907425.34740  27981154.16440
 96  9  8  4 22 30.0120000  0  9  3 14 18 19 22 27 28 29 31
  -2295565.21600  27501741.65200                  -1710112.97040  27501746.96140
  12590176.23700  26764480.49600                   9911309.93740  26764485.31240
 -10681875.20000  24076685.51900                  -8231961.72140  24076689.23440
  -7932632.08100  25458339.51200                  -6069187.07440  25458344.22340
   6588469.54000  26385011.11300                   5227105.15040  26385015.15640
  -1208995.35000  28349563.83200                   -854396.05240  28349570.14840
   1236905.31000  28448396.36300                    963823.38000  28448399.03100
   3696376.27000  24983961.34000                   2982548.61240  24983964.85540
  -1356146.00800  27970887.60500                   -949443.58340  27970893.74640
 96  9  8  4 23  0.0120000  0  9  3 14 18 19 22 27 28 29 31
  -2312473.07700  27498524.37900                  -1723287.92440  27498529.95740
  12732878.77300  26791635.67600                  10022506.70340  26791640.91440
 -10678685.09400  24077292.28500                  -8229475.91840  24077295.98840
  -7946592.76900  25455682.85500                  -6080065.50640  25455687.56640
   6714213.90400  26408939.75400                   5325087.76240  26408943.76240
  -1250855.07900  28341597.88700                   -887013.95540  28341604.69540
   1280710.71300  28456731.71500                    997957.48700  28456735.20700
   3777391.60900  24999378.10500                   3045677.43940  24999381.44540
  -1410044.34300  27960630.09000                   -991442.26540  27960634.59040
 96  9  8  4 23 30.0120000  0  8  3 14 18 19 22 27 29 31
  -2329038.33900  27495372.51900                  -1736195.90840  27495376.73840
  12875773.26200  26818827.81600                  10133853.06740  26818832.93740
 -10675119.83800  24077970.90200                  -8226697.79040  24077974.54740
  -7960308.78400  25453072.59800                  -6090753.31940  25453077.00440
   6840282.91900  26432930.48800                   5423323.36240  26432934.87140
  -1292638.49900  28333647.44900                   -919572.38840  28333653.54340
   3858743.62600  25014859.01900                   3109068.60640  25014862.30140
  -1463878.24200  27950385.48800                  -1033390.72040  27950390.34040
